[[{"header":{"parameterUnit":"m.s-1","parameterCategory":1,"la1":31.0,"la2":29.5877,"lo1":-88.7671,"lo2":-86.6584,"dy":0.0162,"dx":0.0185,"nx":115,"ny":88,"refTime":"2023-08-27T06:00:00:Z","depth":0,"parameterNumber":2,"parameterNumberName":"U-component_of_WINDS"},"data":[0.0,0.0,0.0,0.0,0.0,0.0,0.0,0.0,0.0,0.0,0.0,0.0,0.0,0.0,0.0,0.0,0.0,0.0,0.0,0.0,0.0,0.0,0.0,0.0,0.0,0.0,0.0,0.0,0.0,0.0,0.0,0.0,0.0,0.0,0.0,0.0,0.0,0.0,0.0,0.0,0.0,0.0,0.0,0.0,0.0,0.0,0.0,0.0,0.0,0.0,0.0,0.0,0.0,0.0,0.0,0.0,0.0,0.0,0.0,0.0,0.0,0.0,0.0,0.0,0.0,0.0,0.0,0.0,0.0,0.0,0.0,0.0,0.0,0.0,0.0,0.0,0.0,0.0,0.0,0.0,0.0,0.0,0.0,0.0,0.0,0.0,0.0,0.0,0.0,0.0,0.0,0.0,0.0,0.0,0.0,0.0,0.0,0.0,0.0,0.0,0.0,0.0,0.0,0.0,0.0,0.0,0.0,0.0,0.0,0.0,0.0,0.0,0.0,0.0,0.0,0.0,0.0,0.0,0.0,0.0,0.0,0.0,0.0,0.0,0.0,0.0,0.0,0.0,0.0,0.0,0.0,0.0,0.0,0.0,0.0,0.0,0.0,0.0,0.0,0.0,0.0,0.0,0.0,0.0,0.0,0.0,0.0,0.0,0.0,0.0,0.0,0.0,0.0,0.0,0.0,0.0,0.0,0.0,0.0,0.0,0.0,0.0,0.0,0.0,0.0,0.0,0.0,0.0,0.0,0.0,0.0,0.0,0.0,0.0,0.0,0.0,0.0,0.0,0.0,0.0,0.0,0.0,0.0,0.0,0.0,0.0,0.0,0.0,0.0,0.0,0.0,0.0,0.0,0.0,0.0,0.0,0.0,0.0,0.0,0.0,0.0,0.0,0.0,0.0,0.0,0.0,0.0,0.0,0.0,0.0,0.0,0.0,0.0,0.0,0.0,0.0,0.0,0.0,0.0,0.0,0.0,0.0,0.0,0.0,0.0,0.0,0.0,0.0,0.0,0.0,0.0,0.0,0.0,0.0,0.0,0.0,0.0,0.0,0.0,0.0,0.0,0.0,0.0,0.0,0.0,0.0,0.0,0.0,0.0,0.0,0.0,0.0,0.0,0.0,0.0,0.0,0.0,0.0,0.0,0.0,0.0,0.0,0.0,0.0,0.0,0.0,0.0,0.0,0.0,0.0,0.0,0.0,0.0,0.0,0.0,0.0,0.0,0.0,0.0,0.0,0.0,0.0,0.0,0.0,0.0,0.0,0.0,0.0,0.0,0.0,0.0,0.0,0.0,0.0,0.0,0.0,0.0,0.0,0.0,0.0,0.0,0.0,0.0,0.0,0.0,0.0,0.0,0.0,0.0,0.0,0.0,0.0,0.0,0.0,0.0,0.0,0.0,0.0,0.0,0.0,0.0,0.0,0.0,0.0,0.0,0.0,0.0,0.0,0.0,0.0,0.0,0.0,0.0,0.0,0.0,0.0,0.0,0.0,0.0,0.0,0.0,0.0,0.0,0.0,0.0,0.0,0.0,0.0,0.0,0.0,0.0,0.0,0.0,0.0,0.0,0.0,0.0,0.0,0.0,0.0,0.0,0.0,0.0,0.0,0.0,0.0,0.0,0.0,0.0,0.0,0.0,0.0,0.0,0.0,0.0,0.0,0.0,0.0,0.0,0.0,0.0,0.0,0.0,0.0,0.0,0.0,0.0,0.0,0.0,0.0,0.0,0.0,0.0,0.0,0.0,0.0,0.0,0.0,0.0,0.0,0.0,0.0,0.0,0.0,0.0,0.0,0.0,0.0,0.0,0.0,0.0,0.0,0.0,0.0,0.0,0.0,0.0,0.0,0.0,0.0,0.0,0.0,0.0,0.0,0.0,0.0,0.0,0.0,0.0,0.0,0.0,0.0,0.0,0.0,0.0,0.0,0.0,0.0,0.0,0.0,0.0,0.0,0.0,0.0,0.0,0.0,0.0,0.0,0.0,0.0,0.0,0.0,0.0,0.0,0.0,0.0,0.0,0.0,0.0,0.0,0.0,0.0,0.0,0.0,0.0,0.0,0.0,0.0,0.0,0.0,0.0,0.0,0.0,0.0,0.0,0.0,0.0,0.0,0.0,0.0,0.0,0.0,0.0,0.0,0.0,0.0,0.0,0.0,0.0,0.0,0.0,0.0,0.0,0.0,0.0,0.0,0.0,0.0,0.0,0.0,0.0,0.0,0.0,0.0,0.0,0.0,0.0,0.0,0.0,0.0,0.0,0.0,0.0,0.0,0.0,0.0,0.0,0.0,0.0,0.0,0.0,0.0,0.0,0.0,0.0,0.0,0.0,0.0,0.0,0.0,0.0,0.0,0.0,0.0,0.0,0.0,0.0,0.0,0.0,0.0,0.0,0.0,0.0,0.0,0.0,0.0,0.0,0.0,0.0,0.0,0.0,0.0,0.0,0.0,0.0,0.0,0.0,0.0,0.0,0.0,0.0,0.0,0.0,0.0,0.0,0.0,0.0,0.0,0.0,0.0,0.0,0.0,0.0,0.0,0.0,0.0,0.0,0.0,0.0,0.0,0.0,0.0,0.0,0.0,0.0,0.0,0.0,0.0,0.0,0.0,0.0,0.0,0.0,0.0,0.0,0.0,0.0,0.0,0.0,0.0,0.0,0.0,0.0,0.0,0.0,0.0,0.0,0.0,0.0,0.0,0.0,0.0,0.0,0.0,0.0,0.0,0.0,0.0,0.0,0.0,0.0,0.0,0.0,0.0,0.0,0.0,0.0,0.0,0.0,0.0,0.0,0.0,0.0,0.0,0.0,0.0,0.0,0.0,0.0,0.0,0.0,0.0,0.0,0.0,0.0,0.0,0.0,0.0,0.0,0.0,0.0,0.0,0.0,0.0,0.0,0.0,0.0,0.0,0.0,0.0,0.0,0.0,0.0,0.0,0.0,0.0,0.0,0.0,0.0,0.0,0.0,0.0,0.0,0.0,0.0,0.0,0.0,0.0,0.0,0.0,0.0,0.0,0.0,0.0,0.0,0.0,0.0,0.0,0.0,0.0,0.0,0.0,0.0,0.0,0.0,0.0,0.0,0.0,0.0,0.0,0.0,0.0,0.0,0.0,0.0,0.0,0.0,0.0,0.0,0.0,0.0,0.0,0.0,0.0,0.0,0.0,0.0,0.0,0.0,0.0,0.0,0.0,0.0,0.0,0.0,0.0,0.0,0.0,0.0,0.0,0.0,0.0,0.0,0.0,0.0,0.0,0.0,0.0,0.0,0.0,0.0,0.0,0.0,0.0,0.0,0.0,0.0,0.0,0.0,0.0,0.0,0.0,0.0,0.0,0.0,0.0,0.0,0.0,0.0,0.0,0.0,0.0,0.0,0.0,0.0,0.0,0.0,0.0,0.0,0.0,0.0,0.0,0.0,0.0,0.0,0.0,0.0,0.0,0.0,0.0,0.0,0.0,0.0,0.0,0.0,0.0,0.0,0.0,0.0,0.0,0.0,0.0,0.0,0.0,0.0,0.0,0.0,0.0,0.0,0.0,0.0,0.0,0.0,0.0,0.0,0.0,0.0,0.0,0.0,0.0,0.0,0.0,0.0,0.0,0.0,0.0,0.0,0.0,0.0,0.0,0.0,0.0,0.0,0.0,0.0,0.0,0.0,0.0,0.0,0.0,0.0,0.0,0.0,0.0,0.0,0.0,0.0,0.0,0.0,0.0,0.0,0.0,0.0,0.0,0.0,0.0,0.0,0.0,0.0,0.0,0.0,0.0,0.0,0.0,0.0,0.0,0.0,0.0,0.0,0.0,0.0,0.0,0.0,0.0,0.0,0.0,0.0,0.0,0.0,0.0,0.0,0.0,0.0,0.0,0.0,0.0,0.0,0.0,0.0,0.0,0.0,0.0,0.0,0.0,0.0,0.0,0.0,0.0,0.0,0.0,0.0,0.0,0.0,0.0,0.0,0.0,0.0,0.0,0.0,0.0,0.0,0.0,0.0,0.0,0.0,0.0,0.0,0.0,0.0,0.0,0.0,0.0,0.0,0.0,0.0,0.0,0.0,0.0,0.0,0.0,0.0,0.0,0.0,0.0,0.0,0.0,0.0,0.0,0.0,0.0,0.0,0.0,0.0,0.0,0.0,0.0,0.0,0.0,0.0,0.0,0.0,0.0,0.0,0.0,0.0,0.0,0.0,0.0,0.0,0.0,0.0,0.0,0.0,0.0,0.0,0.0,0.0,0.0,0.0,0.0,0.0,0.0,0.0,0.0,0.0,0.0,-2.4783,0.0,0.0,0.0,0.0,0.0,0.0,0.0,0.0,0.0,0.0,0.0,0.0,0.0,0.0,0.0,0.0,0.0,0.0,0.0,0.0,0.0,0.0,0.0,0.0,0.0,0.0,0.0,0.0,0.0,0.0,0.0,0.0,0.0,0.0,0.0,0.0,0.0,0.0,0.0,0.0,0.0,0.0,0.0,0.0,0.0,0.0,0.0,0.0,0.0,0.0,0.0,0.0,0.0,0.0,0.0,0.0,0.0,0.0,0.0,0.0,0.0,0.0,0.0,0.0,0.0,0.0,0.0,0.0,0.0,0.0,0.0,0.0,0.0,0.0,0.0,0.0,0.0,0.0,0.0,0.0,0.0,0.0,0.0,0.0,0.0,0.0,0.0,0.0,0.0,0.0,0.0,0.0,0.0,0.0,0.0,0.0,0.0,0.0,0.0,0.0,0.0,0.0,0.0,0.0,0.0,0.0,0.0,0.0,0.0,0.0,-2.5341,-2.5198,-2.5056,-2.4922,-2.4761,0.0,0.0,0.0,0.0,0.0,0.0,0.0,0.0,0.0,0.0,0.0,0.0,0.0,0.0,0.0,0.0,0.0,0.0,0.0,0.0,0.0,0.0,0.0,0.0,0.0,0.0,0.0,0.0,0.0,0.0,0.0,0.0,0.0,0.0,0.0,0.0,0.0,0.0,0.0,0.0,0.0,0.0,0.0,0.0,0.0,0.0,0.0,0.0,0.0,0.0,0.0,0.0,0.0,0.0,0.0,0.0,0.0,0.0,0.0,0.0,0.0,0.0,0.0,0.0,0.0,0.0,0.0,0.0,0.0,0.0,0.0,0.0,0.0,0.0,0.0,0.0,0.0,0.0,0.0,0.0,0.0,0.0,0.0,0.0,0.0,0.0,0.0,0.0,0.0,0.0,0.0,0.0,0.0,0.0,0.0,0.0,0.0,0.0,0.0,0.0,0.0,0.0,0.0,0.0,0.0,0.0,0.0,0.0,0.0,0.0,0.0,0.0,-2.5136,-2.4961,-2.4692,0.0,0.0,0.0,0.0,0.0,0.0,0.0,0.0,0.0,0.0,0.0,0.0,0.0,0.0,0.0,0.0,0.0,0.0,0.0,0.0,0.0,0.0,0.0,0.0,0.0,0.0,0.0,0.0,0.0,0.0,0.0,0.0,0.0,0.0,0.0,0.0,0.0,0.0,0.0,0.0,0.0,0.0,0.0,0.0,0.0,0.0,0.0,0.0,0.0,0.0,0.0,0.0,0.0,0.0,0.0,0.0,0.0,0.0,0.0,0.0,0.0,0.0,0.0,0.0,0.0,0.0,0.0,0.0,0.0,0.0,0.0,0.0,0.0,0.0,0.0,0.0,0.0,0.0,0.0,0.0,0.0,0.0,0.0,0.0,0.0,0.0,0.0,0.0,0.0,0.0,0.0,0.0,0.0,0.0,0.0,0.0,0.0,0.0,0.0,0.0,0.0,0.0,0.0,0.0,0.0,0.0,0.0,0.0,0.0,0.0,-2.5406,-2.5212,-2.5132,0.0,-2.4647,0.0,0.0,0.0,0.0,0.0,0.0,0.0,0.0,0.0,0.0,0.0,0.0,0.0,0.0,0.0,0.0,0.0,0.0,0.0,0.0,0.0,0.0,0.0,0.0,0.0,0.0,0.0,0.0,0.0,0.0,0.0,0.0,0.0,0.0,0.0,0.0,0.0,0.0,0.0,0.0,0.0,0.0,0.0,0.0,0.0,0.0,0.0,0.0,0.0,0.0,0.0,0.0,0.0,0.0,0.0,0.0,0.0,0.0,0.0,0.0,0.0,0.0,0.0,0.0,0.0,0.0,0.0,0.0,0.0,0.0,0.0,0.0,0.0,0.0,0.0,0.0,0.0,0.0,0.0,0.0,0.0,0.0,0.0,0.0,0.0,0.0,0.0,0.0,0.0,0.0,0.0,0.0,0.0,0.0,0.0,0.0,0.0,0.0,0.0,0.0,0.0,0.0,0.0,0.0,0.0,0.0,0.0,0.0,0.0,0.0,-2.5308,-2.5153,-2.4987,-2.4847,0.0,0.0,0.0,0.0,0.0,0.0,0.0,0.0,0.0,0.0,0.0,0.0,0.0,0.0,0.0,0.0,0.0,0.0,0.0,0.0,0.0,0.0,0.0,0.0,0.0,0.0,0.0,0.0,0.0,0.0,0.0,0.0,0.0,0.0,0.0,0.0,0.0,0.0,0.0,0.0,0.0,0.0,0.0,0.0,0.0,0.0,0.0,0.0,0.0,0.0,0.0,0.0,0.0,0.0,0.0,0.0,0.0,0.0,0.0,0.0,0.0,0.0,0.0,0.0,0.0,0.0,0.0,0.0,0.0,0.0,0.0,0.0,0.0,0.0,0.0,0.0,0.0,0.0,0.0,0.0,0.0,0.0,0.0,0.0,0.0,0.0,0.0,0.0,0.0,0.0,0.0,0.0,0.0,0.0,0.0,0.0,0.0,0.0,0.0,0.0,0.0,0.0,0.0,0.0,0.0,0.0,0.0,0.0,0.0,0.0,-2.5311,-2.5239,-2.5113,-2.494,-2.4842,-2.4813,0.0,0.0,0.0,0.0,0.0,0.0,0.0,0.0,0.0,0.0,0.0,0.0,0.0,0.0,0.0,0.0,0.0,0.0,0.0,0.0,0.0,0.0,0.0,0.0,0.0,0.0,0.0,0.0,0.0,0.0,0.0,0.0,0.0,0.0,0.0,0.0,0.0,0.0,0.0,0.0,0.0,0.0,0.0,0.0,0.0,0.0,0.0,0.0,0.0,0.0,0.0,0.0,0.0,0.0,0.0,0.0,0.0,0.0,0.0,0.0,0.0,0.0,0.0,0.0,0.0,0.0,0.0,0.0,0.0,0.0,0.0,0.0,0.0,0.0,0.0,0.0,0.0,0.0,0.0,0.0,0.0,0.0,0.0,0.0,0.0,0.0,0.0,0.0,0.0,0.0,0.0,0.0,0.0,0.0,0.0,0.0,0.0,0.0,0.0,0.0,0.0,0.0,0.0,0.0,0.0,0.0,0.0,0.0,-2.548,-2.5367,-2.5239,-2.5094,-2.5031,-2.4917,0.0,0.0,0.0,0.0,0.0,0.0,0.0,0.0,0.0,0.0,0.0,0.0,0.0,0.0,0.0,0.0,0.0,0.0,0.0,0.0,0.0,0.0,0.0,0.0,0.0,0.0,0.0,0.0,0.0,0.0,0.0,0.0,0.0,0.0,0.0,0.0,0.0,0.0,0.0,0.0,0.0,0.0,0.0,0.0,0.0,0.0,0.0,0.0,0.0,0.0,0.0,0.0,0.0,0.0,0.0,0.0,0.0,0.0,0.0,0.0,0.0,0.0,0.0,0.0,0.0,0.0,0.0,0.0,0.0,0.0,0.0,0.0,0.0,0.0,0.0,0.0,0.0,0.0,0.0,0.0,0.0,0.0,0.0,0.0,0.0,0.0,0.0,0.0,0.0,0.0,0.0,0.0,0.0,0.0,0.0,0.0,0.0,0.0,0.0,0.0,0.0,0.0,0.0,0.0,0.0,0.0,0.0,0.0,0.0,-2.5322,-2.5217,-2.5164,-2.5088,-2.5076,-2.5044,0.0,0.0,0.0,0.0,0.0,0.0,0.0,0.0,0.0,0.0,0.0,0.0,0.0,0.0,0.0,0.0,0.0,0.0,0.0,0.0,0.0,0.0,0.0,0.0,0.0,0.0,0.0,0.0,0.0,0.0,0.0,0.0,0.0,0.0,0.0,0.0,0.0,0.0,0.0,0.0,0.0,0.0,0.0,0.0,0.0,0.0,0.0,0.0,0.0,0.0,0.0,0.0,0.0,0.0,0.0,0.0,0.0,0.0,0.0,0.0,0.0,0.0,0.0,0.0,0.0,0.0,0.0,0.0,0.0,0.0,0.0,0.0,0.0,0.0,0.0,0.0,0.0,0.0,0.0,0.0,0.0,0.0,0.0,0.0,0.0,0.0,0.0,0.0,0.0,0.0,0.0,0.0,0.0,0.0,0.0,0.0,0.0,0.0,0.0,0.0,0.0,0.0,0.0,0.0,0.0,0.0,0.0,0.0,0.0,-2.5239,0.0,-2.5145,0.0,-2.5136,-2.5118,0.0,0.0,0.0,0.0,0.0,0.0,0.0,0.0,0.0,0.0,0.0,0.0,0.0,0.0,0.0,0.0,0.0,0.0,0.0,0.0,0.0,0.0,0.0,0.0,0.0,0.0,0.0,0.0,0.0,0.0,0.0,0.0,0.0,0.0,0.0,0.0,0.0,0.0,0.0,0.0,0.0,0.0,0.0,0.0,0.0,0.0,0.0,0.0,0.0,0.0,0.0,0.0,0.0,0.0,0.0,0.0,0.0,0.0,0.0,0.0,0.0,0.0,0.0,0.0,0.0,0.0,0.0,0.0,0.0,0.0,0.0,0.0,0.0,0.0,0.0,0.0,0.0,0.0,0.0,0.0,0.0,0.0,0.0,0.0,0.0,0.0,0.0,0.0,0.0,0.0,0.0,0.0,0.0,0.0,0.0,0.0,0.0,0.0,0.0,0.0,0.0,0.0,0.0,0.0,0.0,0.0,0.0,0.0,-2.544,-2.5317,-2.5293,-2.525,-2.5217,-2.5192,-2.5174,0.0,0.0,0.0,0.0,0.0,0.0,0.0,0.0,0.0,0.0,0.0,0.0,0.0,0.0,0.0,0.0,0.0,0.0,0.0,0.0,0.0,0.0,0.0,0.0,0.0,0.0,0.0,0.0,0.0,0.0,0.0,0.0,0.0,0.0,0.0,0.0,0.0,0.0,0.0,0.0,0.0,0.0,0.0,0.0,0.0,0.0,0.0,0.0,0.0,0.0,0.0,0.0,0.0,0.0,0.0,0.0,0.0,0.0,0.0,0.0,0.0,0.0,0.0,0.0,0.0,0.0,0.0,0.0,0.0,0.0,0.0,0.0,0.0,0.0,0.0,0.0,0.0,0.0,0.0,0.0,0.0,0.0,0.0,0.0,0.0,0.0,0.0,0.0,0.0,0.0,0.0,0.0,0.0,0.0,0.0,0.0,0.0,0.0,0.0,0.0,0.0,0.0,0.0,0.0,0.0,0.0,0.0,0.0,0.0,-2.5297,-2.5297,-2.5303,-2.5265,-2.5265,-2.5269,0.0,0.0,0.0,0.0,0.0,0.0,0.0,0.0,0.0,0.0,0.0,0.0,0.0,0.0,0.0,0.0,0.0,0.0,0.0,0.0,0.0,0.0,0.0,0.0,0.0,0.0,0.0,0.0,0.0,0.0,0.0,0.0,0.0,0.0,0.0,0.0,0.0,0.0,0.0,0.0,0.0,0.0,0.0,0.0,0.0,0.0,0.0,0.0,0.0,0.0,0.0,0.0,0.0,0.0,0.0,0.0,0.0,0.0,0.0,0.0,0.0,0.0,0.0,0.0,0.0,0.0,0.0,0.0,0.0,0.0,0.0,0.0,0.0,0.0,0.0,0.0,0.0,0.0,0.0,0.0,0.0,0.0,0.0,0.0,0.0,0.0,0.0,0.0,0.0,0.0,0.0,0.0,0.0,0.0,0.0,0.0,0.0,0.0,0.0,0.0,0.0,0.0,0.0,0.0,0.0,0.0,0.0,0.0,0.0,-2.5376,-2.5372,-2.5372,-2.5357,-2.5372,-2.5363,-2.5297,0.0,0.0,0.0,0.0,0.0,0.0,0.0,0.0,0.0,0.0,0.0,0.0,0.0,0.0,0.0,0.0,0.0,0.0,0.0,0.0,0.0,0.0,0.0,0.0,0.0,0.0,0.0,0.0,0.0,0.0,0.0,0.0,0.0,0.0,0.0,0.0,0.0,0.0,0.0,0.0,0.0,0.0,0.0,0.0,0.0,0.0,0.0,0.0,0.0,0.0,0.0,0.0,0.0,0.0,0.0,0.0,0.0,0.0,0.0,0.0,0.0,0.0,0.0,0.0,0.0,0.0,0.0,0.0,0.0,0.0,0.0,0.0,0.0,0.0,0.0,0.0,0.0,0.0,0.0,0.0,0.0,0.0,0.0,0.0,0.0,0.0,0.0,0.0,0.0,0.0,0.0,0.0,0.0,0.0,0.0,0.0,0.0,0.0,0.0,0.0,0.0,0.0,0.0,0.0,0.0,0.0,0.0,0.0,-2.5507,-2.5507,-2.5507,-2.5507,-2.548,-2.5417,0.0,0.0,0.0,0.0,0.0,0.0,0.0,0.0,0.0,0.0,0.0,0.0,0.0,0.0,0.0,0.0,0.0,0.0,0.0,0.0,0.0,0.0,0.0,0.0,0.0,0.0,0.0,0.0,0.0,0.0,0.0,0.0,0.0,0.0,0.0,0.0,0.0,0.0,0.0,0.0,0.0,0.0,0.0,0.0,0.0,0.0,0.0,0.0,0.0,0.0,0.0,0.0,0.0,0.0,0.0,0.0,0.0,0.0,0.0,0.0,0.0,0.0,0.0,0.0,0.0,0.0,0.0,0.0,0.0,0.0,0.0,0.0,0.0,0.0,0.0,0.0,0.0,0.0,0.0,0.0,0.0,0.0,0.0,0.0,0.0,0.0,0.0,0.0,0.0,0.0,0.0,0.0,0.0,0.0,0.0,0.0,0.0,0.0,0.0,0.0,0.0,0.0,0.0,0.0,0.0,0.0,0.0,0.0,0.0,-2.5507,-2.5507,-2.5507,-2.5507,-2.5369,-2.5293,0.0,0.0,0.0,0.0,0.0,0.0,0.0,0.0,0.0,0.0,0.0,0.0,0.0,0.0,0.0,0.0,0.0,0.0,0.0,0.0,0.0,0.0,0.0,0.0,0.0,0.0,0.0,0.0,0.0,0.0,0.0,0.0,0.0,0.0,0.0,0.0,0.0,0.0,0.0,0.0,0.0,0.0,0.0,0.0,0.0,0.0,0.0,0.0,0.0,0.0,0.0,0.0,0.0,0.0,0.0,0.0,0.0,0.0,0.0,0.0,0.0,0.0,0.0,0.0,0.0,0.0,0.0,0.0,0.0,0.0,0.0,0.0,0.0,0.0,0.0,0.0,0.0,0.0,0.0,0.0,0.0,0.0,0.0,0.0,0.0,0.0,0.0,0.0,0.0,0.0,0.0,0.0,0.0,0.0,0.0,0.0,0.0,0.0,0.0,0.0,0.0,0.0,0.0,0.0,0.0,0.0,0.0,0.0,-2.5507,-2.5507,-2.5507,-2.5507,-2.5507,-2.5387,-2.5312,0.0,0.0,0.0,0.0,0.0,0.0,0.0,0.0,0.0,0.0,0.0,0.0,0.0,0.0,0.0,0.0,0.0,0.0,0.0,0.0,0.0,0.0,0.0,0.0,0.0,0.0,0.0,0.0,0.0,0.0,0.0,0.0,0.0,0.0,0.0,0.0,0.0,0.0,0.0,0.0,0.0,0.0,0.0,0.0,0.0,0.0,0.0,0.0,0.0,0.0,0.0,0.0,0.0,0.0,0.0,0.0,0.0,0.0,0.0,0.0,0.0,0.0,0.0,0.0,0.0,0.0,0.0,0.0,0.0,0.0,0.0,0.0,0.0,0.0,0.0,0.0,0.0,0.0,0.0,0.0,0.0,0.0,0.0,0.0,0.0,0.0,0.0,0.0,0.0,0.0,0.0,0.0,0.0,0.0,0.0,0.0,0.0,0.0,0.0,0.0,0.0,0.0,0.0,0.0,0.0,0.0,0.0,0.0,-2.5623,-2.5642,-2.57,-2.5762,-2.5739,-2.5576,-2.5404,0.0,0.0,0.0,0.0,0.0,0.0,0.0,0.0,0.0,0.0,0.0,0.0,0.0,0.0,0.0,0.0,0.0,0.0,0.0,0.0,0.0,0.0,0.0,0.0,0.0,0.0,0.0,0.0,0.0,0.0,0.0,0.0,0.0,0.0,0.0,0.0,0.0,0.0,0.0,0.0,0.0,0.0,0.0,0.0,0.0,0.0,0.0,0.0,0.0,0.0,0.0,0.0,0.0,0.0,0.0,0.0,0.0,0.0,0.0,0.0,0.0,0.0,0.0,0.0,0.0,0.0,0.0,0.0,0.0,0.0,0.0,0.0,0.0,0.0,0.0,0.0,0.0,0.0,0.0,0.0,0.0,0.0,0.0,0.0,0.0,0.0,0.0,0.0,0.0,0.0,0.0,0.0,0.0,0.0,0.0,0.0,0.0,0.0,0.0,0.0,0.0,0.0,0.0,0.0,0.0,0.0,0.0,0.0,-2.6455,-2.6455,-2.7116,-2.7469,-2.7449,-2.6044,-2.522,0.0,0.0,0.0,0.0,0.0,0.0,0.0,0.0,0.0,0.0,0.0,0.0,0.0,0.0,0.0,0.0,0.0,0.0,0.0,0.0,0.0,0.0,0.0,0.0,0.0,0.0,0.0,0.0,0.0,0.0,0.0,0.0,0.0,0.0,0.0,0.0,0.0,0.0,0.0,0.0,0.0,0.0,0.0,0.0,0.0,0.0,0.0,0.0,-2.5577,0.0,0.0,0.0,0.0,0.0,0.0,0.0,0.0,0.0,0.0,0.0,0.0,0.0,0.0,0.0,0.0,0.0,0.0,0.0,0.0,0.0,0.0,0.0,0.0,0.0,0.0,0.0,0.0,0.0,0.0,0.0,0.0,0.0,0.0,0.0,0.0,0.0,0.0,0.0,0.0,0.0,0.0,0.0,0.0,0.0,0.0,0.0,0.0,0.0,0.0,0.0,0.0,0.0,0.0,0.0,0.0,0.0,0.0,0.0,-2.731,-2.7329,-2.7759,-2.7991,-2.7967,-2.7025,-2.6463,0.0,0.0,0.0,0.0,0.0,0.0,0.0,0.0,0.0,0.0,0.0,0.0,0.0,0.0,0.0,0.0,0.0,0.0,0.0,0.0,0.0,0.0,0.0,0.0,0.0,0.0,0.0,0.0,0.0,0.0,0.0,0.0,0.0,0.0,0.0,0.0,0.0,0.0,0.0,0.0,0.0,0.0,0.0,0.0,0.0,0.0,0.0,0.0,0.0,0.0,0.0,0.0,0.0,0.0,0.0,0.0,0.0,0.0,0.0,0.0,0.0,0.0,0.0,0.0,0.0,0.0,0.0,0.0,0.0,0.0,0.0,0.0,0.0,0.0,0.0,0.0,0.0,0.0,0.0,0.0,0.0,0.0,0.0,0.0,0.0,0.0,0.0,0.0,0.0,0.0,0.0,0.0,0.0,0.0,0.0,0.0,0.0,0.0,0.0,0.0,0.0,0.0,0.0,0.0,0.0,0.0,0.0,-2.8122,-2.8184,-2.8204,-2.832,-2.8397,-2.8397,-2.8262,-2.8202,-2.8181,0.0,0.0,0.0,0.0,0.0,0.0,0.0,0.0,0.0,0.0,0.0,0.0,0.0,0.0,0.0,0.0,0.0,0.0,0.0,0.0,0.0,0.0,0.0,0.0,0.0,0.0,0.0,0.0,0.0,0.0,0.0,0.0,0.0,0.0,0.0,0.0,0.0,0.0,-2.4509,-2.5178,0.0,0.0,0.0,0.0,0.0,0.0,0.0,0.0,-2.5505,0.0,0.0,0.0,0.0,0.0,0.0,0.0,0.0,0.0,0.0,0.0,0.0,0.0,0.0,0.0,0.0,0.0,0.0,0.0,0.0,0.0,0.0,0.0,0.0,0.0,0.0,0.0,0.0,0.0,0.0,0.0,0.0,0.0,0.0,0.0,0.0,0.0,0.0,0.0,0.0,0.0,0.0,0.0,0.0,0.0,0.0,0.0,0.0,0.0,0.0,0.0,0.0,0.0,0.0,0.0,0.0,-2.8014,-2.8713,-2.9074,-2.9089,-2.9805,-3.0172,-3.0172,-2.9457,-2.9395,-2.9924,0.0,0.0,0.0,0.0,0.0,0.0,0.0,0.0,0.0,0.0,0.0,0.0,0.0,0.0,0.0,0.0,0.0,0.0,0.0,0.0,0.0,0.0,0.0,0.0,0.0,0.0,0.0,0.0,0.0,0.0,0.0,0.0,0.0,0.0,0.0,0.0,0.0,0.0,0.0,-2.5563,-2.5609,0.0,0.0,0.0,0.0,0.0,0.0,0.0,0.0,-2.5515,0.0,0.0,0.0,0.0,0.0,0.0,0.0,0.0,0.0,0.0,0.0,0.0,0.0,0.0,0.0,0.0,0.0,0.0,0.0,0.0,0.0,0.0,0.0,0.0,0.0,0.0,0.0,0.0,0.0,0.0,0.0,0.0,0.0,0.0,0.0,0.0,0.0,0.0,0.0,0.0,0.0,0.0,0.0,0.0,0.0,0.0,0.0,0.0,0.0,0.0,0.0,0.0,0.0,0.0,0.0,-2.9279,-2.9752,-2.9979,-2.9998,-3.0385,-3.0617,-3.0598,-3.0192,-3.0149,0.0,0.0,0.0,0.0,0.0,0.0,0.0,0.0,0.0,0.0,0.0,0.0,0.0,0.0,0.0,0.0,0.0,0.0,0.0,0.0,0.0,0.0,0.0,0.0,0.0,0.0,0.0,0.0,0.0,0.0,0.0,0.0,0.0,0.0,0.0,0.0,0.0,0.0,0.0,0.0,-2.5673,-2.563,-2.5614,0.0,0.0,0.0,0.0,0.0,0.0,-2.5578,-2.5569,0.0,0.0,0.0,0.0,0.0,0.0,0.0,0.0,0.0,0.0,0.0,0.0,0.0,0.0,0.0,0.0,0.0,0.0,0.0,0.0,0.0,0.0,0.0,0.0,0.0,0.0,0.0,0.0,0.0,0.0,0.0,0.0,0.0,0.0,0.0,0.0,0.0,0.0,0.0,0.0,0.0,0.0,0.0,0.0,0.0,0.0,0.0,0.0,0.0,0.0,0.0,0.0,0.0,0.0,0.0,-3.0491,-3.0579,-3.0617,-3.0617,-3.0617,-3.0617,-3.0617,-3.0617,-3.0574,0.0,0.0,0.0,0.0,0.0,0.0,0.0,0.0,0.0,0.0,0.0,0.0,0.0,0.0,0.0,0.0,0.0,0.0,0.0,0.0,0.0,0.0,0.0,0.0,0.0,0.0,0.0,0.0,0.0,0.0,0.0,0.0,0.0,0.0,0.0,0.0,0.0,0.0,0.0,0.0,0.0,-2.5686,-2.5632,-2.562,0.0,0.0,0.0,0.0,-2.5627,-2.5609,0.0,0.0,0.0,0.0,0.0,0.0,0.0,0.0,0.0,0.0,0.0,0.0,0.0,0.0,0.0,0.0,0.0,0.0,0.0,0.0,0.0,0.0,0.0,0.0,0.0,0.0,0.0,0.0,0.0,0.0,0.0,0.0,0.0,0.0,0.0,0.0,0.0,0.0,0.0,0.0,0.0,0.0,0.0,0.0,0.0,0.0,0.0,0.0,0.0,0.0,0.0,0.0,0.0,0.0,0.0,0.0,-3.0509,-3.0574,-3.0617,-3.0617,-3.0617,-3.0617,-3.0617,-3.0617,-3.0574,0.0,0.0,0.0,0.0,0.0,0.0,0.0,0.0,0.0,0.0,0.0,0.0,0.0,0.0,0.0,0.0,0.0,0.0,0.0,0.0,0.0,0.0,0.0,0.0,0.0,0.0,0.0,0.0,0.0,0.0,0.0,0.0,0.0,0.0,0.0,0.0,0.0,0.0,0.0,0.0,0.0,-2.5699,-2.5699,-2.5698,-2.5697,0.0,0.0,-2.5699,-2.5703,-2.5643,0.0,0.0,0.0,0.0,0.0,0.0,0.0,0.0,0.0,0.0,0.0,0.0,0.0,0.0,0.0,0.0,0.0,0.0,0.0,0.0,0.0,0.0,0.0,0.0,0.0,0.0,0.0,0.0,0.0,0.0,0.0,0.0,0.0,0.0,0.0,0.0,0.0,0.0,0.0,0.0,0.0,0.0,0.0,0.0,0.0,0.0,0.0,0.0,0.0,0.0,0.0,0.0,0.0,0.0,0.0,-3.0485,-3.0504,-3.0574,-3.0617,-3.0617,-3.0617,-3.0617,-3.0617,-3.0617,-3.0574,0.0,0.0,0.0,0.0,0.0,0.0,0.0,0.0,0.0,0.0,0.0,0.0,0.0,0.0,0.0,0.0,0.0,0.0,0.0,0.0,0.0,0.0,0.0,0.0,0.0,0.0,0.0,0.0,0.0,0.0,0.0,0.0,0.0,0.0,0.0,0.0,0.0,0.0,0.0,0.0,0.0,0.0,-2.5703,-2.5703,0.0,0.0,0.0,-2.5703,-2.5703,0.0,0.0,0.0,0.0,0.0,0.0,0.0,0.0,0.0,0.0,0.0,0.0,0.0,0.0,0.0,0.0,0.0,0.0,0.0,0.0,0.0,0.0,0.0,0.0,0.0,0.0,0.0,0.0,0.0,0.0,0.0,0.0,0.0,0.0,0.0,0.0,0.0,0.0,0.0,0.0,0.0,0.0,0.0,0.0,0.0,0.0,0.0,0.0,0.0,0.0,0.0,0.0,0.0,0.0,0.0,0.0,0.0,-3.052,-3.0583,-3.0612,-3.0615,-3.0615,-3.0601,-3.0617,-3.0601,0.0,0.0,0.0,0.0,0.0,0.0,0.0,0.0,0.0,0.0,0.0,0.0,0.0,0.0,0.0,0.0,0.0,0.0,0.0,0.0,0.0,0.0,0.0,0.0,0.0,0.0,0.0,-2.5543,0.0,0.0,0.0,0.0,0.0,0.0,0.0,0.0,0.0,0.0,0.0,0.0,0.0,0.0,-2.5703,-2.5702,-2.5701,-2.5701,0.0,0.0,-2.5703,-2.5703,-2.5703,-2.5702,0.0,0.0,0.0,0.0,0.0,0.0,0.0,0.0,0.0,0.0,0.0,0.0,0.0,0.0,0.0,0.0,0.0,0.0,0.0,0.0,0.0,0.0,0.0,0.0,0.0,0.0,0.0,0.0,0.0,0.0,0.0,0.0,0.0,0.0,0.0,0.0,0.0,0.0,0.0,0.0,0.0,0.0,0.0,0.0,0.0,0.0,0.0,0.0,0.0,0.0,0.0,0.0,0.0,0.0,0.0,-3.0593,-3.0616,-3.0628,-3.0625,-3.0605,-3.0607,-3.0602,-3.0622,-3.0591,0.0,0.0,0.0,0.0,0.0,0.0,0.0,0.0,0.0,0.0,0.0,0.0,0.0,0.0,0.0,0.0,0.0,0.0,0.0,0.0,0.0,0.0,0.0,0.0,0.0,0.0,0.0,0.0,0.0,0.0,0.0,0.0,0.0,0.0,0.0,0.0,0.0,0.0,0.0,0.0,0.0,-2.5696,-2.5695,-2.5694,-2.5693,0.0,0.0,-2.5701,-2.5692,-2.571,-2.5689,-2.569,0.0,0.0,0.0,0.0,0.0,0.0,0.0,0.0,0.0,0.0,0.0,0.0,0.0,0.0,0.0,0.0,0.0,0.0,0.0,0.0,0.0,0.0,0.0,0.0,0.0,0.0,0.0,0.0,0.0,0.0,0.0,0.0,0.0,0.0,0.0,0.0,0.0,0.0,0.0,0.0,0.0,0.0,0.0,0.0,0.0,0.0,0.0,0.0,0.0,0.0,0.0,0.0,0.0,-3.1079,-3.2107,-3.1688,-3.1731,-3.2244,-3.2247,-3.2255,-3.225,-3.2227,-3.1934,0.0,0.0,0.0,0.0,0.0,0.0,0.0,0.0,0.0,0.0,0.0,0.0,0.0,0.0,0.0,0.0,0.0,0.0,0.0,0.0,0.0,0.0,0.0,0.0,0.0,0.0,0.0,0.0,-2.5675,-2.5658,-2.57,0.0,0.0,0.0,0.0,0.0,0.0,0.0,0.0,0.0,0.0,-2.5627,-2.5627,-2.5636,0.0,0.0,-2.5659,-2.5705,-2.5698,-2.6153,-2.6489,-2.6489,-2.6493,0.0,0.0,0.0,0.0,0.0,0.0,0.0,0.0,0.0,0.0,0.0,0.0,0.0,0.0,0.0,0.0,0.0,0.0,0.0,0.0,0.0,0.0,0.0,0.0,0.0,0.0,0.0,0.0,0.0,0.0,0.0,0.0,0.0,0.0,0.0,0.0,0.0,0.0,0.0,0.0,0.0,0.0,0.0,0.0,0.0,0.0,0.0,0.0,0.0,0.0,0.0,0.0,-3.1921,-3.3099,-3.2647,-3.2693,-3.3329,-3.3329,-3.3325,-3.3295,-3.3265,-3.2944,0.0,0.0,0.0,0.0,0.0,0.0,0.0,0.0,0.0,0.0,0.0,0.0,0.0,0.0,0.0,0.0,0.0,0.0,0.0,0.0,0.0,0.0,0.0,0.0,0.0,0.0,0.0,0.0,-2.5703,-2.5703,-2.5703,0.0,0.0,0.0,0.0,0.0,0.0,0.0,0.0,0.0,0.0,-2.5579,-2.5541,-2.5794,-2.5972,-2.5987,-2.6265,-2.6477,-2.6476,-2.6962,-2.7332,-2.7332,0.0,0.0,0.0,0.0,0.0,0.0,0.0,0.0,0.0,0.0,0.0,0.0,0.0,0.0,0.0,0.0,0.0,0.0,0.0,0.0,0.0,0.0,0.0,0.0,0.0,0.0,0.0,0.0,0.0,0.0,-2.521,0.0,0.0,0.0,0.0,0.0,0.0,0.0,0.0,0.0,0.0,0.0,0.0,0.0,0.0,0.0,0.0,0.0,0.0,0.0,0.0,0.0,0.0,-3.3103,-3.3229,-3.3275,-3.3333,-3.3438,-3.34,-3.3427,-3.3358,-3.3384,-3.3342,-3.3212,0.0,0.0,0.0,0.0,0.0,0.0,0.0,0.0,0.0,0.0,0.0,0.0,0.0,0.0,0.0,0.0,0.0,0.0,0.0,0.0,0.0,0.0,0.0,0.0,0.0,0.0,-2.569,-2.5689,-2.5689,0.0,0.0,0.0,0.0,0.0,0.0,0.0,0.0,0.0,0.0,-2.5571,-2.5579,-2.546,-2.6243,-2.6864,-2.687,-2.7615,-2.8223,-2.8183,-2.8131,-2.8092,0.0,0.0,0.0,0.0,0.0,0.0,0.0,0.0,0.0,0.0,0.0,0.0,0.0,0.0,0.0,0.0,0.0,0.0,0.0,0.0,0.0,0.0,0.0,0.0,0.0,0.0,0.0,-2.5265,-2.5391,0.0,0.0,0.0,0.0,0.0,0.0,0.0,0.0,0.0,0.0,0.0,-2.8968,-2.985,0.0,0.0,0.0,0.0,0.0,0.0,0.0,0.0,0.0,0.0,0.0,0.0,-3.3741,-3.4831,-3.4482,-3.4526,-3.5115,-3.5115,-3.5114,-3.5091,-3.5082,-3.5018,-3.492,0.0,0.0,0.0,0.0,0.0,0.0,0.0,0.0,0.0,0.0,0.0,0.0,0.0,0.0,0.0,0.0,0.0,0.0,0.0,0.0,0.0,0.0,0.0,0.0,0.0,-2.5698,0.0,0.0,0.0,0.0,0.0,0.0,0.0,0.0,0.0,0.0,0.0,-2.6398,-2.6324,-2.6776,-2.7133,-2.7067,-2.7346,-2.7555,0.0,0.0,0.0,0.0,0.0,0.0,0.0,0.0,0.0,0.0,0.0,0.0,0.0,0.0,-2.6596,-2.558,-2.5427,-2.5442,-2.5425,0.0,0.0,0.0,0.0,0.0,0.0,0.0,0.0,0.0,0.0,0.0,0.0,0.0,0.0,-2.6265,0.0,-2.6888,0.0,0.0,0.0,0.0,0.0,0.0,0.0,0.0,-2.95,-2.994,-2.991,-3.0466,-3.072,0.0,-3.0951,-3.1054,0.0,0.0,0.0,0.0,0.0,0.0,0.0,0.0,-3.4652,-3.5763,-3.5401,-3.543,-3.5976,-3.6016,-3.6016,-3.6016,-3.5953,-3.5918,-3.5873,-3.4746,-3.4252,0.0,0.0,0.0,0.0,0.0,0.0,0.0,0.0,0.0,0.0,0.0,0.0,0.0,0.0,0.0,0.0,0.0,0.0,0.0,0.0,0.0,0.0,0.0,-2.6612,0.0,0.0,0.0,0.0,0.0,0.0,0.0,0.0,0.0,-2.6607,-2.6896,-2.7187,-2.7086,-2.7561,-2.7899,-2.7848,0.0,0.0,0.0,0.0,0.0,0.0,0.0,-2.9733,-2.9685,-2.9689,-2.9674,-2.9677,-2.9089,-2.8549,-2.8296,0.0,0.0,-2.6448,-2.6221,-2.6227,-2.6227,-2.6227,-2.6218,-2.6223,-2.6207,-2.6208,0.0,0.0,0.0,0.0,0.0,0.0,0.0,0.0,-2.797,-2.7965,0.0,-2.8032,0.0,0.0,0.0,0.0,0.0,-2.9032,0.0,0.0,-3.0357,-3.0781,-3.0781,-3.082,-3.0839,-3.0877,-3.1666,-3.2043,-3.2052,-3.1999,0.0,0.0,0.0,0.0,0.0,0.0,-3.5769,-3.5901,-3.5933,-3.5996,-3.6016,-3.6016,-3.6016,-3.6016,-3.5996,-3.5996,-3.5996,-3.5903,-3.5497,-3.468,-3.4468,0.0,0.0,0.0,0.0,0.0,0.0,0.0,0.0,0.0,0.0,0.0,0.0,0.0,0.0,0.0,0.0,0.0,0.0,0.0,0.0,-2.8288,0.0,0.0,0.0,0.0,0.0,0.0,0.0,0.0,0.0,0.0,-2.8173,-2.8105,-2.798,-2.7862,0.0,0.0,0.0,0.0,-2.9202,-2.9137,-2.9897,-3.0466,-3.0466,-3.0429,-3.0384,-3.0392,0.0,0.0,-3.0364,-3.0286,-2.9921,-2.9272,-2.9033,-2.8707,-2.7918,-2.7727,-2.7708,-2.7727,-2.7689,-2.7766,-2.7761,-2.7576,-2.7587,-2.8417,0.0,0.0,0.0,0.0,-2.7954,-2.8011,-2.8073,-2.8073,-2.8135,-2.8232,-2.8805,0.0,0.0,0.0,0.0,0.0,0.0,-3.0358,-3.0411,-3.0678,-3.08,-3.082,-3.1426,-3.1741,-3.1743,-3.2576,-3.3006,-3.3032,-3.3599,-3.3836,-3.3732,0.0,0.0,0.0,0.0,-3.5853,-3.5892,-3.5973,-3.6016,-3.6016,-3.6016,-3.6016,-3.6016,-3.6016,-3.6016,-3.6016,-3.5975,-3.5832,-3.5543,-3.4895,0.0,0.0,0.0,0.0,0.0,0.0,0.0,0.0,0.0,0.0,0.0,0.0,0.0,0.0,0.0,0.0,0.0,0.0,0.0,-2.8292,-2.8287,-2.8282,0.0,0.0,0.0,0.0,0.0,0.0,0.0,0.0,0.0,-2.9788,-2.9212,-2.8795,0.0,0.0,-2.9556,-2.9632,-2.979,-2.9896,-2.9896,-3.0106,0.0,-3.0284,-3.0348,-3.0373,-3.0273,-3.0234,-3.0207,-3.026,-3.0219,-3.0129,-2.9896,-2.9837,-2.9746,-2.9497,-2.8498,-2.7821,-2.7726,-2.7726,-2.772,-2.772,-2.7708,-2.772,-2.9655,-2.9107,-2.9068,-2.9045,-2.9073,-2.9104,-2.913,-2.9171,-2.9171,-2.9207,-2.9325,-2.9797,-3.001,-3.0045,-3.0567,0.0,0.0,0.0,-3.095,-3.1304,-3.1308,-3.1503,-3.1874,-3.2383,-3.2618,-3.2659,-3.35,-3.3933,-3.3938,-3.4799,-3.5158,-3.5083,0.0,0.0,-3.5811,-3.5888,-3.5913,-3.5948,-3.5975,-3.6016,-3.6016,-3.6016,-3.6016,-3.6016,-3.6016,-3.6016,-3.6016,-3.6016,-3.5976,-3.593,-3.5412,-3.4949,0.0,0.0,0.0,0.0,0.0,0.0,0.0,0.0,0.0,0.0,0.0,-2.9254,-2.9316,0.0,0.0,0.0,-2.9352,-2.933,-2.9283,-2.93,0.0,0.0,0.0,0.0,0.0,0.0,0.0,-2.9784,-3.0187,-3.0446,-3.0414,-2.9929,-2.9573,-2.9605,-2.9954,-3.0234,-3.0303,0.0,-3.0213,-3.0213,-3.0213,-3.0213,-3.0213,-3.0267,-3.0298,-3.0214,-3.0219,-3.0213,-3.0211,-3.0204,-3.0204,-3.0204,-3.0204,-3.0204,-3.0204,-2.9344,-2.8695,-2.8695,-2.8695,-2.8695,-2.8695,-2.8695,-2.8695,-3.0801,-3.0804,-3.0879,-3.0817,-3.073,-3.0765,-3.0794,-3.0792,-3.0792,-3.0796,-3.08,-3.08,-3.0837,-3.0911,-3.0902,0.0,-3.1008,-3.1008,-3.1441,-3.2208,-3.2207,-3.2617,-3.3396,-3.3474,-3.3513,-3.3533,-3.4374,-3.4807,-3.485,-3.5614,-3.6004,-3.6005,-3.5953,-3.5907,-3.5905,-3.5907,-3.5944,-3.6016,-3.6016,-3.6016,-3.6016,-3.6016,-3.6016,-3.6016,-3.6016,-3.6016,-3.6016,-3.6016,-3.6016,-3.5996,-3.593,-3.5549,-3.479,0.0,0.0,0.0,0.0,0.0,0.0,0.0,0.0,0.0,0.0,0.0,0.0,0.0,0.0,0.0,-3.089,0.0,-3.08,-3.0799,0.0,0.0,0.0,-3.0701,-3.0677,-3.0583,-3.0496,-3.0487,0.0,0.0,-3.0304,-3.0311,-3.0273,-3.0214,-3.0213,-3.0206,-3.0213,-3.0219,-3.0218,-3.0225,-3.0218,-3.0218,-3.0225,-3.0213,-3.0206,-3.0211,-3.0204,-3.0211,-3.0204,-3.0204,-3.0204,-3.0204,-3.0204,-3.0204,-3.0204,-3.0128,-3.0204,-3.0128,-3.0128,-3.0166,-3.0089,-3.007,-3.0032,-3.0795,-3.0873,-3.151,-3.1408,-3.0786,-3.0786,-3.0798,-3.0783,-3.0789,-3.0794,-3.0795,-3.0799,-3.1171,-3.1796,-3.1793,-3.2144,-3.279,-3.277,-3.2887,-3.3084,-3.3084,-3.3201,-3.3416,-3.4081,-3.4393,-3.4452,-3.5291,-3.5701,-3.5702,-3.5905,-3.6006,-3.6009,-3.5991,-3.597,-3.5987,-3.5972,-3.5975,-3.6016,-3.6016,-3.6016,-3.6016,-3.6016,-3.6016,-3.6016,-3.6016,-3.6016,-3.6016,-3.6016,-3.6016,-3.6016,-3.5976,-3.5877,-3.5682,-3.5661,0.0,0.0,0.0,0.0,0.0,0.0,0.0,0.0,0.0,-3.0878,-3.0877,0.0,-3.0913,0.0,-3.0846,-3.0822,-3.08,-3.076,0.0,0.0,-3.0678,-3.06,-3.0556,-3.0528,-3.0487,-3.0422,-3.0365,-3.0323,-3.0305,-3.0312,-3.0279,-3.0221,-3.0241,-3.0298,-3.035,-3.0354,-3.0324,-3.0279,-3.026,-3.0266,-3.026,-3.0221,-3.0213,-3.0211,-3.0204,-3.0204,-3.0204,-3.0204,-3.0204,-3.0204,-3.0204,-3.0204,-3.0204,-3.0204,-3.0204,-3.0204,-3.0204,-3.0204,-3.0204,-3.0204,-3.0204,-3.1941,-3.1999,-3.248,-3.2385,-3.1941,-3.1968,-3.1952,-3.1955,-3.1965,-3.1948,-3.1948,-3.197,-3.2226,-3.2675,-3.2675,-3.2949,-3.3377,-3.3396,-3.3612,-3.3964,-3.3983,-3.4177,-3.4567,-3.5055,-3.5271,-3.531,-3.5778,-3.6012,-3.6012,-3.6017,-3.6002,-3.6008,-3.6012,-3.6013,-3.6012,-3.6015,-3.6016,-3.6015,-3.6016,-3.6016,-3.6016,-3.6016,-3.6016,-3.6016,-3.6016,-3.6016,-3.6016,-3.6016,-3.6016,-3.6016,-3.6016,-3.6016,-3.6016,-3.6016,-3.5801,0.0,0.0,0.0,0.0,0.0,0.0,0.0,0.0,0.0,0.0,0.0,-3.0911,-3.0907,-3.0824,-3.08,-3.08,-3.0768,-3.0757,-3.0737,-3.0677,-3.0626,-3.0586,-3.0568,-3.0546,-3.0506,-3.0436,-3.04,-3.0402,-3.0336,-3.0439,-3.0764,-3.0874,-3.0775,-3.0435,-3.0367,-3.0349,-3.0299,-3.0273,-3.026,-3.0253,-3.0226,-3.0206,-3.0211,-3.0204,-3.0204,-3.0204,-3.0204,-3.0204,-3.0204,-3.0204,-3.0204,-3.0204,-3.0204,-3.0204,-3.0204,-3.0204,-3.0204,-3.0204,-3.0204,-3.0204,-3.3378,-3.3415,-3.353,-3.3569,-3.3589,-3.3688,-3.3614,-3.3384,-3.3394,-3.3396,-3.3396,-3.3396,-3.3455,-3.3573,-3.3573,-3.3611,-3.3728,-3.3728,-3.4138,-3.4861,-3.4861,-3.527,-3.5992,-3.6012,-3.6012,-3.6012,-3.6012,-3.6012,-3.6012,-3.6012,-3.6017,-3.6005,-3.6009,-3.6012,-3.6014,-3.6015,-3.6015,-3.6014,-3.6113,-3.6172,-3.6172,-3.6152,-3.6172,-3.6172,-3.6055,-3.6016,-3.6016,-3.6016,-3.6016,-3.6016,-3.6016,-3.6016,-3.6016,-3.6016,-3.6016,0.0,-3.5273,0.0,0.0,0.0,0.0,0.0,0.0,0.0,0.0,-3.1122,-3.1004,-3.0887,-3.0823,-3.08,-3.08,-3.0798,-3.0795,-3.0776,-3.0745,-3.0718,-3.0833,-3.0808,-3.081,-3.0927,-3.0871,-3.0805,-3.0877,-3.0704,-3.0951,-3.1635,-3.1795,-3.1595,-3.0868,-3.0746,-3.0785,-3.0631,-3.0573,-3.0757,-3.0691,-3.0619,-3.0638,-3.0574,-3.0643,-3.051,-3.0624,-3.0605,-3.0567,-3.0567,-3.0643,-3.0605,-3.0529,-3.0567,-3.0567,-3.0643,-3.0663,-3.0567,-3.028,-3.0204,-3.0242,-3.3386,-3.3463,-3.4156,-3.4466,-3.4505,-3.5215,-3.4692,-3.3388,-3.3394,-3.3396,-3.3396,-3.3396,-3.3788,-3.4432,-3.4452,-3.4842,-3.5504,-3.5504,-3.5582,-3.5758,-3.5758,-3.5836,-3.5992,-3.6012,-3.6012,-3.6012,-3.6012,-3.6012,-3.6012,-3.6012,-3.6019,-3.6009,-3.601,-3.6012,-3.6014,0.0,0.0,0.0,-3.6699,-3.7051,-3.7051,-3.7051,-3.7051,-3.7031,-3.6367,0.0,-3.6016,-3.6016,-3.6016,-3.6016,-3.6016,0.0,0.0,0.0,0.0,0.0,0.0,0.0,0.0,0.0,0.0,0.0,-3.4315,-3.3845,-3.2983,-3.2273,-3.1565,-3.09,-3.0801,-3.08,-3.08,-3.0741,-3.0722,-3.072,-3.0656,-3.0889,-3.155,-3.1656,-3.1902,-3.2628,-3.2608,-3.2506,-3.2438,-3.2466,-3.2448,-3.2621,-3.268,-3.2602,-3.243,-3.2403,-3.2429,-3.2423,-3.2216,-3.2259,-3.23,-3.2235,-3.2125,-3.2229,-3.2241,-3.2183,-3.2145,-3.2145,-3.2183,-3.2145,-3.2241,-3.2164,-3.2183,-3.2222,-3.2107,-3.2222,-3.2203,-3.1821,-3.051,-3.0223,-3.0395,-3.4682,0.0,-3.5163,-3.5337,0.0,-3.5809,-3.5498,-3.4682,-3.4683,-3.4704,-3.4704,-3.4684,-3.4919,-3.533,-3.5349,-3.5582,-3.6012,-3.6012,-3.6012,-3.6012,-3.6012,-3.6012,-3.6012,-3.6012,-3.6012,-3.6012,-3.6012,-3.6012,-3.6012,-3.6012,-3.6019,-3.601,-3.6421,-3.6638,-3.666,-3.707,-3.707,-3.6641,-3.75,-3.7949,-3.7949,-3.7949,-3.7734,-3.7305,-3.6875,0.0,0.0,0.0,0.0,0.0,0.0,0.0,0.0,-3.6016,0.0,-3.6016,-3.6016,-3.6016,-3.6016,-3.6016,-3.5801,-3.539,-3.535,-3.4801,-3.3508,-3.2992,-3.2558,-3.2128,-3.2088,-3.2088,-3.2069,-3.2056,-3.2028,-3.2046,-3.2008,-3.217,-3.256,-3.2638,-3.2803,-3.3138,-3.3153,-3.3026,-3.3005,-3.2954,-3.3102,-3.3461,-3.3558,-3.3699,-3.4007,-3.3455,-3.2923,-3.2864,-3.2837,-3.2776,-3.2763,-3.2748,-3.276,-3.2707,-3.268,-3.268,-3.268,-3.268,-3.268,-3.268,-3.268,-3.268,-3.268,-3.268,-3.268,-3.268,-3.268,-3.2489,-3.1572,-3.1427,-3.1553,-3.6012,-3.6012,-3.6012,-3.6012,-3.6012,-3.6012,-3.6012,-3.6012,0.0,0.0,0.0,-3.6012,-3.6012,-3.6012,-3.6012,-3.6012,-3.6012,-3.6012,-3.6012,-3.6012,-3.6012,-3.6012,-3.6012,-3.6012,-3.6012,-3.6012,-3.6012,-3.6012,-3.6012,-3.615,-3.6235,-3.6323,-3.7105,-3.7537,-3.7578,-3.8398,-3.8496,-3.7832,-3.8457,-3.8828,-3.8828,-3.8828,-3.8476,-3.7754,-3.7598,-3.7109,-3.6269,-3.623,-3.6152,-3.6016,-3.6016,-3.6016,-3.6016,-3.6016,-3.6016,-3.6016,-3.6016,-3.6016,-3.6016,-3.6016,-3.6016,-3.6016,-3.6013,-3.5326,-3.374,-3.3635,-3.3573,-3.3435,-3.3396,-3.3377,-3.3396,-3.3396,-3.3396,-3.3396,-3.3396,-3.3435,-3.3591,-3.3632,-3.3674,-3.3709,-3.3708,-3.3546,-3.3538,-3.3467,-3.3589,-3.425,-3.443,-3.4661,-3.5135,-3.4282,-3.346,-3.3405,-3.3453,-3.329,-3.32,-3.3234,-3.3138,-3.3272,-3.3234,-3.3138,-3.3138,-3.3138,-3.3138,-3.3291,-3.3158,-3.3196,-3.3177,-3.3253,-3.3158,-3.3158,-3.3138,-3.3138,-3.3138,-3.3138,-3.31,-3.6031,-3.6012,-3.6012,-3.6012,-3.6012,-3.6012,-3.6012,-3.6012,-3.6012,-3.6012,-3.6012,-3.6012,-3.6012,-3.6012,-3.6012,-3.6012,-3.6012,-3.6012,-3.6012,-3.6012,-3.6012,-3.6012,-3.6012,-3.6012,-3.6012,-3.6012,-3.6012,-3.6012,-3.6072,-3.6761,-3.712,-3.7221,-3.7986,-3.8417,-3.8496,-3.9277,-3.9648,-3.9531,-3.9668,-3.9726,-3.9726,-3.9707,-3.9668,-3.9512,-3.8789,-3.8027,-3.7168,-3.7109,-3.6758,-3.6055,-3.6016,-3.6016,-3.6016,-3.6016,-3.6016,-3.6016,-3.6016,-3.6016,-3.6016,-3.6016,-3.6015,-3.6014,-3.6012,-3.558,-3.4623,-3.4517,-3.4198,-3.3513,-3.3474,-3.3396,-3.3396,-3.3455,-3.3513,-3.3455,-3.3416,-3.3671,-3.4413,-3.453,-3.4732,-3.531,-3.5417,-3.5232,-3.5076,-3.5065,-3.5012,-3.5231,-3.518,-3.5327,-3.5378,-3.5213,-3.4978,-3.4936,-3.4883,-3.4863,-3.4674,-3.48,-3.4694,-3.4846,-3.4724,-3.4628,-3.4628,-3.4628,-3.4628,-3.4781,-3.4666,-3.4705,-3.4743,-3.4838,-3.4694,-3.4647,-3.4628,-3.4686,-3.4655,-3.4666,-3.4541,-3.7399,-3.7419,-3.7419,-3.7126,-3.6675,-3.6207,-3.6012,-3.6012,-3.6012,-3.6012,-3.6012,-3.6012,-3.6012,-3.6012,-3.6012,-3.6012,-3.6012,-3.6012,-3.6012,-3.6012,-3.6012,-3.6012,-3.6012,-3.6012,-3.6012,-3.6031,-3.65,-3.6714,-3.6774,-3.758,-3.7996,-3.8061,-3.8866,-3.9531,-4.0,-4.041,-4.0586,-4.0605,-4.0605,-4.0605,-4.0605,-4.0605,-4.0371,-3.9902,-3.9492,-3.8906,-3.8047,-3.8008,-3.7598,-3.6738,-3.6699,-3.6504,-3.6035,-3.6016,-3.6016,-3.6016,-3.6016,-3.6016,-3.6016,-3.6016,-3.6016,-3.6015,-3.6013,-3.5854,-3.5444,-3.5396,-3.5252,-3.486,-3.4802,-3.4802,-3.4802,-3.4802,-3.4821,-3.4821,-3.4821,-3.4958,-3.5309,-3.5408,-3.5531,-3.5816,-3.5771,-3.5663,-3.5623,-3.5534,-3.55,-3.55,-3.55,-3.55,-3.55,-3.5439,-3.5338,-3.535,-3.5293,-3.5246,-3.5242,-3.5218,-3.519,-3.5182,-3.5182,-3.5182,-3.5182,-3.5182,-3.5182,-3.5182,-3.5182,-3.5182,-3.5182,-3.5182,-3.5182,-3.5182,-3.5182,-3.5182,-3.5182,-3.5182,-3.5048,-3.8611,-3.8611,-3.8611,-3.8201,-3.7555,-3.6871,-3.6597,-3.6597,-3.6597,-3.6597,-3.6539,-3.6187,-3.6012,-3.6012,-3.6012,-3.6012,-3.6012,-3.6012,-3.6012,-3.6012,-3.6012,-3.6012,-3.6051,-3.6187,-3.6305,-3.6402,-3.7184,-3.7575,-3.7692,-3.8457,-3.8993,-3.9234,-3.9863,-4.0527,-4.1191,-4.1191,-4.1191,-4.1191,-4.1191,-4.1191,-4.1191,-4.1191,-4.0879,-4.0254,-4.0195,-3.9785,-3.8965,-3.8887,-3.8496,-3.7656,-3.7402,-3.6992,-3.6348,-3.6094,-3.6016,-3.6016,-3.6016,-3.6016,-3.6016,-3.6016,-3.6016,-3.6015,-3.6013,-3.601,-3.6009,-3.6019,-3.6012,-3.6012,-3.5934,-3.5953,-3.5914,-3.5953,-3.6012,-3.6012,-3.6012,-3.5934,-3.5992,-3.5986,-3.5947,-3.5855,-3.5741,-3.5645,-3.5585,-3.5534,-3.5507,-3.55,-3.55,-3.55,-3.5493,-3.5453,-3.542,-3.5379,-3.5342,-3.5297,-3.5285,-3.5226,-3.519,-3.5182,-3.5182,-3.5182,-3.5182,-3.5182,-3.5182,-3.5182,-3.5182,-3.5182,-3.5182,-3.5182,-3.5182,-3.5182,-3.5182,-3.5182,-3.5182,-3.5182,-3.5182,-3.863,-3.8611,-3.8669,-3.8572,-3.8454,-3.8357,-3.8298,-3.8298,-3.8337,-3.8357,-3.8141,-3.6695,-3.607,-3.6012,-3.6051,-3.6051,-3.6051,-3.6012,-3.6031,-3.6051,-3.6012,-3.6012,-3.6168,-3.6812,-3.7184,-3.7282,-3.8063,-3.8474,-3.8534,-3.9364,-4.0153,-4.0859,-4.1035,-4.1094,-4.1191,-4.1191,-4.1191,-4.1191,-4.1191,-4.1191,-4.1191,-4.1191,-4.1152,-4.1094,-4.1074,-4.0684,-3.9824,-3.9785,-3.9375,-3.8516,-3.7754,-3.7285,-3.7109,-3.6445,-3.6016,-3.6035,-3.6016,-3.6016,-3.6016,-3.6016,-3.6015,-3.6014,-3.6012,-3.6009,-3.6006,-3.6017,-3.6012,-3.6012,-3.6012,-3.6012,-3.6012,-3.6012,-3.6012,-3.6012,-3.6012,-3.6012,-3.6007,-3.5964,-3.5875,-3.5722,-3.566,-3.5579,-3.5541,-3.5501,-3.5507,-3.55,-3.55,-3.55,-3.55,-3.5493,-3.5453,-3.5405,-3.5346,-3.5266,-3.5234,-3.519,-3.5182,-3.5182,-3.5182,-3.5182,-3.5182,-3.5182,-3.5182,-3.5182,-3.5182,-3.5182,-3.5182,-3.5182,-3.5182,-3.5182,-3.5182,-3.5182,-3.5182,-3.5182,-3.5182,-4.0094,-4.0075,-4.0075,-3.9782,-3.9292,-3.8825,-3.8611,-3.8611,-3.8611,-3.8611,-3.8533,-3.7828,-3.7555,-3.7516,-3.7028,-3.6773,-3.6734,-3.6226,-3.6305,-3.6734,-3.6773,-3.7028,-3.7555,-3.7887,-3.8063,-3.8141,-3.8903,-3.9315,-3.9497,-4.0209,-4.0798,-4.1113,-4.1191,-4.1191,-4.1191,-4.1191,-4.1191,-4.1191,-4.1191,-4.1191,-4.1191,-4.1191,-4.1191,-4.1191,-4.1191,-4.1074,-4.0723,-4.0684,-4.0273,-3.9453,-3.9043,-3.8613,-3.8086,-3.7246,-3.6777,-3.6738,-3.6269,-3.6016,-3.6016,-3.6016,-3.6016,-3.6015,-3.6014,-3.6012,-3.6009,-3.6003,-3.6018,-3.6012,-3.6012,-3.6012,-3.6012,-3.6012,-3.6012,-3.6012,-3.6012,-3.5985,-3.594,-3.5924,-3.5846,-3.5729,-3.5636,-3.559,-3.5552,-3.5515,-3.5488,-3.55,-3.55,-3.55,-3.55,-3.55,-3.5453,-3.5364,-3.5327,-3.5289,-3.5269,-3.5218,-3.519,-3.5182,-3.5182,-3.5182,-3.5182,-3.5182,-3.5182,-3.5182,-3.5182,-3.5182,-3.5182,-3.5182,-3.5182,-3.5182,-3.5182,-3.5182,-3.5182,-3.5182,-3.5182,-4.1109,-4.1109,-4.1109,-4.0737,-4.0132,-3.9528,-3.9274,-3.9294,-3.9274,-3.9294,-3.9294,-3.9274,-3.9294,-3.9138,-3.8141,-3.7672,-3.7575,-3.6988,-3.7048,-3.7614,-3.7672,-3.8004,-3.8572,-3.8845,-3.8944,-3.9082,-3.9764,-4.0179,-4.0284,-4.0778,-4.1112,-4.1132,-4.1172,-4.1191,-4.1191,-4.1191,-4.1191,-4.1191,-4.1191,-4.1191,-4.1191,-4.1191,-4.1191,-4.1191,-4.1191,-4.1191,-4.1191,-4.1191,-4.0918,-4.0293,-4.0039,-3.9629,-3.8984,-3.8125,-3.7559,-3.7246,-3.6484,-3.6016,-3.6016,-3.6016,-3.6016,-3.6016,-3.6015,-3.6013,-3.601,-3.6005,-3.6018,-3.6013,-3.6012,-3.6012,-3.6012,-3.6012,-3.6012,-3.6012,-3.6012,-3.596,-3.5919,-3.5878,-3.5794,-3.5691,-3.5599,-3.5575,-3.5564,-3.5528,-3.55,-3.55,-3.55,-3.55,-3.55,-3.5474,-3.542,-3.5323,-3.53,-3.5289,-3.5277,-3.5245,-3.5209,-3.5182,-3.5182,-3.5182,-3.5182,-3.5182,-3.5182,-3.5182,-3.5182,-3.5182,-3.5182,-3.5182,-3.5182,-3.5182,-3.5182,-3.5182,-3.5182,-3.5182,-3.5182,-4.1109,-4.1109,-4.1109,-4.1051,-4.1031,-4.0934,-4.0953,-4.0816,-4.0914,-4.0934,-4.0875,-4.0875,-4.0953,-4.0777,-3.9274,-3.8552,-3.8552,-3.8415,-3.8396,-3.8533,-3.8552,-3.8572,-3.865,-3.9372,-3.9765,-3.9887,-4.0552,-4.0947,-4.1013,-4.1072,-4.1132,-4.1191,-4.1191,-4.1191,-4.1191,-4.1191,-4.1191,-4.1191,-4.1191,-4.1191,-4.1191,-4.1191,-4.1191,-4.1191,-4.1191,-4.1191,-4.1191,-4.1191,-4.1152,-4.1113,-4.0371,-3.9902,-3.9785,-3.9023,-3.8203,-3.7383,-3.6523,-3.6035,-3.6074,-3.6035,-3.6016,-3.6016,-3.6014,-3.6011,-3.601,-3.6003,-3.6014,-3.6012,-3.6012,-3.6012,-3.6012,-3.6012,-3.6012,-3.6012,-3.5991,-3.5955,-3.5892,-3.5764,-3.5668,-3.5609,-3.5553,-3.5521,-3.552,-3.5507,-3.55,-3.55,-3.55,-3.55,-3.5493,-3.5453,-3.5379,-3.5335,-3.5297,-3.5277,-3.5218,-3.5209,-3.5209,-3.5182,-3.5182,-3.5182,-3.5182,-3.5182,-3.5182,-3.5182,-3.5182,-3.5182,-3.5182,-3.5182,-3.5182,-3.5182,-3.5182,-3.5182,-3.5182,-3.5182,-3.5182,-4.1109,-4.1109,-4.1109,-4.1109,-4.1109,-4.1109,-4.1109,-4.1109,-4.1109,-4.1109,-4.1109,-4.1109,-4.1109,-4.107,-4.0485,-3.9879,-3.9351,-3.8864,-3.8864,-3.9312,-3.937,-3.9645,-4.0211,-4.0508,-4.0648,-4.0728,-4.0967,-4.1107,-4.1111,-4.1132,-4.1191,-4.1191,-4.1191,-4.1191,-4.1191,-4.1191,-4.1191,-4.1191,-4.1191,-4.1191,-4.1191,-4.1191,-4.1191,-4.1191,-4.1191,-4.1191,-4.1191,-4.1191,-4.1191,-4.1191,-4.0898,-4.0742,-4.0644,-3.9902,-3.9062,-3.8184,-3.7305,-3.6836,-3.6777,-3.6309,-3.6016,-3.6015,-3.6015,-3.6013,-3.6009,-3.6005,-3.6002,-3.6014,-3.6012,-3.6012,-3.6012,-3.6012,-3.6012,-3.6009,-3.5953,-3.5899,-3.5771,-3.5687,-3.5604,-3.5547,-3.5527,-3.5507,-3.55,-3.55,-3.55,-3.55,-3.55,-3.55,-3.5493,-3.5446,-3.5372,-3.5335,-3.5297,-3.5258,-3.519,-3.5182,-3.5182,-3.5182,-3.5182,-3.5182,-3.5182,-3.5182,-3.5182,-3.5182,-3.5182,-3.5182,-3.5182,-3.5182,-3.5182,-3.5182,-3.5182,-3.5182,-3.5182,-3.5182,-3.5182,-4.1109,-4.1109,-4.1109,-4.1109,-4.1109,-4.1109,-4.1109,-4.1109,-4.1109,-4.1109,-4.1109,-4.1109,-4.1109,-4.1109,-4.1109,-4.0815,-4.021,-3.9645,-3.9704,-4.019,-4.0229,-4.0542,-4.1031,-4.1115,-4.1099,-4.1102,-4.1128,-4.1131,-4.1132,-4.1191,-4.1191,-4.1191,-4.1191,-4.1191,-4.1191,-4.1191,-4.1191,-4.1191,-4.1191,-4.1191,-4.1191,-4.1191,-4.1191,-4.1191,-4.1191,-4.1191,-4.1191,-4.1191,-4.1191,-4.1191,-4.1191,-4.1191,-4.1133,-4.0371,-3.9648,-3.9023,-3.8203,-3.7715,-3.7617,-3.6914,-3.6426,-3.6406,-3.6152,-3.6014,-3.6008,-3.6008,-3.6004,-3.6014,-3.6012,-3.6012,-3.5989,-3.5983,-3.5981,-3.5986,-3.5951,-3.5864,-3.5733,-3.5645,-3.5596,-3.5515,-3.5507,-3.55,-3.55,-3.55,-3.55,-3.55,-3.55,-3.55,-3.55,-3.5446,-3.5391,-3.5315,-3.5316,-3.5277,-3.5218,-3.5182,-3.5182,-3.5182,-3.5182,-3.5182,-3.5182,-3.5182,-3.5182,-3.5182,-3.5182,-3.5182,-3.5182,-3.5182,-3.5182,-3.5182,-3.5182,-3.5182,-3.5182,-3.5182,-3.5182,-4.1109,-4.1109,-4.1109,-4.1109,-4.1109,-4.1109,-4.1109,-4.1109,-4.1109,-4.1109,-4.1109,-4.1109,-4.1109,-4.1109,-4.1109,-4.107,-4.0973,-4.0855,-4.0875,-4.0973,-4.0992,-4.1012,-4.1109,-4.1117,-4.1103,-4.1127,-4.1171,-4.1191,-4.1191,-4.1191,-4.1191,-4.1191,-4.1191,-4.1191,-4.1191,-4.1191,-4.1191,-4.1191,-4.1191,-4.1191,-4.1191,-4.1191,-4.1191,-4.1191,-4.1191,-4.1191,-4.1191,-4.1191,-4.1191,-4.1191,-4.1191,-4.1191,-4.1094,-4.0449,-3.9941,-3.9824,-3.9082,-3.8672,-3.8516,-3.7793,-3.7305,-3.7226,-3.6562,-3.6307,-3.6381,-3.63,-3.6295,-3.6327,-3.6285,-3.6187,-3.6222,-3.6196,-3.6087,-3.5983,-3.5955,-3.5867,-3.5745,-3.5709,-3.566,-3.5528,-3.55,-3.55,-3.55,-3.55,-3.55,-3.55,-3.55,-3.55,-3.5481,-3.5427,-3.5391,-3.5335,-3.5297,-3.5277,-3.5226,-3.5182,-3.5182,-3.5182,-3.5182,-3.5182,-3.5182,-3.5182,-3.5182,-3.5182,-3.5182,-3.5182,-3.5182,-3.5182,-3.5182,-3.5182,-3.5182,-3.5182,-3.5182,-3.5182,-3.5182,-4.1109,-4.1109,-4.1109,-4.1109,-4.1109,-4.1109,-4.1109,-4.1109,-4.1109,-4.1109,-4.1109,-4.1109,-4.1109,-4.1109,-4.1109,-4.1109,-4.1109,-4.1114,-4.1114,-4.1111,-4.1114,-4.1116,-4.1117,-4.1105,-4.113,-4.1171,-4.1191,-4.1191,-4.1191,-4.1191,-4.1191,-4.1191,-4.1191,-4.1191,-4.1191,-4.1191,-4.1191,-4.1191,-4.1191,-4.1191,-4.1191,-4.1191,-4.1191,-4.1191,-4.1191,-4.1191,-4.1191,-4.1191,-4.1191,-4.1191,-4.1191,-4.1191,-4.1152,-4.0937,-4.0801,-4.0723,-3.998,-3.9492,-3.9394,-3.8691,-3.8183,-3.8125,-3.789,-3.7811,-3.7786,-3.7746,-3.7722,-3.7753,-3.7789,-3.777,-3.7765,-3.7693,-3.7141,-3.6046,-3.582,-3.5806,-3.5796,-3.5693,-3.5547,-3.5515,-3.55,-3.55,-3.5519,-3.5558,-3.5635,-3.5635,-3.5615,-3.5596,-3.5551,-3.5626,-3.5405,-3.5364,-3.5331,-3.5514,-3.5651,-3.5723,-3.5714,-3.5553,-3.5411,-3.5201,-3.5182,-3.5182,-3.5182,-3.5182,-3.5182,-3.5182,-3.5182,-3.5182,-3.5182,-3.5182,-3.5182,-3.5182,-3.5182,-3.5182,-3.5182,-4.1109,-4.1109,-4.1109,-4.1109,-4.1109,-4.1109,-4.1109,-4.1109,-4.1109,-4.1109,-4.1109,-4.1109,-4.1109,-4.1109,-4.1112,-4.1112,-4.1114,-4.11,-4.11,-4.1098,-4.11,-4.1102,-4.1103,-4.1109,-4.1132,-4.1172,-4.1191,-4.1191,-4.1191,-4.1191,-4.1191,-4.1191,-4.1191,-4.1191,-4.1191,-4.1191,-4.1191,-4.1191,-4.1191,-4.1191,-4.1191,-4.1191,-4.1191,-4.1191,-4.1191,-4.1191,-4.1191,-4.1191,-4.1191,-4.1191,-4.1191,-4.1191,-4.1191,-4.1191,-4.1191,-4.1094,-4.0742,-4.0391,-4.0293,-3.957,-3.9082,-3.9062,-3.8789,-3.8593,-3.8587,-3.8606,-3.8603,-3.8613,-3.8552,-3.8566,-3.8508,-3.8402,-3.7828,-3.6892,-3.672,-3.6574,-3.653,-3.6453,-3.6456,-3.6526,-3.6507,-3.6442,-3.6442,-3.6423,-3.6423,-3.643,-3.6423,-3.6423,-3.6423,-3.6467,-3.6337,-3.6296,-3.647,-3.6527,-3.6326,-3.6302,-3.6258,-3.6001,-3.5717,-3.5392,-3.5182,-3.5182,-3.5182,-3.5182,-3.5182,-3.5182,-3.5182,-3.5182,-3.5182,-3.5182,-3.5335,-3.5201,-3.5201,-3.5182,-3.5182,-4.1109,-4.1109,-4.1109,-4.1109,-4.1109,-4.1109,-4.1109,-4.1109,-4.1109,-4.1109,-4.1109,-4.1109,-4.1109,-4.1111,-4.1115,-4.1117,-4.11,-4.1105,-4.1107,-4.1107,-4.1108,-4.1108,-4.1129,-4.1131,-4.1152,-4.1191,-4.1191,-4.1191,-4.1191,-4.1191,-4.1191,-4.1191,-4.1191,-4.1191,-4.1191,-4.1191,-4.1191,-4.1191,-4.1191,-4.1191,-4.1191,-4.1191,-4.1191,-4.1191,-4.1191,-4.1191,-4.1191,-4.1191,-4.1191,-4.1191,-4.1191,-4.1191,-4.1191,-4.1191,-4.1191,-4.1191,-4.1191,-4.1113,-4.0996,-4.041,-3.998,-3.9922,-3.9375,-3.8749,-3.8979,-3.9071,-3.9044,-3.9013,-3.8949,-3.8816,-3.8744,-3.8677,-3.8491,-3.8313,-3.8026,-3.7929,-3.804,-3.7885,-3.7688,-3.7777,-3.795,-3.795,-3.7757,-3.7757,-3.7777,-3.7796,-3.7738,-3.768,-3.768,-3.755,-3.7839,-3.772,-3.7429,-3.7302,-3.7044,-3.7015,-3.6971,-3.6835,-3.6523,-3.62,-3.5837,-3.5791,-3.5783,-3.5706,-3.5526,-3.543,-3.5507,-3.5763,-3.5821,-3.5935,-3.5821,-3.542,-3.5477,-3.5744,-3.5802,-4.1109,-4.1109,-4.1109,-4.1109,-4.1109,-4.1109,-4.1109,-4.1109,-4.1109,-4.1109,-4.1109,-4.1109,-4.1112,-4.1116,-4.1117,-4.1101,-4.1105,-4.1109,-4.111,-4.1111,-4.1151,-4.1171,-4.1191,-4.1172,-4.1191,-4.1191,-4.1191,-4.1191,-4.1191,-4.1191,-4.1191,-4.1191,-4.1191,-4.1191,-4.1191,-4.1191,-4.1191,-4.1191,-4.1191,-4.1191,-4.1191,-4.1191,-4.1191,-4.1191,-4.1191,-4.1191,-4.1191,-4.1191,-4.1191,-4.1191,-4.1191,-4.1191,-4.1191,-4.1191,-4.1191,-4.1191,-4.1191,-4.1191,-4.1152,-4.0976,-4.084,-4.0859,-4.0468,-4.0427,-4.0443,-4.0381,-4.0357,-4.0351,-4.0276,-4.0155,-4.0133,-4.0038,-3.9959,-3.9737,-3.8909,-3.8241,-3.8155,-3.8017,-3.8007,-3.8007,-3.8065,-3.8142,-3.8161,-3.8161,-3.8142,-3.8142,-3.8161,-3.818,-3.8334,-3.8296,-3.8404,-3.8089,-3.7836,-3.7832,-3.7782,-3.7737,-3.7702,-3.7661,-3.751,-3.7428,-3.7171,-3.7094,-3.7126,-3.7128,-3.6757,-3.6585,-3.6852,-3.7139,-3.7024,-3.668,-3.6757,-3.6623,-3.6891,-3.712,-3.7024,-4.1109,-4.1109,-4.1109,-4.1109,-4.1109,-4.1109,-4.1109,-4.1109,-4.1109,-4.1109,-4.1109,-4.1112,-4.1115,-4.1099,-4.1103,-4.1107,-4.111,-4.1132,-4.1152,-4.1152,-4.1191,-4.1191,-4.1191,-4.1191,-4.1191,-4.1191,-4.1191,-4.1191,-4.1191,-4.1191,-4.1191,-4.1191,-4.1191,-4.1191,-4.1191,-4.1191,-4.1191,-4.1191,-4.1191,-4.1191,-4.1191,-4.1191,-4.1191,-4.1191,-4.1191,-4.1191,-4.1191,-4.1191,-4.1191,-4.1191,-4.1191,-4.1191,-4.1191,-4.1191,-4.1191,-4.1191,-4.1191,-4.1191,-4.1191,-4.1191,-4.1191,-4.1191,-4.1152,-4.1111,-4.1047,-4.1039,-4.0981,-4.0916,-4.0863,-4.0796,-4.0735,-4.0674,-4.06,-4.0327,-3.9604,-3.9053,-3.9053,-3.913,-3.9065,-3.9046,-3.9053,-3.9046,-3.9046,-3.9027,-3.9027,-3.9111,-3.9227,-3.92,-3.9181,-3.9027,-3.895,-3.8808,-3.8819,-3.8969,-3.9023,-3.8994,-3.8876,-3.8786,-3.8668,-3.8578,-3.8178,-3.8093,-3.7906,-3.7823,-3.7749,-3.775,-3.7903,-3.7884,-3.7521,-3.7387,-3.7655,-3.7769,-3.7827,-3.8075,-3.8018,-4.1109,-4.1109,-4.1109,-4.1109,-4.1109,-4.1109,-4.1109,-4.1109,-4.1109,-4.1109,-4.1111,-4.1116,-4.1099,-4.1101,-4.1108,-4.1111,-4.1131,-4.1172,-4.1191,-4.1191,-4.1191,-4.1191,-4.1191,-4.1191,-4.1191,-4.1191,-4.1191,-4.1191,-4.1191,-4.1191,-4.1191,-4.1191,-4.1191,-4.1191,-4.1191,-4.1191,-4.1191,-4.1191,-4.1191,-4.1191,-4.1191,-4.1191,-4.1191,-4.1191,-4.1191,-4.1191,-4.1191,-4.1191,-4.1191,-4.1191,-4.1191,-4.1191,-4.1191,-4.1191,-4.1191,-4.1191,-4.1191,-4.1191,-4.1191,-4.1191,-4.1191,-4.1191,-4.1191,-4.1171,-4.1083,-4.1009,-4.0938,-4.0929,-4.0833,-4.0738,-4.0668,-4.0579,-4.0519,-4.0477,-4.04,-4.0458,-4.0496,-4.0496,-4.0496,-4.0496,-4.0458,-4.0477,-4.0496,-4.0496,-4.0419,-3.9842,-3.9938,-3.99,-3.9892,-3.9854,-3.9919,-4.0008,-4.0115,-4.0308,-4.0315,-4.031,-4.0161,-4.0019,-3.9917,-3.9687,-3.8933,-3.866,-3.838,-3.8289,-3.8654,-3.8647,-3.8476,-3.8304,-3.8132,-3.8266,-3.8667,-3.84,-3.8171,-3.8572,-3.8706,-4.1109,-4.1109,-4.1109,-4.1109,-4.1109,-4.1109,-4.1109,-4.1109,-4.1109,-4.1112,-4.1116,-4.1098,-4.1103,-4.1109,-4.1111,-4.1112,-4.1172,-4.1191,-4.1191,-4.1191,-4.1191,-4.1191,-4.1191,-4.1191,-4.1191,-4.1191,-4.1191,-4.1191,-4.1191,-4.1191,-4.1191,-4.1191,-4.1191,-4.1191,-4.1191,-4.1191,-4.1191,-4.1191,-4.1191,-4.1191,-4.1191,-4.1191,-4.1191,-4.1191,-4.1191,-4.1191,-4.1191,-4.1191,-4.1191,-4.1191,-4.1191,-4.1191,-4.1191,-4.1191,-4.1191,-4.1191,-4.1191,-4.1191,-4.1191,-4.1191,-4.1191,-4.1191,-4.1171,-4.1108,-4.1025,-4.0925,-4.0839,-4.0756,-4.0636,-4.0575,-4.0552,-4.0527,-4.0496,-4.0496,-4.0496,-4.0496,-4.0496,-4.0496,-4.0496,-4.0496,-4.0496,-4.0496,-4.0496,-4.0496,-4.0496,-4.0496,-4.0496,-4.0496,-4.0496,-4.0496,-4.0496,-4.0496,-4.0489,-4.05,-4.0492,-4.0487,-4.0471,-4.0455,-4.0487,-4.0465,-3.973,-3.9487,-3.9303,-3.9453,-3.9828,-3.963,-3.9211,-3.9451,-3.9431,-3.9556,-3.9575,-3.9384,-3.925,-3.9441,-3.9384,-4.1109,-4.1109,-4.1109,-4.1109,-4.1109,-4.1109,-4.1111,-4.1112,-4.1114,-4.1117,-4.1102,-4.1105,-4.1108,-4.1111,-4.1132,-4.1172,-4.1191,-4.1191,-4.1191,-4.1191,-4.1191,-4.1191,-4.1191,-4.1191,-4.1191,-4.1191,-4.1191,-4.1191,-4.1191,-4.1191,-4.1191,-4.1191,-4.1191,-4.1191,-4.1191,-4.1191,-4.1191,-4.1191,-4.1191,-4.1191,-4.1191,-4.1191,-4.1191,-4.1191,-4.1191,-4.1191,-4.1191,-4.1191,-4.1191,-4.1191,-4.1191,-4.1191,-4.1191,-4.1191,-4.1191,-4.1191,-4.1191,-4.1191,-4.1191,-4.1191,-4.1191,-4.1191,-4.1172,-4.1105,-4.0998,-4.0883,-4.0781,-4.069,-4.0589,-4.0496,-4.0496,-4.0496,-4.0496,-4.0496,-4.0496,-4.0496,-4.0496,-4.0496,-4.0496,-4.0496,-4.0496,-4.0496,-4.0496,-4.0496,-4.0496,-4.0496,-4.0496,-4.0496,-4.0496,-4.0496,-4.0496,-4.0496,-4.0496,-4.0489,-4.0489,-4.05,-4.0492,-4.0484,-4.0492,-4.05,-4.0204,-4.023,-4.0342,-4.033,-4.022,-4.0242,-3.9976,-4.031,-4.032,-4.011,-4.0034,-4.0225,-4.0225,-3.9938,-3.99,-4.1109,-4.1109,-4.1109,-4.1109,-4.1109,-4.1109,-4.1112,-4.1117,-4.1099,-4.1102,-4.1108,-4.1111,-4.1111,-4.1132,-4.1172,-4.1191,-4.1191,-4.1191,-4.1191,-4.1191,-4.1191,-4.1191,-4.1191,-4.1191,-4.1191,-4.1191,-4.1191,-4.1191,-4.1191,-4.1191,-4.1191,-4.1191,-4.1191,-4.1191,-4.1191,-4.1191,-4.1191,-4.1191,-4.1191,-4.1191,-4.1191,-4.1191,-4.1191,-4.1191,-4.1191,-4.1191,-4.1191,-4.1191,-4.1191,-4.1191,-4.1191,-4.1191,-4.1191,-4.1191,-4.1191,-4.1191,-4.1191,-4.1191,-4.1191,-4.1191,-4.1191,-4.1191,-4.1191,-4.1113,-4.099,-4.088,-4.0771,-4.0672,-4.0574,-4.0496,-4.0496,-4.0496,-4.0496,-4.0496,-4.0496,-4.0496,-4.0496,-4.0496,-4.0496,-4.0496,-4.0496,-4.0496,-4.0496,-4.0496,-4.0496,-4.0496,-4.0496,-4.0496,-4.0496,-4.0496,-4.0496,-4.0496,-4.0496,-4.0496,-4.0489,-4.0489,-4.05,-4.0508,-4.0496,-4.0496,-4.0496,-4.0492,-4.0463,-4.0415,-4.0344,-4.0346,-4.031,-4.031,-4.032,-4.032,-4.032,-4.032,-4.032,-4.032,-4.032,-4.1109,-4.1109,-4.1109,-4.1109,-4.1109,-4.1109,-4.1114,-4.1117,-4.1099,-4.1104,-4.1111,-4.1111,-4.1132,-4.1172,-4.1191,-4.1191,-4.1191,-4.1191,-4.1191,-4.1191,-4.1191,-4.1191,-4.1191,-4.1191,-4.1191,-4.1191,-4.1191,-4.1191,-4.1191,-4.1191,-4.1191,-4.1191,-4.1191,-4.1191,-4.1191,-4.1191,-4.1191,-4.1191,-4.1191,-4.1191,-4.1191,-4.1191,-4.1191,-4.1191,-4.1191,-4.1191,-4.1191,-4.1191,-4.1191,-4.1191,-4.1191,-4.1191,-4.1191,-4.1191,-4.1191,-4.1191,-4.1191,-4.1191,-4.1191,-4.1191,-4.1191,-4.1191,-4.1191,-4.1094,-4.0961,-4.0848,-4.0732,-4.0636,-4.0549,-4.0496,-4.0496,-4.0496,-4.0496,-4.0496,-4.0496,-4.0496,-4.0496,-4.0496,-4.0496,-4.0496,-4.0496,-4.0496,-4.0496,-4.0496,-4.0496,-4.0496,-4.0496,-4.0496,-4.0496,-4.0496,-4.0496,-4.0496,-4.0496,-4.0496,-4.0496,-4.0496,-4.0489,-4.0489,-4.0496,-4.0496,-4.0496,-4.0496,-4.0476,-4.0413,-4.0353,-4.0336,-4.0319,-4.031,-4.032,-4.032,-4.032,-4.032,-4.032,-4.032,-4.032,-4.1109,-4.1109,-4.1109,-4.1111,-4.1114,-4.1114,-4.11,-4.1106,-4.1107,-4.1129,-4.1151,-4.1171,-4.1172,-4.1191,-4.1191,-4.1191,-4.1191,-4.1191,-4.1191,-4.1191,-4.1191,-4.1191,-4.1191,-4.1191,-4.1191,-4.1191,-4.1191,-4.1191,-4.1191,-4.1191,-4.1191,-4.1191,-4.1191,-4.1191,-4.1191,-4.1191,-4.1191,-4.1191,-4.1191,-4.1191,-4.1191,-4.1191,-4.1191,-4.1191,-4.1191,-4.1191,-4.1191,-4.1191,-4.1191,-4.1191,-4.1191,-4.1191,-4.1191,-4.1189,-4.1169,-4.1191,-4.1191,-4.1191,-4.1191,-4.1191,-4.1191,-4.1191,-4.1149,-4.1044,-4.0929,-4.0814,-4.0682,-4.0588,-4.0531,-4.0496,-4.0496,-4.0496,-4.0496,-4.0496,-4.0496,-4.0496,-4.0496,-4.0496,-4.0496,-4.0496,-4.0496,-4.0496,-4.0496,-4.0496,-4.0496,-4.0496,-4.0496,-4.0496,-4.0496,-4.0496,-4.0496,-4.0496,-4.0496,-4.0496,-4.0496,-4.0496,-4.0496,-4.0496,-4.0496,-4.0496,-4.05,-4.05,-4.0452,-4.0405,-4.0362,-4.0326,-4.0319,-4.032,-4.032,-4.032,-4.032,-4.032,-4.032,-4.032,-4.032,-4.1109,-4.1109,-4.1111,-4.1114,-4.1117,-4.11,-4.1105,-4.1111,-4.1111,-4.1132,-4.1191,-4.1191,-4.1191,-4.1191,-4.1191,-4.1191,-4.1191,-4.1191,-4.1191,-4.1191,-4.1191,-4.1191,-4.1191,-4.1191,-4.1191,-4.1191,-4.1191,-4.1191,-4.1191,-4.1191,-4.1191,-4.1191,-4.1191,-4.1191,-4.1191,-4.1191,-4.1191,-4.1191,-4.1191,-4.1191,-4.1191,-4.1191,-4.1191,-4.1191,-4.1191,-4.1191,-4.1191,-4.1191,-4.1191,-4.1191,-4.1191,-4.1191,-4.1191,-4.1142,-4.1141,-4.1171,-4.1191,-4.119,-4.1191,-4.1191,-4.1191,-4.1169,-4.1074,-4.0972,-4.0852,-4.0715,-4.0616,-4.0527,-4.0496,-4.0496,-4.0496,-4.0496,-4.0496,-4.0496,-4.0496,-4.0496,-4.0496,-4.0496,-4.0496,-4.0496,-4.0496,-4.0496,-4.0496,-4.0496,-4.0496,-4.0496,-4.0496,-4.0496,-4.0496,-4.0496,-4.0496,-4.0496,-4.0496,-4.0496,-4.0496,-4.0496,-4.0496,-4.0496,-4.0496,-4.0496,-4.05,-4.0503,-4.0447,-4.0415,-4.037,-4.0326,-4.0319,-4.032,-4.032,-4.032,-4.032,-4.032,-4.032,-4.032,-4.032,-4.1109,-4.1109,-4.1115,-4.1117,-4.11,-4.1104,-4.1108,-4.1111,-4.1112,-4.1132,-4.1191,-4.1191,-4.1191,-4.1191,-4.1191,-4.1191,-4.1191,-4.1191,-4.1191,-4.1191,-4.1191,-4.1191,-4.1191,-4.1191,-4.1191,-4.1191,-4.1191,-4.1191,-4.1191,-4.1191,-4.1191,-4.1191,-4.1191,-4.1191,-4.1191,-4.1191,-4.1191,-4.1191,-4.1191,-4.1191,-4.1191,-4.1191,-4.1191,-4.1191,-4.1191,-4.1191,-4.1191,-4.1191,-4.1191,-4.1191,-4.1191,-4.1191,-4.1191,-4.1142,-4.1144,-4.1149,-4.1147,-4.1115,-4.112,-4.1168,-4.1168,-4.1117,-4.1035,-4.0893,-4.0752,-4.0617,-4.0542,-4.0512,-4.0496,-4.0496,-4.0496,-4.0496,-4.0496,-4.0496,-4.0496,-4.0496,-4.0496,-4.0496,-4.0496,-4.0496,-4.0496,-4.0496,-4.0496,-4.0496,-4.0496,-4.0496,-4.0496,-4.0496,-4.0496,-4.0496,-4.0496,-4.0496,-4.0496,-4.0496,-4.0496,-4.0496,-4.0496,-4.0496,-4.0496,-4.0496,-4.05,-4.0495,-4.0466,-4.0424,-4.037,-4.0345,-4.0329,-4.032,-4.032,-4.032,-4.032,-4.032,-4.032,-4.032,-4.032,-4.1111,-4.1115,-4.1117,-4.1102,-4.1107,-4.1109,-4.1131,-4.1152,-4.1152,-4.1172,-4.1191,-4.1191,-4.1191,-4.1191,-4.1191,-4.1191,-4.1191,-4.1191,-4.1191,-4.1191,-4.1191,-4.1191,-4.1191,-4.1191,-4.1191,-4.1191,-4.1191,-4.1191,-4.1191,-4.1191,-4.1191,-4.1191,-4.1191,-4.1191,-4.1191,-4.1191,-4.1191,-4.1191,-4.1191,-4.1191,-4.1191,-4.1191,-4.1191,-4.1191,-4.1191,-4.1191,-4.1191,-4.1191,-4.1191,-4.1191,-4.1191,-4.1191,-4.1191,-4.1144,-4.1116,-4.112,-4.1078,-4.1068,-4.1088,-4.112,-4.1109,-4.1035,-4.0948,-4.0815,-4.0655,-4.0559,-4.0496,-4.0496,-4.0496,-4.0496,-4.0496,-4.0496,-4.0496,-4.0496,-4.0496,-4.0496,-4.0496,-4.0496,-4.0496,-4.0496,-4.0496,-4.0496,-4.0496,-4.0496,-4.0496,-4.0496,-4.0496,-4.0496,-4.0496,-4.0496,-4.0496,-4.0496,-4.0496,-4.0496,-4.0496,-4.0496,-4.0496,-4.0496,-4.0496,-4.0489,-4.05,-4.0476,-4.0466,-4.0415,-4.0362,-4.0327,-4.032,-4.032,-4.032,-4.032,-4.032,-4.032,-4.032,-4.032,-4.032,-4.1115,-4.1101,-4.1101,-4.1106,-4.1111,-4.1112,-4.1152,-4.1191,-4.1191,-4.1191,-4.1191,-4.1191,-4.1191,-4.1191,-4.1191,-4.1191,-4.1191,-4.1191,-4.1191,-4.1191,-4.1191,-4.1191,-4.1191,-4.1191,-4.1191,-4.1191,-4.1191,-4.1191,-4.1191,-4.1191,-4.1191,-4.1191,-4.1191,-4.1191,-4.1191,-4.1191,-4.1191,-4.1191,-4.1191,-4.1191,-4.1191,-4.1191,-4.1191,-4.1191,-4.1191,-4.1191,-4.1191,-4.1191,-4.1191,-4.1191,-4.1191,-4.1191,-4.1191,-4.1143,-4.1111,-4.1087,-4.1054,-4.1006,-4.1028,-4.1037,-4.1044,-4.0963,-4.0844,-4.0692,-4.06,-4.0531,-4.0496,-4.0496,-4.0496,-4.0496,-4.0496,-4.0496,-4.0496,-4.0496,-4.0496,-4.0496,-4.0496,-4.0496,-4.0496,-4.0496,-4.0496,-4.0496,-4.0496,-4.0496,-4.0496,-4.0496,-4.0496,-4.0496,-4.0496,-4.0496,-4.0496,-4.0496,-4.0496,-4.0496,-4.0496,-4.0496,-4.0496,-4.0496,-4.0496,-4.0489,-4.0508,-4.0495,-4.0466,-4.0415,-4.0353,-4.0327,-4.031,-4.031,-4.032,-4.032,-4.032,-4.032,-4.032,-4.032,-4.032,-4.1102,-4.1107,-4.1107,-4.1109,-4.1112,-4.1172,-4.1191,-4.1191,-4.1191,-4.1191,-4.1191,-4.1191,-4.1191,-4.1191,-4.1191,-4.1191,-4.1191,-4.1191,-4.1191,-4.1191,-4.1191,-4.1191,-4.1191,-4.1191,-4.1191,-4.1191,-4.1191,-4.1191,-4.1191,-4.1191,-4.1191,-4.1191,-4.1191,-4.1191,-4.1191,-4.1191,-4.1191,-4.1191,-4.1191,-4.1191,-4.1191,-4.1191,-4.1191,-4.1191,-4.1191,-4.1191,-4.1191,-4.1191,-4.1191,-4.1191,-4.1191,-4.1191,-4.1172,-4.1141,-4.1109,-4.1072,-4.1011,-4.097,-4.0956,-4.097,-4.0976,-4.0873,-4.0729,-4.0596,-4.0554,-4.0523,-4.0496,-4.0496,-4.0496,-4.0496,-4.0496,-4.0496,-4.0496,-4.0496,-4.0496,-4.0496,-4.0496,-4.0496,-4.0496,-4.0496,-4.0496,-4.0496,-4.0496,-4.0496,-4.0496,-4.0496,-4.0496,-4.0496,-4.0496,-4.0496,-4.0496,-4.0496,-4.0496,-4.0496,-4.0496,-4.0496,-4.0496,-4.0496,-4.0496,-4.0496,-4.0489,-4.0487,-4.0449,-4.0415,-4.0363,-4.0337,-4.032,-4.031,-4.032,-4.032,-4.032,-4.032,-4.032,-4.032,-4.032,-4.1105,-4.1108,-4.1109,-4.1112,-4.1172,-4.1191,-4.1191,-4.1191,-4.1191,-4.1191,-4.1191,-4.1191,-4.1191,-4.1191,-4.1191,-4.1191,-4.1191,-4.1191,-4.1191,-4.1191,-4.1191,-4.1191,-4.1191,-4.1191,-4.1191,-4.1191,-4.1191,-4.1191,-4.1191,-4.1191,-4.1191,-4.1191,-4.1191,-4.1191,-4.1191,-4.1191,-4.1191,-4.1191,-4.1191,-4.1191,-4.1191,-4.1191,-4.1191,-4.1191,-4.1191,-4.1191,-4.1191,-4.1191,-4.1191,-4.1191,-4.1191,-4.1172,-4.1144,-4.1112,-4.1076,-4.105,-4.099,-4.0932,-4.0917,-4.093,-4.0888,-4.0779,-4.0668,-4.0586,-4.0546,-4.0531,-4.0496,-4.0496,-4.0496,-4.0496,-4.0496,-4.0496,-4.0496,-4.0496,-4.0496,-4.0496,-4.0496,-4.0496,-4.0496,-4.0496,-4.0496,-4.0496,-4.0496,-4.0496,-4.0496,-4.0496,-4.0496,-4.0496,-4.0496,-4.0496,-4.0496,-4.0496,-4.0496,-4.0496,-4.0496,-4.0496,-4.0496,-4.0496,-4.0496,-4.0496,-4.0489,-4.0455,-4.0415,-4.0389,-4.0373,-4.0328,-4.031,-4.031,-4.032,-4.032,-4.032,-4.032,-4.032,-4.032,-4.032,-4.1108,-4.1109,-4.1111,-4.1152,-4.1191,-4.1191,-4.1191,-4.1191,-4.1191,-4.1191,-4.1191,-4.1191,-4.1191,-4.1191,-4.1191,-4.1191,-4.1191,-4.1191,-4.1191,-4.1191,-4.1191,-4.1191,-4.1191,-4.1191,-4.1191,-4.1191,-4.1191,-4.1191,-4.1191,-4.1191,-4.1191,-4.1191,-4.1191,-4.1191,-4.1191,-4.1191,-4.1191,-4.1191,-4.1191,-4.1191,-4.1191,-4.1191,-4.1191,-4.1191,-4.1191,-4.1191,-4.1191,-4.1191,-4.1172,-4.1172,-4.1172,-4.1113,-4.1087,-4.1066,-4.1025,-4.099,-4.0932,-4.0898,-4.0888,-4.0867,-4.0804,-4.0701,-4.0641,-4.0605,-4.0561,-4.0531,-4.0496,-4.0496,-4.0496,-4.0496,-4.0496,-4.0496,-4.0496,-4.0496,-4.0496,-4.0496,-4.0496,-4.0496,-4.0496,-4.0496,-4.0496,-4.0496,-4.0496,-4.0496,-4.0496,-4.0496,-4.0496,-4.0496,-4.0496,-4.0496,-4.0496,-4.0496,-4.0496,-4.0496,-4.0496,-4.0496,-4.0496,-4.0496,-4.0496,-4.0496,-4.0492,-4.0438,-4.0415,-4.0398,-4.0373,-4.0338,-4.031,-4.032,-4.032,-4.032,-4.032,-4.032,-4.032,-4.032,-4.032,-4.1111,-4.1112,-4.1172,-4.1191,-4.1191,-4.1191,-4.1191,-4.1191,-4.1191,-4.1191,-4.1191,-4.1191,-4.1191,-4.1191,-4.1191,-4.1191,-4.1191,-4.1191,-4.1191,-4.1191,-4.1191,-4.1191,-4.1191,-4.1191,-4.1191,-4.1191,-4.1191,-4.1191,-4.1191,-4.1191,-4.1191,-4.1191,-4.1191,-4.1191,-4.1191,-4.1191,-4.1191,-4.1191,-4.1191,-4.1191,-4.1191,-4.1191,-4.1191,-4.1191,-4.1191,-4.1191,-4.1191,-4.1191,-4.1169,-4.1114,-4.1136,-4.1078,-4.1006,-4.1016,-4.0979,-4.0917,-4.0903,-4.0872,-4.0808,-4.0809,-4.0733,-4.0635,-4.0614,-4.0586,-4.0519,-4.0496,-4.0496,-4.0496,-4.0496,-4.0496,-4.0496,-4.0496,-4.0496,-4.0496,-4.0496,-4.0496,-4.0496,-4.0496,-4.0496,-4.0496,-4.0496,-4.0496,-4.0496,-4.0496,-4.0496,-4.0496,-4.0496,-4.0496,-4.0496,-4.0496,-4.0496,-4.0496,-4.0496,-4.0496,-4.0496,-4.0496,-4.0496,-4.0496,-4.0508,-4.05,-4.0476,-4.0447,-4.0432,-4.0407,-4.0373,-4.0329,-4.031,-4.032,-4.032,-4.032,-4.032,-4.032,-4.032,-4.032,-4.032,-4.1132,-4.1112,-4.1172,-4.1191,-4.1191,-4.1191,-4.1191,-4.1191,-4.1191,-4.1191,-4.1191,-4.1191,-4.1191,-4.1191,-4.1191,-4.1191,-4.1191,-4.1191,-4.1191,-4.1191,-4.1191,-4.1191,-4.1191,-4.1191,-4.1191,-4.1191,-4.1191,-4.1191,-4.1191,-4.1191,-4.1191,-4.1191,-4.1191,-4.1191,-4.1191,-4.1191,-4.1191,-4.1191,-4.1191,-4.1191,-4.1191,-4.1191,-4.1191,-4.1191,-4.1191,-4.1172,-4.1143,-4.1168,-4.114,-4.1061,-4.1064,-4.1047,-4.0964,-4.0937,-4.0912,-4.0851,-4.0843,-4.0825,-4.0803,-4.079,-4.0726,-4.0641,-4.0588,-4.0559,-4.0512,-4.0496,-4.0496,-4.0496,-4.0496,-4.0496,-4.0496,-4.0496,-4.0496,-4.0496,-4.0496,-4.0496,-4.0496,-4.0496,-4.0496,-4.0496,-4.0496,-4.0496,-4.0496,-4.0496,-4.0496,-4.0496,-4.0496,-4.0496,-4.0496,-4.0496,-4.0496,-4.0496,-4.0496,-4.0496,-4.0496,-4.0496,-4.0496,-4.0496,-4.0492,-4.0499,-4.0474,-4.0438,-4.0396,-4.0353,-4.0327,-4.031,-4.031,-4.032,-4.032,-4.032,-4.032,-4.032,-4.032,-4.032,-4.032,-4.1172,-4.1152,-4.1191,-4.1191,-4.1191,-4.1191,-4.1191,-4.1191,-4.1191,-4.1191,-4.1191,-4.1191,-4.1191,-4.1191,-4.1191,-4.1191,-4.1191,-4.1191,-4.1191,-4.1191,-4.1191,-4.1191,-4.1191,-4.1191,-4.1191,-4.1191,-4.1191,-4.1191,-4.1191,-4.1191,-4.1191,-4.1191,-4.1191,-4.1191,-4.1191,-4.1191,-4.1191,-4.1191,-4.1191,-4.1191,-4.1191,-4.1191,-4.1191,-4.1191,-4.1172,-4.1133,-4.1106,-4.108,-4.1099,-4.1006,-4.0981,-4.0993,-4.0912,-4.0862,-4.0854,-4.0815,-4.0797,-4.0797,-4.0797,-4.0797,-4.072,-4.0621,-4.0595,-4.0552,-4.0519,-4.0496,-4.0496,-4.0496,-4.0496,-4.0496,-4.0496,-4.0496,-4.0496,-4.0496,-4.0496,-4.0496,-4.0496,-4.0496,-4.0496,-4.0496,-4.0496,-4.0496,-4.0496,-4.0496,-4.0496,-4.0496,-4.0496,-4.0496,-4.0496,-4.0496,-4.0496,-4.0496,-4.0496,-4.0496,-4.0496,-4.0496,-4.0496,-4.0496,-4.0503,-4.0502,-4.0458,-4.0413,-4.0362,-4.0317,-4.0309,-4.032,-4.031,-4.032,-4.032,-4.032,-4.032,-4.032,-4.032,-4.032,-4.032,-4.1191,-4.1191,-4.1191,-4.1191,-4.1191,-4.1191,-4.1191,-4.1191,-4.1191,-4.1191,-4.1191,-4.1191,-4.1191,-4.1191,-4.1191,-4.1191,-4.1191,-4.1191,-4.1191,-4.1191,-4.1191,-4.1191,-4.1191,-4.1191,-4.1191,-4.1191,-4.1191,-4.1191,-4.1191,-4.1191,-4.1191,-4.1191,-4.1191,-4.1191,-4.1191,-4.1191,-4.1191,-4.1191,-4.1191,-4.1191,-4.1191,-4.1172,-4.1145,-4.1116,-4.1104,-4.1064,-4.1017,-4.1006,-4.0963,-4.0932,-4.0897,-4.0872,-4.0825,-4.0797,-4.0797,-4.0797,-4.0797,-4.0797,-4.0797,-4.0797,-4.0739,-4.0628,-4.0595,-4.0545,-4.0527,-4.0496,-4.0496,-4.0496,-4.0496,-4.0496,-4.0496,-4.0496,-4.0496,-4.0496,-4.0496,-4.0496,-4.0496,-4.0496,-4.0496,-4.0496,-4.0496,-4.0496,-4.0496,-4.0496,-4.0496,-4.0496,-4.0496,-4.0496,-4.0496,-4.0496,-4.0496,-4.0496,-4.0496,-4.0496,-4.0496,-4.0496,-4.0496,-4.0496,-4.0495,-4.0502,-4.0449,-4.0388,-4.0344,-4.0318,-4.031,-4.031,-4.032,-4.032,-4.032,-4.032,-4.032,-4.032,-4.032,-4.032,-4.032,-4.1191,-4.1191,-4.1191,-4.1191,-4.1191,-4.1191,-4.1191,-4.1191,-4.1191,-4.1191,-4.1191,-4.1191,-4.1191,-4.1191,-4.1191,-4.1191,-4.1191,-4.1191,-4.1191,-4.1191,-4.1191,-4.1191,-4.1191,-4.1191,-4.1191,-4.1191,-4.1191,-4.1191,-4.1191,-4.1191,-4.1191,-4.1191,-4.1191,-4.1191,-4.1191,-4.1191,-4.1191,-4.1191,-4.1191,-4.1172,-4.1147,-4.1145,-4.1088,-4.1064,-4.1028,-4.099,-4.0957,-4.096,-4.0928,-4.0837,-4.0878,-4.0872,-4.0809,-4.0797,-4.0797,-4.0797,-4.0797,-4.0797,-4.0797,-4.0797,-4.0746,-4.0628,-4.0595,-4.0571,-4.0527,-4.0496,-4.0496,-4.0496,-4.0496,-4.0496,-4.0496,-4.0496,-4.0496,-4.0496,-4.0496,-4.0496,-4.0496,-4.0496,-4.0496,-4.0496,-4.0496,-4.0496,-4.0496,-4.0496,-4.0496,-4.0496,-4.0496,-4.0496,-4.0496,-4.0496,-4.0496,-4.0496,-4.0496,-4.0496,-4.0496,-4.0496,-4.0496,-4.0508,-4.0487,-4.0466,-4.0424,-4.037,-4.0336,-4.0309,-4.032,-4.031,-4.032,-4.032,-4.032,-4.032,-4.032,-4.032,-4.032,-4.032,-4.032,-4.1191,-4.1191,-4.1191,-4.1191,-4.1191,-4.1191,-4.1191,-4.1191,-4.1191,-4.1191,-4.1191,-4.1191,-4.1191,-4.1191,-4.1191,-4.1191,-4.1191,-4.1191,-4.1191,-4.1191,-4.1191,-4.1191,-4.1191,-4.1191,-4.1191,-4.1191,-4.1191,-4.1191,-4.1191,-4.1191,-4.1191,-4.1191,-4.1191,-4.1191,-4.1191,-4.1191,-4.1191,-4.1191,-4.1191,-4.1172,-4.1147,-4.1121,-4.108,-4.1009,-4.0994,-4.0937,-4.0883,-4.0915,-4.0863,-4.0802,-4.0851,-4.0834,-4.0797,-4.0797,-4.0797,-4.0797,-4.0797,-4.0797,-4.0797,-4.0797,-4.0713,-4.0635,-4.0588,-4.0571,-4.0527,-4.0496,-4.0496,-4.0496,-4.0496,-4.0496,-4.0496,-4.0496,-4.0496,-4.0496,-4.0496,-4.0496,-4.0496,-4.0496,-4.0496,-4.0496,-4.0496,-4.0496,-4.0496,-4.0496,-4.0496,-4.0496,-4.0496,-4.0496,-4.0496,-4.0496,-4.0496,-4.0496,-4.0496,-4.0496,-4.0496,-4.0496,-4.0496,-4.0492,-4.0455,-4.0441,-4.0388,-4.0354,-4.0328,-4.032,-4.031,-4.032,-4.032,-4.032,-4.032,-4.032,-4.032,-4.032,-4.032,-4.032,-4.032,-4.1191,-4.1191,-4.1191,-4.1191,-4.1191,-4.1191,-4.1191,-4.1191,-4.1191,-4.1191,-4.1191,-4.1191,-4.1191,-4.1191,-4.1191,-4.1191,-4.1191,-4.1191,-4.1191,-4.1191,-4.1191,-4.1191,-4.1191,-4.1191,-4.1191,-4.1191,-4.1191,-4.1191,-4.1191,-4.1191,-4.1191,-4.1191,-4.1191,-4.1191,-4.1191,-4.1191,-4.1191,-4.1191,-4.1191,-4.1191,-4.1171,-4.1169,-4.1141,-4.1014,-4.0977,-4.0937,-4.0867,-4.082,-4.0815,-4.0827,-4.0803,-4.0809,-4.0797,-4.0797,-4.0797,-4.0797,-4.0797,-4.0797,-4.0797,-4.0797,-4.072,-4.0641,-4.0588,-4.0571,-4.0527,-4.0496,-4.0496,-4.0496,-4.0496,-4.0496,-4.0496,-4.0496,-4.0496,-4.0496,-4.0496,-4.0496,-4.0496,-4.0496,-4.0496,-4.0496,-4.0496,-4.0496,-4.0496,-4.0496,-4.0496,-4.0496,-4.0496,-4.0496,-4.0496,-4.0496,-4.0496,-4.0496,-4.0496,-4.0496,-4.0496,-4.0496,-4.0496,-4.0484,-4.0447,-4.0432,-4.0388,-4.0364,-4.031,-4.032,-4.032,-4.032,-4.032,-4.032,-4.032,-4.032,-4.032,-4.032,-4.032,-4.032,-4.032,-4.1191,-4.1191,-4.1191,-4.1191,-4.1191,-4.1191,-4.1191,-4.1191,-4.1191,-4.1191,-4.1191,-4.1191,-4.1191,-4.1191,-4.1191,-4.1191,-4.1191,-4.1191,-4.1191,-4.1191,-4.1191,-4.1191,-4.1191,-4.1191,-4.1191,-4.1191,-4.1191,-4.1191,-4.1191,-4.1191,-4.1191,-4.1191,-4.1191,-4.1191,-4.1191,-4.1191,-4.1191,-4.1191,-4.1191,-4.1172,-4.1146,-4.1117,-4.1078,-4.1014,-4.1003,-4.1003,-4.0928,-4.0883,-4.0911,-4.0932,-4.0854,-4.0815,-4.0797,-4.0797,-4.0797,-4.0797,-4.0797,-4.0797,-4.0797,-4.079,-4.0739,-4.0641,-4.0581,-4.0537,-4.0527,-4.0504,-4.0496,-4.0496,-4.0496,-4.0496,-4.0496,-4.0496,-4.0496,-4.0496,-4.0496,-4.0496,-4.0496,-4.0496,-4.0496,-4.0496,-4.0496,-4.0496,-4.0496,-4.0496,-4.0496,-4.0496,-4.0496,-4.0496,-4.0496,-4.0496,-4.0496,-4.0496,-4.0496,-4.0496,-4.0496,-4.0496,-4.0496,-4.0492,-4.0491,-4.0449,-4.0407,-4.0355,-4.032,-4.032,-4.032,-4.032,-4.032,-4.032,-4.032,-4.032,-4.032,-4.032,-4.032,-4.032,-4.032,-4.1191,-4.1191,-4.1191,-4.1191,-4.1191,-4.1191,-4.1191,-4.1191,-4.1191,-4.1191,-4.1191,-4.1191,-4.1191,-4.1191,-4.1191,-4.1191,-4.1191,-4.1191,-4.1191,-4.1191,-4.1191,-4.1191,-4.1191,-4.1191,-4.1191,-4.1191,-4.1191,-4.1191,-4.1191,-4.1191,-4.1191,-4.1191,-4.1191,-4.1191,-4.1191,-4.1191,-4.1191,-4.1191,-4.1191,-4.1172,-4.1133,-4.1133,-4.1113,-4.1068,-4.1052,-4.1044,-4.0987,-4.0949,-4.0963,-4.0976,-4.0903,-4.0862,-4.0829,-4.0827,-4.0803,-4.0797,-4.0797,-4.0797,-4.0797,-4.0784,-4.0739,-4.0635,-4.0588,-4.0552,-4.0512,-4.0496,-4.0496,-4.0496,-4.0496,-4.0496,-4.0496,-4.0496,-4.0496,-4.0496,-4.0496,-4.0496,-4.0496,-4.0496,-4.0496,-4.0496,-4.0496,-4.0496,-4.0496,-4.0496,-4.0496,-4.0496,-4.0496,-4.0496,-4.0496,-4.0496,-4.0496,-4.0496,-4.0496,-4.0496,-4.0496,-4.0496,-4.0496,-4.0492,-4.0499,-4.0424,-4.0354,-4.0347,-4.032,-4.032,-4.032,-4.032,-4.032,-4.032,-4.032,-4.032,-4.032,-4.032,-4.032,-4.032,-4.032,-4.1191,-4.1191,-4.1191,-4.1191,-4.1191,-4.1191,-4.1191,-4.1191,-4.1191,-4.1191,-4.1191,-4.1191,-4.1191,-4.1191,-4.1191,-4.1191,-4.1191,-4.1191,-4.1191,-4.1191,-4.1191,-4.1191,-4.1191,-4.1191,-4.1191,-4.1191,-4.1191,-4.1191,-4.1191,-4.1191,-4.1191,-4.1191,-4.1191,-4.1191,-4.1191,-4.1191,-4.1191,-4.1191,-4.1191,-4.1191,-4.1191,-4.1191,-4.1172,-4.1139,-4.1112,-4.1078,-4.1033,-4.1009,-4.1009,-4.0987,-4.0953,-4.0906,-4.0858,-4.0837,-4.0809,-4.0797,-4.0797,-4.0797,-4.0797,-4.079,-4.0713,-4.0635,-4.0602,-4.0559,-4.0519,-4.0496,-4.0496,-4.0496,-4.0496,-4.0496,-4.0496,-4.0496,-4.0496,-4.0496,-4.0496,-4.0496,-4.0496,-4.0496,-4.0496,-4.0496,-4.0496,-4.0496,-4.0496,-4.0496,-4.0496,-4.0496,-4.0496,-4.0496,-4.0496,-4.0496,-4.0496,-4.0496,-4.0496,-4.0496,-4.0496,-4.0496,-4.0496,-4.0484,-4.0471,-4.0389,-4.0319,-4.032,-4.032,-4.032,-4.032,-4.032,-4.032,-4.032,-4.032,-4.032,-4.032,-4.032,-4.032,-4.032,-4.032,-4.1191,-4.1191,-4.1191,-4.1191,-4.1191,-4.1191,-4.1191,-4.1191,-4.1191,-4.1191,-4.1191,-4.1191,-4.1191,-4.1191,-4.1191,-4.1191,-4.1191,-4.1191,-4.1191,-4.1191,-4.1191,-4.1191,-4.1191,-4.1191,-4.1191,-4.1191,-4.1191,-4.1191,-4.1191,-4.1191,-4.1191,-4.1191,-4.1191,-4.1191,-4.1191,-4.1191,-4.1191,-4.1191,-4.1191,-4.1191,-4.1191,-4.1191,-4.1191,-4.119,-4.119,-4.1189,-4.1166,-4.1111,-4.1137,-4.1112,-4.1028,-4.0945,-4.0878,-4.0834,-4.0815,-4.0797,-4.0797,-4.0797,-4.0797,-4.0797,-4.072,-4.0621,-4.0581,-4.0559,-4.0527,-4.0496,-4.0496,-4.0496,-4.0496,-4.0496,-4.0496,-4.0496,-4.0496,-4.0496,-4.0496,-4.0496,-4.0496,-4.0496,-4.0496,-4.0496,-4.0496,-4.0496,-4.0496,-4.0496,-4.0496,-4.0496,-4.0496,-4.0496,-4.0496,-4.0496,-4.0496,-4.0496,-4.0496,-4.0496,-4.0496,-4.0496,-4.0489,-4.0484,-4.0436,-4.037,-4.0337,-4.031,-4.032,-4.032,-4.032,-4.032,-4.032,-4.032,-4.032,-4.032,-4.032,-4.032,-4.032,-4.032,-4.032]},{"header":{"parameterUnit":"m.s-1","parameterCategory":1,"la1":31.0,"la2":29.5877,"lo1":-88.7671,"lo2":-86.6584,"dy":0.0162,"dx":0.0185,"nx":115,"ny":88,"refTime":"2023-08-27T06:00:00:Z","depth":0,"parameterNumber":3,"parameterNumberName":"V-component_of_WINDS"},"data":[0.0,0.0,0.0,0.0,0.0,0.0,0.0,0.0,0.0,0.0,0.0,0.0,0.0,0.0,0.0,0.0,0.0,0.0,0.0,0.0,0.0,0.0,0.0,0.0,0.0,0.0,0.0,0.0,0.0,0.0,0.0,0.0,0.0,0.0,0.0,0.0,0.0,0.0,0.0,0.0,0.0,0.0,0.0,0.0,0.0,0.0,0.0,0.0,0.0,0.0,0.0,0.0,0.0,0.0,0.0,0.0,0.0,0.0,0.0,0.0,0.0,0.0,0.0,0.0,0.0,0.0,0.0,0.0,0.0,0.0,0.0,0.0,0.0,0.0,0.0,0.0,0.0,0.0,0.0,0.0,0.0,0.0,0.0,0.0,0.0,0.0,0.0,0.0,0.0,0.0,0.0,0.0,0.0,0.0,0.0,0.0,0.0,0.0,0.0,0.0,0.0,0.0,0.0,0.0,0.0,0.0,0.0,0.0,0.0,0.0,0.0,0.0,0.0,0.0,0.0,0.0,0.0,0.0,0.0,0.0,0.0,0.0,0.0,0.0,0.0,0.0,0.0,0.0,0.0,0.0,0.0,0.0,0.0,0.0,0.0,0.0,0.0,0.0,0.0,0.0,0.0,0.0,0.0,0.0,0.0,0.0,0.0,0.0,0.0,0.0,0.0,0.0,0.0,0.0,0.0,0.0,0.0,0.0,0.0,0.0,0.0,0.0,0.0,0.0,0.0,0.0,0.0,0.0,0.0,0.0,0.0,0.0,0.0,0.0,0.0,0.0,0.0,0.0,0.0,0.0,0.0,0.0,0.0,0.0,0.0,0.0,0.0,0.0,0.0,0.0,0.0,0.0,0.0,0.0,0.0,0.0,0.0,0.0,0.0,0.0,0.0,0.0,0.0,0.0,0.0,0.0,0.0,0.0,0.0,0.0,0.0,0.0,0.0,0.0,0.0,0.0,0.0,0.0,0.0,0.0,0.0,0.0,0.0,0.0,0.0,0.0,0.0,0.0,0.0,0.0,0.0,0.0,0.0,0.0,0.0,0.0,0.0,0.0,0.0,0.0,0.0,0.0,0.0,0.0,0.0,0.0,0.0,0.0,0.0,0.0,0.0,0.0,0.0,0.0,0.0,0.0,0.0,0.0,0.0,0.0,0.0,0.0,0.0,0.0,0.0,0.0,0.0,0.0,0.0,0.0,0.0,0.0,0.0,0.0,0.0,0.0,0.0,0.0,0.0,0.0,0.0,0.0,0.0,0.0,0.0,0.0,0.0,0.0,0.0,0.0,0.0,0.0,0.0,0.0,0.0,0.0,0.0,0.0,0.0,0.0,0.0,0.0,0.0,0.0,0.0,0.0,0.0,0.0,0.0,0.0,0.0,0.0,0.0,0.0,0.0,0.0,0.0,0.0,0.0,0.0,0.0,0.0,0.0,0.0,0.0,0.0,0.0,0.0,0.0,0.0,0.0,0.0,0.0,0.0,0.0,0.0,0.0,0.0,0.0,0.0,0.0,0.0,0.0,0.0,0.0,0.0,0.0,0.0,0.0,0.0,0.0,0.0,0.0,0.0,0.0,0.0,0.0,0.0,0.0,0.0,0.0,0.0,0.0,0.0,0.0,0.0,0.0,0.0,0.0,0.0,0.0,0.0,0.0,0.0,0.0,0.0,0.0,0.0,0.0,0.0,0.0,0.0,0.0,0.0,0.0,0.0,0.0,0.0,0.0,0.0,0.0,0.0,0.0,0.0,0.0,0.0,0.0,0.0,0.0,0.0,0.0,0.0,0.0,0.0,0.0,0.0,0.0,0.0,0.0,0.0,0.0,0.0,0.0,0.0,0.0,0.0,0.0,0.0,0.0,0.0,0.0,0.0,0.0,0.0,0.0,0.0,0.0,0.0,0.0,0.0,0.0,0.0,0.0,0.0,0.0,0.0,0.0,0.0,0.0,0.0,0.0,0.0,0.0,0.0,0.0,0.0,0.0,0.0,0.0,0.0,0.0,0.0,0.0,0.0,0.0,0.0,0.0,0.0,0.0,0.0,0.0,0.0,0.0,0.0,0.0,0.0,0.0,0.0,0.0,0.0,0.0,0.0,0.0,0.0,0.0,0.0,0.0,0.0,0.0,0.0,0.0,0.0,0.0,0.0,0.0,0.0,0.0,0.0,0.0,0.0,0.0,0.0,0.0,0.0,0.0,0.0,0.0,0.0,0.0,0.0,0.0,0.0,0.0,0.0,0.0,0.0,0.0,0.0,0.0,0.0,0.0,0.0,0.0,0.0,0.0,0.0,0.0,0.0,0.0,0.0,0.0,0.0,0.0,0.0,0.0,0.0,0.0,0.0,0.0,0.0,0.0,0.0,0.0,0.0,0.0,0.0,0.0,0.0,0.0,0.0,0.0,0.0,0.0,0.0,0.0,0.0,0.0,0.0,0.0,0.0,0.0,0.0,0.0,0.0,0.0,0.0,0.0,0.0,0.0,0.0,0.0,0.0,0.0,0.0,0.0,0.0,0.0,0.0,0.0,0.0,0.0,0.0,0.0,0.0,0.0,0.0,0.0,0.0,0.0,0.0,0.0,0.0,0.0,0.0,0.0,0.0,0.0,0.0,0.0,0.0,0.0,0.0,0.0,0.0,0.0,0.0,0.0,0.0,0.0,0.0,0.0,0.0,0.0,0.0,0.0,0.0,0.0,0.0,0.0,0.0,0.0,0.0,0.0,0.0,0.0,0.0,0.0,0.0,0.0,0.0,0.0,0.0,0.0,0.0,0.0,0.0,0.0,0.0,0.0,0.0,0.0,0.0,0.0,0.0,0.0,0.0,0.0,0.0,0.0,0.0,0.0,0.0,0.0,0.0,0.0,0.0,0.0,0.0,0.0,0.0,0.0,0.0,0.0,0.0,0.0,0.0,0.0,0.0,0.0,0.0,0.0,0.0,0.0,0.0,0.0,0.0,0.0,0.0,0.0,0.0,0.0,0.0,0.0,0.0,0.0,0.0,0.0,0.0,0.0,0.0,0.0,0.0,0.0,0.0,0.0,0.0,0.0,0.0,0.0,0.0,0.0,0.0,0.0,0.0,0.0,0.0,0.0,0.0,0.0,0.0,0.0,0.0,0.0,0.0,0.0,0.0,0.0,0.0,0.0,0.0,0.0,0.0,0.0,0.0,0.0,0.0,0.0,0.0,0.0,0.0,0.0,0.0,0.0,0.0,0.0,0.0,0.0,0.0,0.0,0.0,0.0,0.0,0.0,0.0,0.0,0.0,0.0,0.0,0.0,0.0,0.0,0.0,0.0,0.0,0.0,0.0,0.0,0.0,0.0,0.0,0.0,0.0,0.0,0.0,0.0,0.0,0.0,0.0,0.0,0.0,0.0,0.0,0.0,0.0,0.0,0.0,0.0,0.0,0.0,0.0,0.0,0.0,0.0,0.0,0.0,0.0,0.0,0.0,0.0,0.0,0.0,0.0,0.0,0.0,0.0,0.0,0.0,0.0,0.0,0.0,0.0,0.0,0.0,0.0,0.0,0.0,0.0,0.0,0.0,0.0,0.0,0.0,0.0,0.0,0.0,0.0,0.0,0.0,0.0,0.0,0.0,0.0,0.0,0.0,0.0,0.0,0.0,0.0,0.0,0.0,0.0,0.0,0.0,0.0,0.0,0.0,0.0,0.0,0.0,0.0,0.0,0.0,0.0,0.0,0.0,0.0,0.0,0.0,0.0,0.0,0.0,0.0,0.0,0.0,0.0,0.0,0.0,0.0,0.0,0.0,0.0,0.0,0.0,0.0,0.0,0.0,0.0,0.0,0.0,0.0,0.0,0.0,0.0,0.0,0.0,0.0,0.0,0.0,0.0,0.0,0.0,0.0,0.0,0.0,0.0,0.0,0.0,0.0,0.0,0.0,0.0,0.0,0.0,0.0,0.0,0.0,0.0,0.0,0.0,0.0,0.0,0.0,0.0,0.0,0.0,0.0,0.0,0.0,0.0,0.0,0.0,0.0,0.0,0.0,0.0,0.0,0.0,0.0,0.0,0.0,0.0,0.0,0.0,0.0,0.0,0.0,0.0,0.0,0.0,0.0,0.0,0.0,0.0,0.0,0.0,0.0,0.0,0.0,0.0,0.0,0.0,0.0,0.0,0.0,0.0,0.0,0.0,0.0,0.0,0.0,0.0,0.0,0.0,0.0,0.0,0.0,0.0,0.0,0.0,0.0,0.0,0.0,0.0,0.0,0.0,0.0,0.0,0.0,0.0,0.0,0.0,0.0,0.0,0.0,0.0,0.0,0.6815,0.0,0.0,0.0,0.0,0.0,0.0,0.0,0.0,0.0,0.0,0.0,0.0,0.0,0.0,0.0,0.0,0.0,0.0,0.0,0.0,0.0,0.0,0.0,0.0,0.0,0.0,0.0,0.0,0.0,0.0,0.0,0.0,0.0,0.0,0.0,0.0,0.0,0.0,0.0,0.0,0.0,0.0,0.0,0.0,0.0,0.0,0.0,0.0,0.0,0.0,0.0,0.0,0.0,0.0,0.0,0.0,0.0,0.0,0.0,0.0,0.0,0.0,0.0,0.0,0.0,0.0,0.0,0.0,0.0,0.0,0.0,0.0,0.0,0.0,0.0,0.0,0.0,0.0,0.0,0.0,0.0,0.0,0.0,0.0,0.0,0.0,0.0,0.0,0.0,0.0,0.0,0.0,0.0,0.0,0.0,0.0,0.0,0.0,0.0,0.0,0.0,0.0,0.0,0.0,0.0,0.0,0.0,0.0,0.0,0.0,0.4298,0.5069,0.5555,0.6127,0.6896,0.0,0.0,0.0,0.0,0.0,0.0,0.0,0.0,0.0,0.0,0.0,0.0,0.0,0.0,0.0,0.0,0.0,0.0,0.0,0.0,0.0,0.0,0.0,0.0,0.0,0.0,0.0,0.0,0.0,0.0,0.0,0.0,0.0,0.0,0.0,0.0,0.0,0.0,0.0,0.0,0.0,0.0,0.0,0.0,0.0,0.0,0.0,0.0,0.0,0.0,0.0,0.0,0.0,0.0,0.0,0.0,0.0,0.0,0.0,0.0,0.0,0.0,0.0,0.0,0.0,0.0,0.0,0.0,0.0,0.0,0.0,0.0,0.0,0.0,0.0,0.0,0.0,0.0,0.0,0.0,0.0,0.0,0.0,0.0,0.0,0.0,0.0,0.0,0.0,0.0,0.0,0.0,0.0,0.0,0.0,0.0,0.0,0.0,0.0,0.0,0.0,0.0,0.0,0.0,0.0,0.0,0.0,0.0,0.0,0.0,0.0,0.0,0.5371,0.605,0.7139,0.0,0.0,0.0,0.0,0.0,0.0,0.0,0.0,0.0,0.0,0.0,0.0,0.0,0.0,0.0,0.0,0.0,0.0,0.0,0.0,0.0,0.0,0.0,0.0,0.0,0.0,0.0,0.0,0.0,0.0,0.0,0.0,0.0,0.0,0.0,0.0,0.0,0.0,0.0,0.0,0.0,0.0,0.0,0.0,0.0,0.0,0.0,0.0,0.0,0.0,0.0,0.0,0.0,0.0,0.0,0.0,0.0,0.0,0.0,0.0,0.0,0.0,0.0,0.0,0.0,0.0,0.0,0.0,0.0,0.0,0.0,0.0,0.0,0.0,0.0,0.0,0.0,0.0,0.0,0.0,0.0,0.0,0.0,0.0,0.0,0.0,0.0,0.0,0.0,0.0,0.0,0.0,0.0,0.0,0.0,0.0,0.0,0.0,0.0,0.0,0.0,0.0,0.0,0.0,0.0,0.0,0.0,0.0,0.0,0.0,0.4024,0.4901,0.5199,0.0,0.7359,0.0,0.0,0.0,0.0,0.0,0.0,0.0,0.0,0.0,0.0,0.0,0.0,0.0,0.0,0.0,0.0,0.0,0.0,0.0,0.0,0.0,0.0,0.0,0.0,0.0,0.0,0.0,0.0,0.0,0.0,0.0,0.0,0.0,0.0,0.0,0.0,0.0,0.0,0.0,0.0,0.0,0.0,0.0,0.0,0.0,0.0,0.0,0.0,0.0,0.0,0.0,0.0,0.0,0.0,0.0,0.0,0.0,0.0,0.0,0.0,0.0,0.0,0.0,0.0,0.0,0.0,0.0,0.0,0.0,0.0,0.0,0.0,0.0,0.0,0.0,0.0,0.0,0.0,0.0,0.0,0.0,0.0,0.0,0.0,0.0,0.0,0.0,0.0,0.0,0.0,0.0,0.0,0.0,0.0,0.0,0.0,0.0,0.0,0.0,0.0,0.0,0.0,0.0,0.0,0.0,0.0,0.0,0.0,0.0,0.0,0.4377,0.5289,0.5855,0.6426,0.0,0.0,0.0,0.0,0.0,0.0,0.0,0.0,0.0,0.0,0.0,0.0,0.0,0.0,0.0,0.0,0.0,0.0,0.0,0.0,0.0,0.0,0.0,0.0,0.0,0.0,0.0,0.0,0.0,0.0,0.0,0.0,0.0,0.0,0.0,0.0,0.0,0.0,0.0,0.0,0.0,0.0,0.0,0.0,0.0,0.0,0.0,0.0,0.0,0.0,0.0,0.0,0.0,0.0,0.0,0.0,0.0,0.0,0.0,0.0,0.0,0.0,0.0,0.0,0.0,0.0,0.0,0.0,0.0,0.0,0.0,0.0,0.0,0.0,0.0,0.0,0.0,0.0,0.0,0.0,0.0,0.0,0.0,0.0,0.0,0.0,0.0,0.0,0.0,0.0,0.0,0.0,0.0,0.0,0.0,0.0,0.0,0.0,0.0,0.0,0.0,0.0,0.0,0.0,0.0,0.0,0.0,0.0,0.0,0.0,0.4122,0.4649,0.5567,0.6218,0.6598,0.6707,0.0,0.0,0.0,0.0,0.0,0.0,0.0,0.0,0.0,0.0,0.0,0.0,0.0,0.0,0.0,0.0,0.0,0.0,0.0,0.0,0.0,0.0,0.0,0.0,0.0,0.0,0.0,0.0,0.0,0.0,0.0,0.0,0.0,0.0,0.0,0.0,0.0,0.0,0.0,0.0,0.0,0.0,0.0,0.0,0.0,0.0,0.0,0.0,0.0,0.0,0.0,0.0,0.0,0.0,0.0,0.0,0.0,0.0,0.0,0.0,0.0,0.0,0.0,0.0,0.0,0.0,0.0,0.0,0.0,0.0,0.0,0.0,0.0,0.0,0.0,0.0,0.0,0.0,0.0,0.0,0.0,0.0,0.0,0.0,0.0,0.0,0.0,0.0,0.0,0.0,0.0,0.0,0.0,0.0,0.0,0.0,0.0,0.0,0.0,0.0,0.0,0.0,0.0,0.0,0.0,0.0,0.0,0.0,0.3666,0.4018,0.4649,0.5563,0.6009,0.6386,0.0,0.0,0.0,0.0,0.0,0.0,0.0,0.0,0.0,0.0,0.0,0.0,0.0,0.0,0.0,0.0,0.0,0.0,0.0,0.0,0.0,0.0,0.0,0.0,0.0,0.0,0.0,0.0,0.0,0.0,0.0,0.0,0.0,0.0,0.0,0.0,0.0,0.0,0.0,0.0,0.0,0.0,0.0,0.0,0.0,0.0,0.0,0.0,0.0,0.0,0.0,0.0,0.0,0.0,0.0,0.0,0.0,0.0,0.0,0.0,0.0,0.0,0.0,0.0,0.0,0.0,0.0,0.0,0.0,0.0,0.0,0.0,0.0,0.0,0.0,0.0,0.0,0.0,0.0,0.0,0.0,0.0,0.0,0.0,0.0,0.0,0.0,0.0,0.0,0.0,0.0,0.0,0.0,0.0,0.0,0.0,0.0,0.0,0.0,0.0,0.0,0.0,0.0,0.0,0.0,0.0,0.0,0.0,0.0,0.4408,0.4873,0.5234,0.5591,0.5732,0.5868,0.0,0.0,0.0,0.0,0.0,0.0,0.0,0.0,0.0,0.0,0.0,0.0,0.0,0.0,0.0,0.0,0.0,0.0,0.0,0.0,0.0,0.0,0.0,0.0,0.0,0.0,0.0,0.0,0.0,0.0,0.0,0.0,0.0,0.0,0.0,0.0,0.0,0.0,0.0,0.0,0.0,0.0,0.0,0.0,0.0,0.0,0.0,0.0,0.0,0.0,0.0,0.0,0.0,0.0,0.0,0.0,0.0,0.0,0.0,0.0,0.0,0.0,0.0,0.0,0.0,0.0,0.0,0.0,0.0,0.0,0.0,0.0,0.0,0.0,0.0,0.0,0.0,0.0,0.0,0.0,0.0,0.0,0.0,0.0,0.0,0.0,0.0,0.0,0.0,0.0,0.0,0.0,0.0,0.0,0.0,0.0,0.0,0.0,0.0,0.0,0.0,0.0,0.0,0.0,0.0,0.0,0.0,0.0,0.0,0.4649,0.0,0.523,0.0,0.5371,0.5454,0.0,0.0,0.0,0.0,0.0,0.0,0.0,0.0,0.0,0.0,0.0,0.0,0.0,0.0,0.0,0.0,0.0,0.0,0.0,0.0,0.0,0.0,0.0,0.0,0.0,0.0,0.0,0.0,0.0,0.0,0.0,0.0,0.0,0.0,0.0,0.0,0.0,0.0,0.0,0.0,0.0,0.0,0.0,0.0,0.0,0.0,0.0,0.0,0.0,0.0,0.0,0.0,0.0,0.0,0.0,0.0,0.0,0.0,0.0,0.0,0.0,0.0,0.0,0.0,0.0,0.0,0.0,0.0,0.0,0.0,0.0,0.0,0.0,0.0,0.0,0.0,0.0,0.0,0.0,0.0,0.0,0.0,0.0,0.0,0.0,0.0,0.0,0.0,0.0,0.0,0.0,0.0,0.0,0.0,0.0,0.0,0.0,0.0,0.0,0.0,0.0,0.0,0.0,0.0,0.0,0.0,0.0,0.0,0.3802,0.4208,0.4233,0.4481,0.4873,0.4897,0.5093,0.0,0.0,0.0,0.0,0.0,0.0,0.0,0.0,0.0,0.0,0.0,0.0,0.0,0.0,0.0,0.0,0.0,0.0,0.0,0.0,0.0,0.0,0.0,0.0,0.0,0.0,0.0,0.0,0.0,0.0,0.0,0.0,0.0,0.0,0.0,0.0,0.0,0.0,0.0,0.0,0.0,0.0,0.0,0.0,0.0,0.0,0.0,0.0,0.0,0.0,0.0,0.0,0.0,0.0,0.0,0.0,0.0,0.0,0.0,0.0,0.0,0.0,0.0,0.0,0.0,0.0,0.0,0.0,0.0,0.0,0.0,0.0,0.0,0.0,0.0,0.0,0.0,0.0,0.0,0.0,0.0,0.0,0.0,0.0,0.0,0.0,0.0,0.0,0.0,0.0,0.0,0.0,0.0,0.0,0.0,0.0,0.0,0.0,0.0,0.0,0.0,0.0,0.0,0.0,0.0,0.0,0.0,0.0,0.0,0.4205,0.4205,0.4291,0.4398,0.4398,0.4484,0.0,0.0,0.0,0.0,0.0,0.0,0.0,0.0,0.0,0.0,0.0,0.0,0.0,0.0,0.0,0.0,0.0,0.0,0.0,0.0,0.0,0.0,0.0,0.0,0.0,0.0,0.0,0.0,0.0,0.0,0.0,0.0,0.0,0.0,0.0,0.0,0.0,0.0,0.0,0.0,0.0,0.0,0.0,0.0,0.0,0.0,0.0,0.0,0.0,0.0,0.0,0.0,0.0,0.0,0.0,0.0,0.0,0.0,0.0,0.0,0.0,0.0,0.0,0.0,0.0,0.0,0.0,0.0,0.0,0.0,0.0,0.0,0.0,0.0,0.0,0.0,0.0,0.0,0.0,0.0,0.0,0.0,0.0,0.0,0.0,0.0,0.0,0.0,0.0,0.0,0.0,0.0,0.0,0.0,0.0,0.0,0.0,0.0,0.0,0.0,0.0,0.0,0.0,0.0,0.0,0.0,0.0,0.0,0.0,0.3962,0.399,0.399,0.3959,0.399,0.4045,0.4205,0.0,0.0,0.0,0.0,0.0,0.0,0.0,0.0,0.0,0.0,0.0,0.0,0.0,0.0,0.0,0.0,0.0,0.0,0.0,0.0,0.0,0.0,0.0,0.0,0.0,0.0,0.0,0.0,0.0,0.0,0.0,0.0,0.0,0.0,0.0,0.0,0.0,0.0,0.0,0.0,0.0,0.0,0.0,0.0,0.0,0.0,0.0,0.0,0.0,0.0,0.0,0.0,0.0,0.0,0.0,0.0,0.0,0.0,0.0,0.0,0.0,0.0,0.0,0.0,0.0,0.0,0.0,0.0,0.0,0.0,0.0,0.0,0.0,0.0,0.0,0.0,0.0,0.0,0.0,0.0,0.0,0.0,0.0,0.0,0.0,0.0,0.0,0.0,0.0,0.0,0.0,0.0,0.0,0.0,0.0,0.0,0.0,0.0,0.0,0.0,0.0,0.0,0.0,0.0,0.0,0.0,0.0,0.0,0.3613,0.3613,0.3613,0.3613,0.3666,0.3827,0.0,0.0,0.0,0.0,0.0,0.0,0.0,0.0,0.0,0.0,0.0,0.0,0.0,0.0,0.0,0.0,0.0,0.0,0.0,0.0,0.0,0.0,0.0,0.0,0.0,0.0,0.0,0.0,0.0,0.0,0.0,0.0,0.0,0.0,0.0,0.0,0.0,0.0,0.0,0.0,0.0,0.0,0.0,0.0,0.0,0.0,0.0,0.0,0.0,0.0,0.0,0.0,0.0,0.0,0.0,0.0,0.0,0.0,0.0,0.0,0.0,0.0,0.0,0.0,0.0,0.0,0.0,0.0,0.0,0.0,0.0,0.0,0.0,0.0,0.0,0.0,0.0,0.0,0.0,0.0,0.0,0.0,0.0,0.0,0.0,0.0,0.0,0.0,0.0,0.0,0.0,0.0,0.0,0.0,0.0,0.0,0.0,0.0,0.0,0.0,0.0,0.0,0.0,0.0,0.0,0.0,0.0,0.0,0.0,0.3613,0.3613,0.3613,0.3613,0.4132,0.4346,0.0,0.0,0.0,0.0,0.0,0.0,0.0,0.0,0.0,0.0,0.0,0.0,0.0,0.0,0.0,0.0,0.0,0.0,0.0,0.0,0.0,0.0,0.0,0.0,0.0,0.0,0.0,0.0,0.0,0.0,0.0,0.0,0.0,0.0,0.0,0.0,0.0,0.0,0.0,0.0,0.0,0.0,0.0,0.0,0.0,0.0,0.0,0.0,0.0,0.0,0.0,0.0,0.0,0.0,0.0,0.0,0.0,0.0,0.0,0.0,0.0,0.0,0.0,0.0,0.0,0.0,0.0,0.0,0.0,0.0,0.0,0.0,0.0,0.0,0.0,0.0,0.0,0.0,0.0,0.0,0.0,0.0,0.0,0.0,0.0,0.0,0.0,0.0,0.0,0.0,0.0,0.0,0.0,0.0,0.0,0.0,0.0,0.0,0.0,0.0,0.0,0.0,0.0,0.0,0.0,0.0,0.0,0.0,0.3613,0.3613,0.3613,0.3613,0.3613,0.4021,0.4236,0.0,0.0,0.0,0.0,0.0,0.0,0.0,0.0,0.0,0.0,0.0,0.0,0.0,0.0,0.0,0.0,0.0,0.0,0.0,0.0,0.0,0.0,0.0,0.0,0.0,0.0,0.0,0.0,0.0,0.0,0.0,0.0,0.0,0.0,0.0,0.0,0.0,0.0,0.0,0.0,0.0,0.0,0.0,0.0,0.0,0.0,0.0,0.0,0.0,0.0,0.0,0.0,0.0,0.0,0.0,0.0,0.0,0.0,0.0,0.0,0.0,0.0,0.0,0.0,0.0,0.0,0.0,0.0,0.0,0.0,0.0,0.0,0.0,0.0,0.0,0.0,0.0,0.0,0.0,0.0,0.0,0.0,0.0,0.0,0.0,0.0,0.0,0.0,0.0,0.0,0.0,0.0,0.0,0.0,0.0,0.0,0.0,0.0,0.0,0.0,0.0,0.0,0.0,0.0,0.0,0.0,0.0,0.0,0.363,0.3632,0.3641,0.3621,0.3646,0.368,0.391,0.0,0.0,0.0,0.0,0.0,0.0,0.0,0.0,0.0,0.0,0.0,0.0,0.0,0.0,0.0,0.0,0.0,0.0,0.0,0.0,0.0,0.0,0.0,0.0,0.0,0.0,0.0,0.0,0.0,0.0,0.0,0.0,0.0,0.0,0.0,0.0,0.0,0.0,0.0,0.0,0.0,0.0,0.0,0.0,0.0,0.0,0.0,0.0,0.0,0.0,0.0,0.0,0.0,0.0,0.0,0.0,0.0,0.0,0.0,0.0,0.0,0.0,0.0,0.0,0.0,0.0,0.0,0.0,0.0,0.0,0.0,0.0,0.0,0.0,0.0,0.0,0.0,0.0,0.0,0.0,0.0,0.0,0.0,0.0,0.0,0.0,0.0,0.0,0.0,0.0,0.0,0.0,0.0,0.0,0.0,0.0,0.0,0.0,0.0,0.0,0.0,0.0,0.0,0.0,0.0,0.0,0.0,0.0,0.3747,0.3747,0.3811,0.383,0.3827,0.4241,0.4646,0.0,0.0,0.0,0.0,0.0,0.0,0.0,0.0,0.0,0.0,0.0,0.0,0.0,0.0,0.0,0.0,0.0,0.0,0.0,0.0,0.0,0.0,0.0,0.0,0.0,0.0,0.0,0.0,0.0,0.0,0.0,0.0,0.0,0.0,0.0,0.0,0.0,0.0,0.0,0.0,0.0,0.0,0.0,0.0,0.0,0.0,0.0,0.0,0.2914,0.0,0.0,0.0,0.0,0.0,0.0,0.0,0.0,0.0,0.0,0.0,0.0,0.0,0.0,0.0,0.0,0.0,0.0,0.0,0.0,0.0,0.0,0.0,0.0,0.0,0.0,0.0,0.0,0.0,0.0,0.0,0.0,0.0,0.0,0.0,0.0,0.0,0.0,0.0,0.0,0.0,0.0,0.0,0.0,0.0,0.0,0.0,0.0,0.0,0.0,0.0,0.0,0.0,0.0,0.0,0.0,0.0,0.0,0.0,0.3838,0.3841,0.387,0.3903,0.3931,0.416,0.4577,0.0,0.0,0.0,0.0,0.0,0.0,0.0,0.0,0.0,0.0,0.0,0.0,0.0,0.0,0.0,0.0,0.0,0.0,0.0,0.0,0.0,0.0,0.0,0.0,0.0,0.0,0.0,0.0,0.0,0.0,0.0,0.0,0.0,0.0,0.0,0.0,0.0,0.0,0.0,0.0,0.0,0.0,0.0,0.0,0.0,0.0,0.0,0.0,0.0,0.0,0.0,0.0,0.0,0.0,0.0,0.0,0.0,0.0,0.0,0.0,0.0,0.0,0.0,0.0,0.0,0.0,0.0,0.0,0.0,0.0,0.0,0.0,0.0,0.0,0.0,0.0,0.0,0.0,0.0,0.0,0.0,0.0,0.0,0.0,0.0,0.0,0.0,0.0,0.0,0.0,0.0,0.0,0.0,0.0,0.0,0.0,0.0,0.0,0.0,0.0,0.0,0.0,0.0,0.0,0.0,0.0,0.0,0.3952,0.393,0.3932,0.3949,0.3959,0.3959,0.394,0.4215,0.4842,0.0,0.0,0.0,0.0,0.0,0.0,0.0,0.0,0.0,0.0,0.0,0.0,0.0,0.0,0.0,0.0,0.0,0.0,0.0,0.0,0.0,0.0,0.0,0.0,0.0,0.0,0.0,0.0,0.0,0.0,0.0,0.0,0.0,0.0,0.0,0.0,0.0,0.0,0.2225,0.1954,0.0,0.0,0.0,0.0,0.0,0.0,0.0,0.0,0.3188,0.0,0.0,0.0,0.0,0.0,0.0,0.0,0.0,0.0,0.0,0.0,0.0,0.0,0.0,0.0,0.0,0.0,0.0,0.0,0.0,0.0,0.0,0.0,0.0,0.0,0.0,0.0,0.0,0.0,0.0,0.0,0.0,0.0,0.0,0.0,0.0,0.0,0.0,0.0,0.0,0.0,0.0,0.0,0.0,0.0,0.0,0.0,0.0,0.0,0.0,0.0,0.0,0.0,0.0,0.0,0.0,0.4155,0.4099,0.4054,0.4088,0.4189,0.424,0.424,0.414,0.4295,0.484,0.0,0.0,0.0,0.0,0.0,0.0,0.0,0.0,0.0,0.0,0.0,0.0,0.0,0.0,0.0,0.0,0.0,0.0,0.0,0.0,0.0,0.0,0.0,0.0,0.0,0.0,0.0,0.0,0.0,0.0,0.0,0.0,0.0,0.0,0.0,0.0,0.0,0.0,0.0,0.148,0.1679,0.0,0.0,0.0,0.0,0.0,0.0,0.0,0.0,0.2569,0.0,0.0,0.0,0.0,0.0,0.0,0.0,0.0,0.0,0.0,0.0,0.0,0.0,0.0,0.0,0.0,0.0,0.0,0.0,0.0,0.0,0.0,0.0,0.0,0.0,0.0,0.0,0.0,0.0,0.0,0.0,0.0,0.0,0.0,0.0,0.0,0.0,0.0,0.0,0.0,0.0,0.0,0.0,0.0,0.0,0.0,0.0,0.0,0.0,0.0,0.0,0.0,0.0,0.0,0.0,0.4408,0.4281,0.4213,0.4216,0.427,0.4303,0.43,0.4243,0.4405,0.0,0.0,0.0,0.0,0.0,0.0,0.0,0.0,0.0,0.0,0.0,0.0,0.0,0.0,0.0,0.0,0.0,0.0,0.0,0.0,0.0,0.0,0.0,0.0,0.0,0.0,0.0,0.0,0.0,0.0,0.0,0.0,0.0,0.0,0.0,0.0,0.0,0.0,0.0,0.0,0.1233,0.1315,0.1258,0.0,0.0,0.0,0.0,0.0,0.0,0.2097,0.2209,0.0,0.0,0.0,0.0,0.0,0.0,0.0,0.0,0.0,0.0,0.0,0.0,0.0,0.0,0.0,0.0,0.0,0.0,0.0,0.0,0.0,0.0,0.0,0.0,0.0,0.0,0.0,0.0,0.0,0.0,0.0,0.0,0.0,0.0,0.0,0.0,0.0,0.0,0.0,0.0,0.0,0.0,0.0,0.0,0.0,0.0,0.0,0.0,0.0,0.0,0.0,0.0,0.0,0.0,0.0,0.4625,0.4434,0.4303,0.4303,0.4303,0.4303,0.4303,0.4303,0.4467,0.0,0.0,0.0,0.0,0.0,0.0,0.0,0.0,0.0,0.0,0.0,0.0,0.0,0.0,0.0,0.0,0.0,0.0,0.0,0.0,0.0,0.0,0.0,0.0,0.0,0.0,0.0,0.0,0.0,0.0,0.0,0.0,0.0,0.0,0.0,0.0,0.0,0.0,0.0,0.0,0.0,0.0925,0.0811,0.1119,0.0,0.0,0.0,0.0,0.1708,0.1679,0.0,0.0,0.0,0.0,0.0,0.0,0.0,0.0,0.0,0.0,0.0,0.0,0.0,0.0,0.0,0.0,0.0,0.0,0.0,0.0,0.0,0.0,0.0,0.0,0.0,0.0,0.0,0.0,0.0,0.0,0.0,0.0,0.0,0.0,0.0,0.0,0.0,0.0,0.0,0.0,0.0,0.0,0.0,0.0,0.0,0.0,0.0,0.0,0.0,0.0,0.0,0.0,0.0,0.0,0.0,0.0,0.4764,0.4467,0.4303,0.4303,0.4303,0.4303,0.4303,0.4303,0.4467,0.0,0.0,0.0,0.0,0.0,0.0,0.0,0.0,0.0,0.0,0.0,0.0,0.0,0.0,0.0,0.0,0.0,0.0,0.0,0.0,0.0,0.0,0.0,0.0,0.0,0.0,0.0,0.0,0.0,0.0,0.0,0.0,0.0,0.0,0.0,0.0,0.0,0.0,0.0,0.0,0.0,0.0477,0.0449,0.0505,0.0561,0.0,0.0,0.0477,0.0112,0.0252,0.0,0.0,0.0,0.0,0.0,0.0,0.0,0.0,0.0,0.0,0.0,0.0,0.0,0.0,0.0,0.0,0.0,0.0,0.0,0.0,0.0,0.0,0.0,0.0,0.0,0.0,0.0,0.0,0.0,0.0,0.0,0.0,0.0,0.0,0.0,0.0,0.0,0.0,0.0,0.0,0.0,0.0,0.0,0.0,0.0,0.0,0.0,0.0,0.0,0.0,0.0,0.0,0.0,0.0,0.0,0.4794,0.4797,0.4467,0.4303,0.4303,0.4303,0.4303,0.4303,0.4303,0.4467,0.0,0.0,0.0,0.0,0.0,0.0,0.0,0.0,0.0,0.0,0.0,0.0,0.0,0.0,0.0,0.0,0.0,0.0,0.0,0.0,0.0,0.0,0.0,0.0,0.0,0.0,0.0,0.0,0.0,0.0,0.0,0.0,0.0,0.0,0.0,0.0,0.0,0.0,0.0,0.0,0.0,0.0,0.0084,0.0056,0.0,0.0,0.0,0.0084,0.014,0.0,0.0,0.0,0.0,0.0,0.0,0.0,0.0,0.0,0.0,0.0,0.0,0.0,0.0,0.0,0.0,0.0,0.0,0.0,0.0,0.0,0.0,0.0,0.0,0.0,0.0,0.0,0.0,0.0,0.0,0.0,0.0,0.0,0.0,0.0,0.0,0.0,0.0,0.0,0.0,0.0,0.0,0.0,0.0,0.0,0.0,0.0,0.0,0.0,0.0,0.0,0.0,0.0,0.0,0.0,0.0,0.0,0.4561,0.44,0.42,0.403,0.403,0.4131,0.4303,0.4131,0.0,0.0,0.0,0.0,0.0,0.0,0.0,0.0,0.0,0.0,0.0,0.0,0.0,0.0,0.0,0.0,0.0,0.0,0.0,0.0,0.0,0.0,0.0,0.0,0.0,0.0,0.0,0.2488,0.0,0.0,0.0,0.0,0.0,0.0,0.0,0.0,0.0,0.0,0.0,0.0,0.0,0.0,0.0028,-0.028,-0.0308,-0.0336,0.0,0.0,-0.014,0.0056,-0.0168,-0.028,0.0,0.0,0.0,0.0,0.0,0.0,0.0,0.0,0.0,0.0,0.0,0.0,0.0,0.0,0.0,0.0,0.0,0.0,0.0,0.0,0.0,0.0,0.0,0.0,0.0,0.0,0.0,0.0,0.0,0.0,0.0,0.0,0.0,0.0,0.0,0.0,0.0,0.0,0.0,0.0,0.0,0.0,0.0,0.0,0.0,0.0,0.0,0.0,0.0,0.0,0.0,0.0,0.0,0.0,0.0,0.3892,0.4167,0.393,0.3286,0.3284,0.3623,0.4267,0.3658,0.3756,0.0,0.0,0.0,0.0,0.0,0.0,0.0,0.0,0.0,0.0,0.0,0.0,0.0,0.0,0.0,0.0,0.0,0.0,0.0,0.0,0.0,0.0,0.0,0.0,0.0,0.0,0.0,0.0,0.0,0.0,0.0,0.0,0.0,0.0,0.0,0.0,0.0,0.0,0.0,0.0,0.0,-0.0617,-0.0645,-0.0673,-0.0729,0.0,0.0,-0.0336,-0.0757,-0.0814,-0.0841,-0.0813,0.0,0.0,0.0,0.0,0.0,0.0,0.0,0.0,0.0,0.0,0.0,0.0,0.0,0.0,0.0,0.0,0.0,0.0,0.0,0.0,0.0,0.0,0.0,0.0,0.0,0.0,0.0,0.0,0.0,0.0,0.0,0.0,0.0,0.0,0.0,0.0,0.0,0.0,0.0,0.0,0.0,0.0,0.0,0.0,0.0,0.0,0.0,0.0,0.0,0.0,0.0,0.0,0.0,0.4092,0.3907,0.3261,0.2811,0.2538,0.2502,0.2645,0.2928,0.3174,0.3533,0.0,0.0,0.0,0.0,0.0,0.0,0.0,0.0,0.0,0.0,0.0,0.0,0.0,0.0,0.0,0.0,0.0,0.0,0.0,0.0,0.0,0.0,0.0,0.0,0.0,0.0,0.0,0.0,0.0672,0.0532,0.0421,0.0,0.0,0.0,0.0,0.0,0.0,0.0,0.0,0.0,0.0,-0.0951,-0.0951,-0.1203,0.0,0.0,-0.112,-0.0954,-0.1122,-0.0999,-0.0896,-0.0896,-0.0752,0.0,0.0,0.0,0.0,0.0,0.0,0.0,0.0,0.0,0.0,0.0,0.0,0.0,0.0,0.0,0.0,0.0,0.0,0.0,0.0,0.0,0.0,0.0,0.0,0.0,0.0,0.0,0.0,0.0,0.0,0.0,0.0,0.0,0.0,0.0,0.0,0.0,0.0,0.0,0.0,0.0,0.0,0.0,0.0,0.0,0.0,0.0,0.0,0.0,0.0,0.0,0.0,0.3813,0.3661,0.2641,0.2,0.182,0.182,0.1892,0.2073,0.2508,0.2846,0.0,0.0,0.0,0.0,0.0,0.0,0.0,0.0,0.0,0.0,0.0,0.0,0.0,0.0,0.0,0.0,0.0,0.0,0.0,0.0,0.0,0.0,0.0,0.0,0.0,0.0,0.0,0.0,0.0084,0.0028,0.0,0.0,0.0,0.0,0.0,0.0,0.0,0.0,0.0,0.0,0.0,-0.1536,-0.1814,-0.1832,-0.1816,-0.1874,-0.152,-0.1185,-0.1214,-0.1266,-0.1313,-0.1313,0.0,0.0,0.0,0.0,0.0,0.0,0.0,0.0,0.0,0.0,0.0,0.0,0.0,0.0,0.0,0.0,0.0,0.0,0.0,0.0,0.0,0.0,0.0,0.0,0.0,0.0,0.0,0.0,0.0,0.0,0.5301,0.0,0.0,0.0,0.0,0.0,0.0,0.0,0.0,0.0,0.0,0.0,0.0,0.0,0.0,0.0,0.0,0.0,0.0,0.0,0.0,0.0,0.0,0.3625,0.2944,0.2363,0.1747,0.1131,0.1093,0.1423,0.2004,0.1494,0.1565,0.2432,0.0,0.0,0.0,0.0,0.0,0.0,0.0,0.0,0.0,0.0,0.0,0.0,0.0,0.0,0.0,0.0,0.0,0.0,0.0,0.0,0.0,0.0,0.0,0.0,0.0,0.0,-0.0813,-0.0841,-0.0841,0.0,0.0,0.0,0.0,0.0,0.0,0.0,0.0,0.0,0.0,-0.2181,-0.2519,-0.338,-0.2556,-0.1937,-0.2115,-0.1508,-0.1047,-0.1077,-0.1721,-0.2273,0.0,0.0,0.0,0.0,0.0,0.0,0.0,0.0,0.0,0.0,0.0,0.0,0.0,0.0,0.0,0.0,0.0,0.0,0.0,0.0,0.0,0.0,0.0,0.0,0.0,0.0,0.0,0.4398,0.3993,0.0,0.0,0.0,0.0,0.0,0.0,0.0,0.0,0.0,0.0,0.0,0.2981,0.2579,0.0,0.0,0.0,0.0,0.0,0.0,0.0,0.0,0.0,0.0,0.0,0.0,0.3137,0.2779,0.143,0.0603,0.0383,0.0383,0.046,0.0689,0.1034,0.1682,0.2633,0.0,0.0,0.0,0.0,0.0,0.0,0.0,0.0,0.0,0.0,0.0,0.0,0.0,0.0,0.0,0.0,0.0,0.0,0.0,0.0,0.0,0.0,0.0,0.0,0.0,-0.0533,0.0,0.0,0.0,0.0,0.0,0.0,0.0,0.0,0.0,0.0,0.0,-0.2571,-0.3086,-0.3406,-0.3693,-0.4015,-0.3722,-0.3475,0.0,0.0,0.0,0.0,0.0,0.0,0.0,0.0,0.0,0.0,0.0,0.0,0.0,0.0,-0.4123,-0.2886,-0.2476,-0.231,-0.228,0.0,0.0,0.0,0.0,0.0,0.0,0.0,0.0,0.0,0.0,0.0,0.0,0.0,0.0,0.3691,0.0,0.3301,0.0,0.0,0.0,0.0,0.0,0.0,0.0,0.0,0.2031,0.1897,0.2321,0.193,0.1946,0.0,0.2538,0.2922,0.0,0.0,0.0,0.0,0.0,0.0,0.0,0.0,0.2803,0.2344,0.0811,0.0,0.0,0.0,0.0,0.0,0.0549,0.1176,0.1802,0.2011,0.2395,0.0,0.0,0.0,0.0,0.0,0.0,0.0,0.0,0.0,0.0,0.0,0.0,0.0,0.0,0.0,0.0,0.0,0.0,0.0,0.0,0.0,0.0,0.0,-0.0697,0.0,0.0,0.0,0.0,0.0,0.0,0.0,0.0,0.0,-0.2211,-0.2886,-0.3579,-0.4018,-0.4273,-0.4512,-0.4816,0.0,0.0,0.0,0.0,0.0,0.0,0.0,-0.3355,-0.3908,-0.3876,-0.3841,-0.3973,-0.4737,-0.5227,-0.4862,0.0,0.0,-0.4307,-0.386,-0.3686,-0.3686,-0.3686,-0.3743,-0.3978,-0.4209,-0.4444,0.0,0.0,0.0,0.0,0.0,0.0,0.0,0.0,0.3465,0.3341,0.0,0.3101,0.0,0.0,0.0,0.0,0.0,0.2732,0.0,0.0,0.1425,0.1109,0.1109,0.111,0.1111,0.1146,0.1833,0.2065,0.1925,0.2413,0.0,0.0,0.0,0.0,0.0,0.0,0.254,0.1607,0.0549,0.0,0.0,0.0,0.0,0.0,0.0,0.0,0.0,0.1019,0.1472,0.1363,0.2902,0.0,0.0,0.0,0.0,0.0,0.0,0.0,0.0,0.0,0.0,0.0,0.0,0.0,0.0,0.0,0.0,0.0,0.0,0.0,0.0,-0.0833,0.0,0.0,0.0,0.0,0.0,0.0,0.0,0.0,0.0,0.0,-0.2682,-0.3326,-0.4119,-0.485,0.0,0.0,0.0,0.0,-0.4397,-0.481,-0.4235,-0.3808,-0.3808,-0.4514,-0.505,-0.512,0.0,0.0,-0.5286,-0.5818,-0.6054,-0.5063,-0.5611,-0.6135,-0.5902,-0.5264,-0.4823,-0.4827,-0.482,-0.4833,-0.4864,-0.5329,-0.5769,0.3175,0.0,0.0,0.0,0.0,0.3742,0.3284,0.2703,0.2703,0.2461,0.1974,0.1888,0.0,0.0,0.0,0.0,0.0,0.0,0.209,0.1527,0.1239,0.1109,0.111,0.1097,0.1039,0.097,0.1173,0.1189,0.0973,0.099,0.1847,0.3434,0.0,0.0,0.0,0.0,0.1801,0.1371,0.0471,0.0,0.0,0.0,0.0,0.0,0.0,0.0,0.0,0.0314,0.0743,0.128,0.1791,0.0,0.0,0.0,0.0,0.0,0.0,0.0,0.0,0.0,0.0,0.0,0.0,0.0,0.0,0.0,0.0,0.0,0.0,0.0,-0.071,-0.0895,-0.1019,0.0,0.0,0.0,0.0,0.0,0.0,0.0,0.0,0.0,-0.4021,-0.4463,-0.4722,0.0,0.0,-0.5578,-0.5158,-0.5387,-0.5676,-0.5777,-0.5614,0.0,-0.551,-0.5147,-0.5117,-0.5782,-0.6083,-0.6214,-0.6053,-0.6251,-0.6301,-0.5981,-0.6172,-0.6323,-0.627,-0.5895,-0.5597,-0.5578,-0.5578,-0.5608,-0.5608,-0.5763,-0.5892,0.2562,0.3156,0.3151,0.3181,0.328,0.2995,0.2517,0.1976,0.1976,0.1722,0.1344,0.1268,0.131,0.141,0.1535,0.0,0.0,0.0,0.169,0.123,0.1127,0.1135,0.1148,0.1131,0.1103,0.1033,0.1024,0.0926,0.0703,0.0607,0.1113,0.2261,0.0,0.0,0.2504,0.1881,0.1333,0.0784,0.0275,0.0,0.0,0.0,0.0,0.0,0.0,0.0,0.0,0.0,0.0235,0.0745,0.1121,0.1488,0.0,0.0,0.0,0.0,0.0,0.0,0.0,0.0,0.0,0.0,0.0,0.0447,-0.0064,0.0,0.0,0.0,-0.0448,-0.0608,-0.0895,-0.0991,0.0,0.0,0.0,0.0,0.0,0.0,0.0,-0.3591,-0.4276,-0.4788,-0.4987,-0.5277,-0.5381,-0.5087,-0.5788,-0.6083,-0.5514,0.0,-0.6284,-0.6284,-0.6284,-0.6284,-0.6284,-0.5815,-0.565,-0.6181,-0.6251,-0.6284,-0.6387,-0.642,-0.642,-0.642,-0.642,-0.642,-0.642,-0.6237,-0.6099,-0.6099,-0.6099,-0.6099,-0.6099,-0.6099,-0.6099,0.2188,0.2154,0.2193,0.2493,0.2824,0.2151,0.1681,0.1311,0.1311,0.121,0.1109,0.1109,0.1178,0.1282,0.1484,0.0,0.1286,0.1286,0.1235,0.109,0.1125,0.1139,0.1203,0.1206,0.1207,0.1208,0.12,0.1101,0.0951,0.0894,0.0904,0.0864,0.1295,0.1489,0.1528,0.1489,0.098,0.0039,0.0,0.0,0.0,0.0,0.0,0.0,0.0,0.0,0.0,0.0,0.0,0.0,0.0745,0.1125,0.1025,0.0,0.0,0.0,0.0,0.0,0.0,0.0,0.0,0.0,0.0,0.0,0.0,0.0,0.0,0.0,-0.0708,0.0,-0.1109,-0.1143,0.0,0.0,0.0,-0.2214,-0.228,-0.3485,-0.432,-0.4386,0.0,0.0,-0.5617,-0.5789,-0.5987,-0.6181,-0.6284,-0.6317,-0.6284,-0.6251,-0.6354,-0.6321,-0.6354,-0.6354,-0.6321,-0.6284,-0.6317,-0.6387,-0.642,-0.6387,-0.642,-0.642,-0.642,-0.642,-0.642,-0.642,-0.642,-0.6404,-0.642,-0.6404,-0.6404,-0.6412,-0.6396,-0.6392,-0.6384,0.1985,0.199,0.2134,0.2196,0.2119,0.1816,0.1614,0.1512,0.1378,0.1277,0.1244,0.1143,0.1123,0.1145,0.1214,0.1228,0.1217,0.1216,0.122,0.1191,0.1191,0.1196,0.1203,0.119,0.1201,0.1203,0.1232,0.1247,0.1208,0.0979,0.0825,0.0668,0.0628,0.0706,0.0825,0.0549,0.0275,0.0,0.0,0.0,0.0,0.0,0.0,0.0,0.0,0.0,0.0,0.0,0.0,0.0,0.0196,0.0313,0.0272,0.0428,0.0,0.0,0.0,0.0,0.0,0.0,0.0,0.0,0.0,-0.0236,-0.0303,0.0,-0.054,0.0,-0.0909,-0.1043,-0.1109,-0.1578,0.0,0.0,-0.2515,-0.3149,-0.3718,-0.4087,-0.4522,-0.5057,-0.5388,-0.562,-0.5822,-0.5892,-0.5954,-0.6148,-0.5947,-0.565,-0.5249,-0.5455,-0.5723,-0.5954,-0.6053,-0.602,-0.6053,-0.6148,-0.6284,-0.6387,-0.642,-0.642,-0.642,-0.642,-0.642,-0.642,-0.642,-0.642,-0.642,-0.642,-0.642,-0.642,-0.642,-0.642,-0.642,-0.642,-0.642,0.1814,0.1817,0.1951,0.191,0.1814,0.1675,0.1605,0.1535,0.1326,0.1255,0.1255,0.1186,0.1125,0.1141,0.1141,0.1151,0.1202,0.1203,0.1174,0.1186,0.1187,0.1231,0.1245,0.1262,0.1232,0.1233,0.1288,0.1297,0.1297,0.114,0.0982,0.0746,0.0511,0.0432,0.0471,0.0157,0.0039,0.0118,0.0039,0.0,0.0,0.0,0.0,0.0,0.0,0.0,0.0,0.0,0.0,0.0,0.0,0.0,0.0,0.0,0.0,0.0,0.0,0.0,0.0,0.0,0.0,0.0,0.0,0.0,0.0,0.0,-0.0674,-0.0809,-0.0975,-0.1109,-0.1109,-0.1411,-0.1646,-0.1644,-0.228,-0.2882,-0.3282,-0.3618,-0.3954,-0.4389,-0.4855,-0.519,-0.5292,-0.5657,-0.5951,-0.6119,-0.5757,-0.5426,-0.5332,-0.5491,-0.5693,-0.5855,-0.5987,-0.6053,-0.6086,-0.6218,-0.6317,-0.6387,-0.642,-0.642,-0.642,-0.642,-0.642,-0.642,-0.642,-0.642,-0.642,-0.642,-0.642,-0.642,-0.642,-0.642,-0.642,-0.642,-0.642,0.164,0.1678,0.1721,0.1723,0.1724,0.1692,0.1615,0.1494,0.1276,0.1203,0.1203,0.1203,0.1205,0.1172,0.1172,0.121,0.1215,0.1215,0.1229,0.1217,0.1217,0.127,0.1296,0.1297,0.1297,0.1297,0.1297,0.1297,0.1297,0.1297,0.114,0.0864,0.0707,0.0511,0.0314,0.0118,0.0079,0.0275,0.0079,0.0,0.0,0.0,0.0,0.0,0.0,0.0,0.0,0.0,0.0,0.0,0.0,0.0,0.0,0.0,0.0,0.0,0.0,0.0,0.0,0.0,0.0,0.0,0.0,0.0,0.0,-0.0815,-0.0846,-0.0843,-0.1009,-0.1109,-0.1109,-0.1176,-0.1244,-0.1243,-0.1847,-0.2249,-0.2291,-0.2831,-0.3204,-0.3216,-0.403,-0.4638,-0.4684,-0.5379,-0.5981,-0.6042,-0.5714,-0.55,-0.5791,-0.5803,-0.581,-0.5885,-0.6081,-0.6257,-0.6384,-0.6439,-0.6443,-0.6464,-0.6513,-0.6485,-0.6509,-0.6505,-0.6497,-0.6497,-0.6513,-0.6505,-0.6489,-0.6497,-0.6497,-0.6513,-0.6518,-0.6497,-0.6436,-0.642,-0.6428,0.1458,0.1498,0.1715,0.1769,0.1771,0.1653,0.1553,0.1421,0.1276,0.1203,0.1203,0.1203,0.118,0.1202,0.1203,0.1217,0.1279,0.1279,0.1281,0.1288,0.1288,0.1291,0.1296,0.1297,0.1297,0.1297,0.1297,0.1297,0.1297,0.1297,0.1061,0.0668,0.0629,0.0471,0.0314,0.0,0.0,0.0,0.004,0.0,0.0,0.0,0.0,0.0,0.0,0.0,0.0,0.0,0.0,0.0,0.0,0.0,0.0,0.0,0.0,0.0,0.0,0.0,0.0,0.0,0.0,0.0,-0.0299,-0.0443,-0.0612,-0.088,-0.1033,-0.1045,-0.1076,-0.1109,-0.1109,-0.1577,-0.1913,-0.1946,-0.2547,-0.3008,-0.3073,-0.3188,-0.3283,-0.3285,-0.4148,-0.4749,-0.4812,-0.5506,-0.6051,-0.6083,-0.5873,-0.5749,-0.5828,-0.5641,-0.5609,-0.5973,-0.6226,-0.6417,-0.6608,-0.6632,-0.6682,-0.6851,-0.689,-0.6878,-0.6869,-0.6869,-0.6878,-0.6869,-0.689,-0.6873,-0.6878,-0.6886,-0.6861,-0.6886,-0.6882,-0.68,-0.6485,-0.6424,-0.6461,0.1325,0.0,0.1497,0.1543,0.0,0.1485,0.1434,0.1325,0.1287,0.125,0.125,0.1249,0.1258,0.1234,0.1234,0.1281,0.1297,0.1297,0.1297,0.1297,0.1297,0.1297,0.1297,0.1297,0.1297,0.1297,0.1297,0.1297,0.1297,0.1297,0.1061,0.0629,0.0596,0.044,0.016,0.004,0.0,0.0,0.0,0.0,0.0,0.0,0.0,0.0,0.0,0.0,0.0,0.0,0.0,0.0,0.0,0.0,0.0,0.0,0.0,0.0,0.0,0.0,0.0,0.0,-0.0039,-0.0154,-0.0347,-0.0532,-0.0731,-0.1008,-0.1137,-0.1157,-0.1156,-0.1156,-0.1155,-0.147,-0.1643,-0.1679,-0.1993,-0.2214,-0.2241,-0.2246,-0.2402,-0.2863,-0.3704,-0.4421,-0.4712,-0.5551,-0.606,-0.6051,-0.5955,-0.5942,-0.5996,-0.5749,-0.5731,-0.6165,-0.6309,-0.652,-0.6777,-0.6849,-0.6889,-0.6952,-0.6984,-0.6984,-0.6984,-0.6984,-0.6984,-0.6984,-0.6984,-0.6984,-0.6984,-0.6984,-0.6984,-0.6984,-0.6984,-0.6943,-0.6747,-0.668,-0.6743,0.1297,0.1297,0.1297,0.1297,0.1297,0.1297,0.1297,0.1297,0.0,0.0,0.0,0.1297,0.1297,0.1297,0.1297,0.1297,0.1297,0.1297,0.1297,0.1297,0.1297,0.1297,0.1297,0.1297,0.1297,0.1297,0.1297,0.1297,0.1297,0.1262,0.1028,0.0634,0.0567,0.0369,0.0,0.0,0.0,0.0,0.0,0.0,0.0,0.0,0.0,0.0,0.0,0.0,0.0,0.0,0.0,0.0,0.0,0.0,0.0,0.0,0.0,0.0,0.0,0.0,0.0,0.0,0.0,-0.0039,-0.0393,-0.0655,-0.081,-0.1064,-0.1172,-0.1204,-0.1203,-0.1202,-0.1203,-0.1203,-0.1203,-0.1203,-0.1203,-0.1204,-0.121,-0.1174,-0.1581,-0.232,-0.3283,-0.4045,-0.4713,-0.5563,-0.6112,-0.6078,-0.6071,-0.6112,-0.6235,-0.6122,-0.6164,-0.6456,-0.6616,-0.6735,-0.6981,-0.7102,-0.7082,-0.711,-0.7102,-0.7082,-0.7082,-0.7082,-0.7082,-0.7114,-0.7086,-0.7094,-0.709,-0.7106,-0.7086,-0.7086,-0.7082,-0.7082,-0.7082,-0.7082,-0.7073,0.1298,0.1297,0.1297,0.1297,0.1297,0.1297,0.1297,0.1297,0.1297,0.1297,0.1297,0.1297,0.1297,0.1297,0.1297,0.1297,0.1297,0.1297,0.1297,0.1297,0.1297,0.1297,0.1297,0.1297,0.1297,0.1297,0.1297,0.1297,0.126,0.1083,0.081,0.0609,0.0414,0.021,0.0,0.0,0.0,0.0,0.0,0.0,0.0,0.0,0.0,0.0,0.0,0.0,0.0,0.0,0.0,0.0,0.0,0.0,0.0,0.0,0.0,0.0,0.0,0.0,0.0,0.0,-0.0079,-0.0275,-0.0471,-0.0621,-0.0642,-0.0979,-0.1194,-0.1207,-0.1206,-0.1203,-0.1203,-0.1205,-0.1207,-0.1205,-0.1203,-0.1176,-0.1202,-0.1206,-0.1516,-0.2392,-0.3254,-0.4092,-0.4852,-0.5711,-0.6252,-0.6252,-0.6203,-0.6269,-0.6318,-0.6566,-0.6759,-0.687,-0.7137,-0.7331,-0.737,-0.7437,-0.7374,-0.7407,-0.742,-0.74,-0.74,-0.74,-0.74,-0.7433,-0.7408,-0.7416,-0.7424,-0.7445,-0.7374,-0.7404,-0.74,-0.7412,-0.7366,-0.7408,-0.7342,0.1306,0.1307,0.1307,0.1296,0.1321,0.1304,0.1297,0.1297,0.1297,0.1297,0.1297,0.1297,0.1297,0.1297,0.1297,0.1297,0.1297,0.1297,0.1297,0.1297,0.1297,0.1297,0.1297,0.1297,0.1297,0.1298,0.1314,0.1322,0.1284,0.1148,0.0953,0.0664,0.0339,0.0086,0.0,0.0,0.0,0.0,0.0,0.0,0.0,0.0,0.0,0.0,0.0,0.0,0.0,0.0,0.0,0.0,0.0,0.0,0.0,0.0,0.0,0.0,0.0,0.0,0.0,0.0,-0.0039,-0.0157,-0.0432,-0.0626,-0.0619,-0.1004,-0.1231,-0.1255,-0.1253,-0.1253,-0.1253,-0.1253,-0.1254,-0.1254,-0.1254,-0.1259,-0.1272,-0.1236,-0.159,-0.2426,-0.3248,-0.4103,-0.4888,-0.5747,-0.63,-0.63,-0.63,-0.63,-0.63,-0.6528,-0.6749,-0.6791,-0.698,-0.7211,-0.733,-0.7446,-0.748,-0.7518,-0.7518,-0.7518,-0.7518,-0.7518,-0.7518,-0.7518,-0.7518,-0.7518,-0.7518,-0.7518,-0.7518,-0.7518,-0.7518,-0.7518,-0.7518,-0.7518,-0.749,0.1306,0.1306,0.1306,0.1292,0.1311,0.1328,0.1318,0.1318,0.1318,0.1318,0.1316,0.1303,0.1297,0.1297,0.1297,0.1297,0.1297,0.1297,0.1297,0.1297,0.1297,0.1297,0.1298,0.1303,0.1307,0.1311,0.1299,0.1312,0.1316,0.1217,0.0936,0.0556,0.0174,0.0,0.0,0.0,0.0,0.0,0.0,0.0,0.0,0.0,0.0,0.0,0.0,0.0,0.0,0.0,0.0,0.0,0.0,0.0,0.0,0.0,0.0,0.0,0.0,0.0,0.0,0.0,0.0,-0.0079,-0.0393,-0.0629,-0.0707,-0.1061,-0.1297,-0.1297,-0.1294,-0.1295,-0.1293,-0.1295,-0.1297,-0.1297,-0.1297,-0.1294,-0.1296,-0.1453,-0.1884,-0.2704,-0.356,-0.4416,-0.516,-0.5867,-0.6261,-0.63,-0.63,-0.63,-0.6338,-0.6451,-0.6525,-0.6637,-0.683,-0.7061,-0.7219,-0.7407,-0.748,-0.7518,-0.7518,-0.7518,-0.7518,-0.7518,-0.7518,-0.7518,-0.7518,-0.7518,-0.7518,-0.7518,-0.7518,-0.7518,-0.7518,-0.7518,-0.7518,-0.7518,-0.7518,0.1307,0.1306,0.1308,0.1305,0.1301,0.1298,0.1296,0.1296,0.1297,0.1298,0.1332,0.1321,0.1299,0.1297,0.1298,0.1298,0.1298,0.1297,0.1298,0.1298,0.1297,0.1297,0.1303,0.1326,0.1299,0.1302,0.1329,0.1302,0.1261,0.0945,0.0526,0.0089,0.0,0.0,0.0,0.0,0.0,0.0,0.0,0.0,0.0,0.0,0.0,0.0,0.0,0.0,0.0,0.0,0.0,0.0,0.0,0.0,0.0,0.0,0.0,0.0,0.0,0.0,0.0,0.0,-0.0079,-0.0275,-0.0471,-0.0668,-0.0825,-0.114,-0.1297,-0.1297,-0.1297,-0.1297,-0.1297,-0.1297,-0.1297,-0.1297,-0.1297,-0.1297,-0.1415,-0.1924,-0.2705,-0.3558,-0.43,-0.5198,-0.5828,-0.618,-0.6261,-0.63,-0.63,-0.63,-0.63,-0.6338,-0.6451,-0.6602,-0.6911,-0.7215,-0.7369,-0.748,-0.7518,-0.7518,-0.7518,-0.7518,-0.7518,-0.7518,-0.7518,-0.7518,-0.7518,-0.7518,-0.7518,-0.7518,-0.7518,-0.7518,-0.7518,-0.7518,-0.7518,-0.7518,-0.7518,0.1356,0.1356,0.1356,0.1346,0.1372,0.1313,0.1306,0.1306,0.1306,0.1306,0.1304,0.1321,0.1311,0.131,0.1293,0.1324,0.1323,0.1305,0.1307,0.1323,0.1324,0.1293,0.1311,0.1323,0.1329,0.1332,0.1316,0.1287,0.1077,0.0702,0.0445,0.0224,0.009,0.0,0.0,0.0,0.0,0.0,0.0,0.0,0.0,0.0,0.0,0.0,0.0,0.0,0.0,0.0,0.0,0.0,0.0,0.0,0.0,0.0,0.0,0.0,0.0,0.0,0.0,0.0,-0.0039,-0.0118,-0.0314,-0.0511,-0.0707,-0.0943,-0.11,-0.1297,-0.1297,-0.1297,-0.1297,-0.1297,-0.1297,-0.1297,-0.1297,-0.1492,-0.2002,-0.2276,-0.2821,-0.3677,-0.4494,-0.5121,-0.5512,-0.5983,-0.6257,-0.63,-0.63,-0.63,-0.63,-0.63,-0.6451,-0.6714,-0.6907,-0.7099,-0.7296,-0.7446,-0.748,-0.7518,-0.7518,-0.7518,-0.7518,-0.7518,-0.7518,-0.7518,-0.7518,-0.7518,-0.7518,-0.7518,-0.7518,-0.7518,-0.7518,-0.7518,-0.7518,-0.7518,-0.7518,0.1391,0.1391,0.1391,0.1423,0.1401,0.1337,0.1329,0.1329,0.1329,0.1329,0.1329,0.1329,0.1329,0.1324,0.1332,0.1316,0.1312,0.1332,0.1294,0.1313,0.1316,0.1327,0.1305,0.1314,0.1275,0.1237,0.1302,0.114,0.0835,0.0534,0.0359,0.0269,0.009,0.0,0.0,0.0,0.0,0.0,0.0,0.0,0.0,0.0,0.0,0.0,0.0,0.0,0.0,0.0,0.0,0.0,0.0,0.0,0.0,0.0,0.0,0.0,0.0,0.0,0.0,0.0,0.0,0.0,-0.0236,-0.0432,-0.0629,-0.0864,-0.11,-0.1258,-0.1297,-0.1297,-0.1297,-0.1297,-0.1297,-0.1297,-0.1297,-0.1609,-0.2354,-0.2666,-0.321,-0.4027,-0.4924,-0.5356,-0.5434,-0.5906,-0.63,-0.63,-0.63,-0.63,-0.63,-0.6335,-0.6525,-0.6826,-0.6942,-0.7099,-0.7257,-0.7411,-0.7484,-0.7518,-0.7518,-0.7518,-0.7518,-0.7518,-0.7518,-0.7518,-0.7518,-0.7518,-0.7518,-0.7518,-0.7518,-0.7518,-0.7518,-0.7518,-0.7518,-0.7518,-0.7518,0.1391,0.1391,0.1391,0.1389,0.1388,0.1385,0.1385,0.1381,0.1384,0.1385,0.1383,0.1383,0.1385,0.1379,0.1329,0.1304,0.1304,0.13,0.1299,0.1304,0.1304,0.1305,0.1307,0.1332,0.1258,0.1088,0.1062,0.0893,0.0447,0.0403,0.0269,0.0,0.0,0.0,0.0,0.0,0.0,0.0,0.0,0.0,0.0,0.0,0.0,0.0,0.0,0.0,0.0,0.0,0.0,0.0,0.0,0.0,0.0,0.0,0.0,0.0,0.0,0.0,0.0,0.0,0.0,0.0,-0.0314,-0.0589,-0.0629,-0.0943,-0.1218,-0.1297,-0.1297,-0.1297,-0.1297,-0.1297,-0.1297,-0.1297,-0.1335,-0.1727,-0.247,-0.3326,-0.4064,-0.4846,-0.5631,-0.6064,-0.6183,-0.6261,-0.63,-0.63,-0.63,-0.63,-0.6338,-0.6451,-0.6637,-0.6868,-0.7061,-0.7257,-0.7446,-0.7484,-0.7484,-0.7518,-0.7518,-0.7518,-0.7518,-0.7518,-0.7518,-0.7518,-0.7518,-0.7518,-0.7518,-0.7518,-0.7518,-0.7518,-0.7518,-0.7518,-0.7518,-0.7518,-0.7518,0.1391,0.1391,0.1391,0.1391,0.1391,0.1391,0.1391,0.1391,0.1391,0.1391,0.1391,0.1391,0.1391,0.1389,0.137,0.1349,0.1374,0.1315,0.1315,0.1373,0.1375,0.1341,0.136,0.1238,0.1153,0.1067,0.0894,0.0718,0.0404,0.0224,0.009,0.0,0.0,0.0,0.0,0.0,0.0,0.0,0.0,0.0,0.0,0.0,0.0,0.0,0.0,0.0,0.0,0.0,0.0,0.0,0.0,0.0,0.0,0.0,0.0,0.0,0.0,0.0,0.0,0.0,-0.0039,-0.0157,-0.0196,-0.0393,-0.0707,-0.0864,-0.0982,-0.1218,-0.1297,-0.1297,-0.1297,-0.1297,-0.1297,-0.1375,-0.1766,-0.2353,-0.3248,-0.4066,-0.4885,-0.567,-0.6145,-0.6261,-0.63,-0.63,-0.63,-0.63,-0.63,-0.63,-0.6338,-0.649,-0.6676,-0.6868,-0.7061,-0.7253,-0.748,-0.7518,-0.7518,-0.7518,-0.7518,-0.7518,-0.7518,-0.7518,-0.7518,-0.7518,-0.7518,-0.7518,-0.7518,-0.7518,-0.7518,-0.7518,-0.7518,-0.7518,-0.7518,-0.7518,-0.7518,0.1391,0.1391,0.1391,0.1391,0.1391,0.1391,0.1391,0.1391,0.1391,0.1391,0.1391,0.1391,0.1391,0.1391,0.1391,0.1425,0.1404,0.1341,0.1343,0.1403,0.1405,0.1416,0.1388,0.1211,0.1076,0.0942,0.0628,0.0404,0.0269,0.009,0.0,0.0,0.0,0.0,0.0,0.0,0.0,0.0,0.0,0.0,0.0,0.0,0.0,0.0,0.0,0.0,0.0,0.0,0.0,0.0,0.0,0.0,0.0,0.0,0.0,0.0,0.0,0.0,0.0,0.0,-0.0079,-0.0199,-0.0158,-0.0314,-0.0746,-0.0746,-0.0904,-0.1218,-0.1297,-0.1297,-0.1375,-0.1532,-0.1571,-0.1453,-0.1805,-0.2586,-0.3638,-0.4258,-0.5082,-0.5983,-0.6261,-0.63,-0.63,-0.63,-0.63,-0.63,-0.63,-0.63,-0.63,-0.649,-0.6679,-0.6865,-0.7065,-0.7257,-0.7446,-0.7518,-0.7518,-0.7518,-0.7518,-0.7518,-0.7518,-0.7518,-0.7518,-0.7518,-0.7518,-0.7518,-0.7518,-0.7518,-0.7518,-0.7518,-0.7518,-0.7518,-0.7518,-0.7518,-0.7518,0.1391,0.1391,0.1391,0.1391,0.1391,0.1391,0.1391,0.1391,0.1391,0.1391,0.1391,0.1391,0.1391,0.1391,0.1391,0.1389,0.1386,0.1382,0.1383,0.1386,0.1387,0.1387,0.1391,0.1122,0.0897,0.0673,0.0225,0.0,0.0,0.0,0.0,0.0,0.0,0.0,0.0,0.0,0.0,0.0,0.0,0.0,0.0,0.0,0.0,0.0,0.0,0.0,0.0,0.0,0.0,0.0,0.0,0.0,0.0,0.0,0.0,0.0,0.0,0.0,0.0,0.0,0.0,-0.0081,-0.016,-0.0356,-0.0635,-0.0792,-0.099,-0.1229,-0.1307,-0.1303,-0.1423,-0.1976,-0.2168,-0.1532,-0.1727,-0.2547,-0.3521,-0.3871,-0.4457,-0.5906,-0.63,-0.63,-0.63,-0.63,-0.63,-0.63,-0.63,-0.63,-0.6296,-0.6486,-0.6679,-0.6868,-0.7061,-0.7257,-0.7407,-0.7518,-0.7518,-0.7518,-0.7518,-0.7518,-0.7518,-0.7518,-0.7518,-0.7518,-0.7518,-0.7518,-0.7518,-0.7518,-0.7518,-0.7518,-0.7518,-0.7518,-0.7518,-0.7518,-0.7518,0.1391,0.1391,0.1391,0.1391,0.1391,0.1391,0.1391,0.1391,0.1391,0.1391,0.1391,0.1391,0.1391,0.1391,0.1391,0.1391,0.1391,0.1256,0.1256,0.1346,0.1256,0.1166,0.1122,0.0807,0.0494,0.0225,0.009,0.0,0.0,0.0,0.0,0.0,0.0,0.0,0.0,0.0,0.0,0.0,0.0,0.0,0.0,0.0,0.0,0.0,0.0,0.0,0.0,0.0,0.0,0.0,0.0,0.0,0.0,0.0,0.0,0.0,0.0,0.0,0.0,0.0,-0.0042,-0.0166,-0.0124,-0.0371,-0.0742,-0.0782,-0.0947,-0.1236,-0.132,-0.1319,-0.1443,-0.214,-0.2516,-0.2205,-0.3134,-0.3882,-0.4474,-0.5096,-0.567,-0.6103,-0.63,-0.63,-0.6303,-0.631,-0.6323,-0.6323,-0.632,-0.6317,-0.6349,-0.6482,-0.6602,-0.6714,-0.6988,-0.7266,-0.7375,-0.7512,-0.7551,-0.7557,-0.7567,-0.7522,-0.7518,-0.7518,-0.7518,-0.7518,-0.7518,-0.7518,-0.7518,-0.7518,-0.7518,-0.7518,-0.7518,-0.7518,-0.7518,-0.7518,-0.7518,0.1391,0.1391,0.1391,0.1391,0.1391,0.1391,0.1391,0.1391,0.1391,0.1391,0.1391,0.1391,0.1391,0.1391,0.1301,0.1301,0.1256,0.1031,0.1031,0.1121,0.1031,0.0942,0.0897,0.0583,0.0269,0.0,0.0,0.0,0.0,0.0,0.0,0.0,0.0,0.0,0.0,0.0,0.0,0.0,0.0,0.0,0.0,0.0,0.0,0.0,0.0,0.0,0.0,0.0,0.0,0.0,0.0,0.0,0.0,0.0,0.0,0.0,0.0,0.0,0.0,0.0,-0.0043,-0.0128,-0.0042,-0.0253,-0.0716,-0.0758,-0.0884,-0.1222,-0.1304,-0.1473,-0.1892,-0.2685,-0.3268,-0.3634,-0.4143,-0.4856,-0.5175,-0.5937,-0.6387,-0.6441,-0.6437,-0.6467,-0.6467,-0.6463,-0.6463,-0.6424,-0.6463,-0.6463,-0.6463,-0.6553,-0.6612,-0.6727,-0.6965,-0.7183,-0.7391,-0.7509,-0.7624,-0.7611,-0.7633,-0.7563,-0.7518,-0.7518,-0.7518,-0.7518,-0.7518,-0.7518,-0.7518,-0.7518,-0.7518,-0.7518,-0.7551,-0.7522,-0.7522,-0.7518,-0.7518,0.1391,0.1391,0.1391,0.1391,0.1391,0.1391,0.1391,0.1391,0.1391,0.1391,0.1391,0.1391,0.1391,0.1346,0.1211,0.1122,0.1031,0.0807,0.0718,0.0718,0.0673,0.0628,0.0583,0.0404,0.0224,0.0,0.0,0.0,0.0,0.0,0.0,0.0,0.0,0.0,0.0,0.0,0.0,0.0,0.0,0.0,0.0,0.0,0.0,0.0,0.0,0.0,0.0,0.0,0.0,0.0,0.0,0.0,0.0,0.0,0.0,0.0,0.0,0.0,0.0,0.0,0.0,0.0,-0.0086,-0.0211,-0.0638,-0.0938,-0.1193,-0.1533,-0.1658,-0.1992,-0.2837,-0.3639,-0.4471,-0.5257,-0.5048,-0.5036,-0.5515,-0.6255,-0.6603,-0.6661,-0.6692,-0.6692,-0.6658,-0.6658,-0.6661,-0.6664,-0.6654,-0.6644,-0.6644,-0.6706,-0.6757,-0.6863,-0.6937,-0.7082,-0.7285,-0.7531,-0.7648,-0.7536,-0.7597,-0.7612,-0.7536,-0.7567,-0.7606,-0.759,-0.7592,-0.7571,-0.7588,-0.7602,-0.7614,-0.7638,-0.7614,-0.7529,-0.7541,-0.7598,-0.761,0.1391,0.1391,0.1391,0.1391,0.1391,0.1391,0.1391,0.1391,0.1391,0.1391,0.1391,0.1391,0.1301,0.1166,0.1122,0.0987,0.0807,0.0583,0.0493,0.0448,0.0269,0.018,0.018,0.0,0.0,0.0,0.0,0.0,0.0,0.0,0.0,0.0,0.0,0.0,0.0,0.0,0.0,0.0,0.0,0.0,0.0,0.0,0.0,0.0,0.0,0.0,0.0,0.0,0.0,0.0,0.0,0.0,0.0,0.0,0.0,0.0,0.0,0.0,0.0,0.0,0.0,0.0,-0.0132,-0.0441,-0.0706,-0.1542,-0.2071,-0.2512,-0.3037,-0.3557,-0.3997,-0.4695,-0.5616,-0.6427,-0.6163,-0.6014,-0.6299,-0.6533,-0.6702,-0.6702,-0.6712,-0.6725,-0.6729,-0.6729,-0.6725,-0.6725,-0.6729,-0.6732,-0.6759,-0.6753,-0.6815,-0.6802,-0.6884,-0.7012,-0.7173,-0.7506,-0.7585,-0.7491,-0.7546,-0.7657,-0.7647,-0.7631,-0.7765,-0.785,-0.7813,-0.7776,-0.7833,-0.7894,-0.787,-0.7797,-0.7813,-0.7784,-0.7841,-0.789,-0.787,0.1391,0.1391,0.1391,0.1391,0.1391,0.1391,0.1391,0.1391,0.1391,0.1391,0.1391,0.1301,0.1211,0.1076,0.0897,0.0718,0.0538,0.0314,0.0224,0.018,0.009,0.0,0.0,0.0,0.0,0.0,0.0,0.0,0.0,0.0,0.0,0.0,0.0,0.0,0.0,0.0,0.0,0.0,0.0,0.0,0.0,0.0,0.0,0.0,0.0,0.0,0.0,0.0,0.0,0.0,0.0,0.0,0.0,0.0,0.0,0.0,0.0,0.0,0.0,0.0,0.0,0.0,-0.018,-0.0404,-0.0806,-0.1702,-0.2462,-0.2861,-0.3755,-0.4423,-0.4956,-0.5716,-0.6476,-0.6929,-0.6983,-0.6842,-0.6842,-0.6856,-0.6888,-0.6885,-0.6842,-0.6885,-0.6885,-0.6881,-0.6881,-0.6852,-0.6873,-0.6912,-0.6909,-0.6881,-0.6868,-0.6887,-0.6932,-0.7091,-0.7232,-0.7491,-0.7689,-0.7539,-0.7429,-0.7586,-0.7594,-0.762,-0.7755,-0.7867,-0.7938,-0.8024,-0.8057,-0.8052,-0.7975,-0.7947,-0.8004,-0.8028,-0.804,-0.8093,-0.8081,0.1391,0.1391,0.1391,0.1391,0.1391,0.1391,0.1391,0.1391,0.1391,0.1391,0.1346,0.1166,0.1076,0.0987,0.0628,0.0404,0.0359,0.0135,0.0,0.0,0.0,0.0,0.0,0.0,0.0,0.0,0.0,0.0,0.0,0.0,0.0,0.0,0.0,0.0,0.0,0.0,0.0,0.0,0.0,0.0,0.0,0.0,0.0,0.0,0.0,0.0,0.0,0.0,0.0,0.0,0.0,0.0,0.0,0.0,0.0,0.0,0.0,0.0,0.0,0.0,0.0,0.0,-0.0045,-0.0314,-0.0941,-0.1925,-0.2818,-0.3446,-0.4067,-0.5092,-0.5761,-0.6609,-0.6962,-0.7092,-0.7078,-0.7088,-0.7095,-0.7095,-0.7095,-0.7095,-0.7088,-0.7092,-0.7095,-0.7095,-0.7082,-0.698,-0.6997,-0.6991,-0.7034,-0.7027,-0.6994,-0.7054,-0.7119,-0.7153,-0.7335,-0.7471,-0.7625,-0.7643,-0.7443,-0.74,-0.7392,-0.7471,-0.7678,-0.7833,-0.7996,-0.8127,-0.8178,-0.8142,-0.8105,-0.8134,-0.8219,-0.8162,-0.8113,-0.8199,-0.8227,0.1391,0.1391,0.1391,0.1391,0.1391,0.1391,0.1391,0.1391,0.1391,0.1301,0.1166,0.1121,0.0897,0.0583,0.0448,0.0269,0.0,0.0,0.0,0.0,0.0,0.0,0.0,0.0,0.0,0.0,0.0,0.0,0.0,0.0,0.0,0.0,0.0,0.0,0.0,0.0,0.0,0.0,0.0,0.0,0.0,0.0,0.0,0.0,0.0,0.0,0.0,0.0,0.0,0.0,0.0,0.0,0.0,0.0,0.0,0.0,0.0,0.0,0.0,0.0,0.0,0.0,-0.018,-0.0673,-0.1567,-0.2727,-0.3798,-0.4779,-0.5847,-0.6381,-0.665,-0.6918,-0.7095,-0.7095,-0.7095,-0.7095,-0.7095,-0.7095,-0.7095,-0.7095,-0.7095,-0.7095,-0.7095,-0.7095,-0.7095,-0.7095,-0.7095,-0.7095,-0.7095,-0.7095,-0.7095,-0.7095,-0.7139,-0.7187,-0.7231,-0.7367,-0.7455,-0.7544,-0.7367,-0.7272,-0.7274,-0.7408,-0.764,-0.7892,-0.8103,-0.8198,-0.829,-0.8385,-0.8381,-0.8453,-0.8457,-0.8416,-0.8388,-0.8429,-0.8416,0.1391,0.1391,0.1391,0.1391,0.1391,0.1391,0.1346,0.1301,0.1256,0.1122,0.0942,0.0807,0.0628,0.0404,0.0269,0.0135,0.0,0.0,0.0,0.0,0.0,0.0,0.0,0.0,0.0,0.0,0.0,0.0,0.0,0.0,0.0,0.0,0.0,0.0,0.0,0.0,0.0,0.0,0.0,0.0,0.0,0.0,0.0,0.0,0.0,0.0,0.0,0.0,0.0,0.0,0.0,0.0,0.0,0.0,0.0,0.0,0.0,0.0,0.0,0.0,0.0,0.0,0.0,-0.0807,-0.1745,-0.3038,-0.4196,-0.5312,-0.6293,-0.7095,-0.7095,-0.7095,-0.7095,-0.7095,-0.7095,-0.7095,-0.7095,-0.7095,-0.7095,-0.7095,-0.7095,-0.7095,-0.7095,-0.7095,-0.7095,-0.7095,-0.7095,-0.7095,-0.7095,-0.7095,-0.7095,-0.7095,-0.7095,-0.7139,-0.7139,-0.7187,-0.7231,-0.7275,-0.7231,-0.7187,-0.7179,-0.7365,-0.7614,-0.7885,-0.8137,-0.8324,-0.8452,-0.8568,-0.8616,-0.8571,-0.8555,-0.8596,-0.8596,-0.8535,-0.8526,0.1391,0.1391,0.1391,0.1391,0.1391,0.1391,0.1301,0.1122,0.1076,0.0942,0.0673,0.0448,0.0404,0.0269,0.009,0.0,0.0,0.0,0.0,0.0,0.0,0.0,0.0,0.0,0.0,0.0,0.0,0.0,0.0,0.0,0.0,0.0,0.0,0.0,0.0,0.0,0.0,0.0,0.0,0.0,0.0,0.0,0.0,0.0,0.0,0.0,0.0,0.0,0.0,0.0,0.0,0.0,0.0,0.0,0.0,0.0,0.0,0.0,0.0,0.0,0.0,0.0,0.0,0.0,-0.1924,-0.3083,-0.4285,-0.5445,-0.6517,-0.7095,-0.7095,-0.7095,-0.7095,-0.7095,-0.7095,-0.7095,-0.7095,-0.7095,-0.7095,-0.7095,-0.7095,-0.7095,-0.7095,-0.7095,-0.7095,-0.7095,-0.7095,-0.7095,-0.7095,-0.7095,-0.7095,-0.7095,-0.7095,-0.7095,-0.7139,-0.7139,-0.7187,-0.7143,-0.7095,-0.7095,-0.7095,-0.7231,-0.7499,-0.7856,-0.8116,-0.83,-0.8476,-0.8568,-0.8616,-0.8616,-0.8616,-0.8616,-0.8616,-0.8616,-0.8616,0.1391,0.1391,0.1391,0.1391,0.1391,0.1391,0.1256,0.1122,0.1076,0.0852,0.0448,0.0404,0.0269,0.0,0.0,0.0,0.0,0.0,0.0,0.0,0.0,0.0,0.0,0.0,0.0,0.0,0.0,0.0,0.0,0.0,0.0,0.0,0.0,0.0,0.0,0.0,0.0,0.0,0.0,0.0,0.0,0.0,0.0,0.0,0.0,0.0,0.0,0.0,0.0,0.0,0.0,0.0,0.0,0.0,0.0,0.0,0.0,0.0,0.0,0.0,0.0,0.0,0.0,0.0,-0.246,-0.3484,-0.4641,-0.5983,-0.6786,-0.7095,-0.7095,-0.7095,-0.7095,-0.7095,-0.7095,-0.7095,-0.7095,-0.7095,-0.7095,-0.7095,-0.7095,-0.7095,-0.7095,-0.7095,-0.7095,-0.7095,-0.7095,-0.7095,-0.7095,-0.7095,-0.7095,-0.7095,-0.7095,-0.7095,-0.7095,-0.7095,-0.7139,-0.7139,-0.7095,-0.7095,-0.7095,-0.7095,-0.7319,-0.7764,-0.8072,-0.8252,-0.8432,-0.8568,-0.8616,-0.8616,-0.8616,-0.8616,-0.8616,-0.8616,-0.8616,0.1391,0.1391,0.1391,0.1346,0.1256,0.1256,0.1031,0.0762,0.0718,0.0538,0.0269,0.018,0.0135,0.0,0.0,0.0,0.0,0.0,0.0,0.0,0.0,0.0,0.0,0.0,0.0,0.0,0.0,0.0,0.0,0.0,0.0,0.0,0.0,0.0,0.0,0.0,0.0,0.0,0.0,0.0,0.0,0.0,0.0,0.0,0.0,0.0,0.0,0.0,0.0,0.0,0.0,0.0,0.0,-0.0404,-0.0494,0.0,0.0,0.0,0.0,0.0,0.0,0.0,-0.0494,-0.1568,-0.2952,-0.4065,-0.522,-0.6428,-0.701,-0.7095,-0.7095,-0.7095,-0.7095,-0.7095,-0.7095,-0.7095,-0.7095,-0.7095,-0.7095,-0.7095,-0.7095,-0.7095,-0.7095,-0.7095,-0.7095,-0.7095,-0.7095,-0.7095,-0.7095,-0.7095,-0.7095,-0.7095,-0.7095,-0.7095,-0.7095,-0.7095,-0.7095,-0.7095,-0.7095,-0.7095,-0.7187,-0.7187,-0.7452,-0.7808,-0.8028,-0.8204,-0.8432,-0.8616,-0.8616,-0.8616,-0.8616,-0.8616,-0.8616,-0.8616,-0.8616,0.1391,0.1391,0.1346,0.1256,0.1122,0.1031,0.0807,0.0448,0.0404,0.0269,0.0,0.0,0.0,0.0,0.0,0.0,0.0,0.0,0.0,0.0,0.0,0.0,0.0,0.0,0.0,0.0,0.0,0.0,0.0,0.0,0.0,0.0,0.0,0.0,0.0,0.0,0.0,0.0,0.0,0.0,0.0,0.0,0.0,0.0,0.0,0.0,0.0,0.0,0.0,0.0,0.0,0.0,0.0,-0.0898,-0.0943,-0.0225,-0.018,-0.027,0.0,0.0,0.0,-0.0449,-0.1255,-0.2282,-0.3664,-0.4954,-0.6115,-0.6918,-0.7095,-0.7095,-0.7095,-0.7095,-0.7095,-0.7095,-0.7095,-0.7095,-0.7095,-0.7095,-0.7095,-0.7095,-0.7095,-0.7095,-0.7095,-0.7095,-0.7095,-0.7095,-0.7095,-0.7095,-0.7095,-0.7095,-0.7095,-0.7095,-0.7095,-0.7095,-0.7095,-0.7095,-0.7095,-0.7095,-0.7095,-0.7095,-0.7187,-0.7279,-0.7588,-0.7856,-0.7984,-0.8204,-0.8432,-0.8616,-0.8616,-0.8616,-0.8616,-0.8616,-0.8616,-0.8616,-0.8616,0.1391,0.1391,0.1211,0.1122,0.1031,0.0852,0.0628,0.0404,0.0359,0.0224,0.0,0.0,0.0,0.0,0.0,0.0,0.0,0.0,0.0,0.0,0.0,0.0,0.0,0.0,0.0,0.0,0.0,0.0,0.0,0.0,0.0,0.0,0.0,0.0,0.0,0.0,0.0,0.0,0.0,0.0,0.0,0.0,0.0,0.0,0.0,0.0,0.0,0.0,0.0,0.0,0.0,0.0,0.0,-0.0898,-0.0808,-0.0539,-0.0673,-0.1211,-0.1032,-0.0584,-0.0584,-0.1122,-0.1792,-0.2904,-0.4463,-0.5844,-0.683,-0.7007,-0.7095,-0.7095,-0.7095,-0.7095,-0.7095,-0.7095,-0.7095,-0.7095,-0.7095,-0.7095,-0.7095,-0.7095,-0.7095,-0.7095,-0.7095,-0.7095,-0.7095,-0.7095,-0.7095,-0.7095,-0.7095,-0.7095,-0.7095,-0.7095,-0.7095,-0.7095,-0.7095,-0.7095,-0.7095,-0.7095,-0.7095,-0.7095,-0.7187,-0.7323,-0.7591,-0.7812,-0.7984,-0.8208,-0.848,-0.8616,-0.8616,-0.8616,-0.8616,-0.8616,-0.8616,-0.8616,-0.8616,0.1346,0.1211,0.1122,0.0942,0.0718,0.0583,0.0404,0.0224,0.018,0.009,0.0,0.0,0.0,0.0,0.0,0.0,0.0,0.0,0.0,0.0,0.0,0.0,0.0,0.0,0.0,0.0,0.0,0.0,0.0,0.0,0.0,0.0,0.0,0.0,0.0,0.0,0.0,0.0,0.0,0.0,0.0,0.0,0.0,0.0,0.0,0.0,0.0,0.0,0.0,0.0,0.0,0.0,0.0,-0.0808,-0.1166,-0.1032,-0.1704,-0.1928,-0.1435,-0.1032,-0.1391,-0.2195,-0.2953,-0.4245,-0.5714,-0.6605,-0.7095,-0.7095,-0.7095,-0.7095,-0.7095,-0.7095,-0.7095,-0.7095,-0.7095,-0.7095,-0.7095,-0.7095,-0.7095,-0.7095,-0.7095,-0.7095,-0.7095,-0.7095,-0.7095,-0.7095,-0.7095,-0.7095,-0.7095,-0.7095,-0.7095,-0.7095,-0.7095,-0.7095,-0.7095,-0.7095,-0.7095,-0.7095,-0.7095,-0.7139,-0.7187,-0.7319,-0.7591,-0.7856,-0.8028,-0.8296,-0.8524,-0.8616,-0.8616,-0.8616,-0.8616,-0.8616,-0.8616,-0.8616,-0.8616,0.1211,0.0987,0.0987,0.0762,0.0404,0.0314,0.018,0.0,0.0,0.0,0.0,0.0,0.0,0.0,0.0,0.0,0.0,0.0,0.0,0.0,0.0,0.0,0.0,0.0,0.0,0.0,0.0,0.0,0.0,0.0,0.0,0.0,0.0,0.0,0.0,0.0,0.0,0.0,0.0,0.0,0.0,0.0,0.0,0.0,0.0,0.0,0.0,0.0,0.0,0.0,0.0,0.0,0.0,-0.0853,-0.1346,-0.148,-0.2196,-0.2688,-0.233,-0.2151,-0.2376,-0.3269,-0.4338,-0.5447,-0.6476,-0.701,-0.7095,-0.7095,-0.7095,-0.7095,-0.7095,-0.7095,-0.7095,-0.7095,-0.7095,-0.7095,-0.7095,-0.7095,-0.7095,-0.7095,-0.7095,-0.7095,-0.7095,-0.7095,-0.7095,-0.7095,-0.7095,-0.7095,-0.7095,-0.7095,-0.7095,-0.7095,-0.7095,-0.7095,-0.7095,-0.7095,-0.7095,-0.7095,-0.7095,-0.7139,-0.7143,-0.7323,-0.7591,-0.7856,-0.8072,-0.8296,-0.8568,-0.8568,-0.8616,-0.8616,-0.8616,-0.8616,-0.8616,-0.8616,-0.8616,0.0942,0.0718,0.0718,0.0583,0.0359,0.0135,0.0,0.0,0.0,0.0,0.0,0.0,0.0,0.0,0.0,0.0,0.0,0.0,0.0,0.0,0.0,0.0,0.0,0.0,0.0,0.0,0.0,0.0,0.0,0.0,0.0,0.0,0.0,0.0,0.0,0.0,0.0,0.0,0.0,0.0,0.0,0.0,0.0,0.0,0.0,0.0,0.0,0.0,0.0,0.0,0.0,0.0,0.0,-0.0943,-0.1391,-0.1838,-0.2598,-0.3179,-0.3358,-0.3179,-0.336,-0.4251,-0.5317,-0.6248,-0.6877,-0.7054,-0.7095,-0.7095,-0.7095,-0.7095,-0.7095,-0.7095,-0.7095,-0.7095,-0.7095,-0.7095,-0.7095,-0.7095,-0.7095,-0.7095,-0.7095,-0.7095,-0.7095,-0.7095,-0.7095,-0.7095,-0.7095,-0.7095,-0.7095,-0.7095,-0.7095,-0.7095,-0.7095,-0.7095,-0.7095,-0.7095,-0.7095,-0.7095,-0.7095,-0.7095,-0.7139,-0.7367,-0.768,-0.7856,-0.812,-0.8344,-0.8524,-0.8568,-0.8616,-0.8616,-0.8616,-0.8616,-0.8616,-0.8616,-0.8616,0.0807,0.0673,0.0583,0.0359,0.0135,0.0045,0.0,0.0,0.0,0.0,0.0,0.0,0.0,0.0,0.0,0.0,0.0,0.0,0.0,0.0,0.0,0.0,0.0,0.0,0.0,0.0,0.0,0.0,0.0,0.0,0.0,0.0,0.0,0.0,0.0,0.0,0.0,0.0,0.0,0.0,0.0,0.0,0.0,0.0,0.0,0.0,0.0,0.0,0.0,0.0,0.0,0.0,-0.0808,-0.1301,-0.1749,-0.2286,-0.3181,-0.3851,-0.421,-0.4076,-0.4297,-0.5233,-0.6033,-0.6564,-0.6922,-0.701,-0.7095,-0.7095,-0.7095,-0.7095,-0.7095,-0.7095,-0.7095,-0.7095,-0.7095,-0.7095,-0.7095,-0.7095,-0.7095,-0.7095,-0.7095,-0.7095,-0.7095,-0.7095,-0.7095,-0.7095,-0.7095,-0.7095,-0.7095,-0.7095,-0.7095,-0.7095,-0.7095,-0.7095,-0.7095,-0.7095,-0.7095,-0.7095,-0.7095,-0.7095,-0.7139,-0.7544,-0.7856,-0.7988,-0.8168,-0.8388,-0.8568,-0.8568,-0.8616,-0.8616,-0.8616,-0.8616,-0.8616,-0.8616,-0.8616,0.0628,0.0583,0.0404,0.018,0.0,0.0,0.0,0.0,0.0,0.0,0.0,0.0,0.0,0.0,0.0,0.0,0.0,0.0,0.0,0.0,0.0,0.0,0.0,0.0,0.0,0.0,0.0,0.0,0.0,0.0,0.0,0.0,0.0,0.0,0.0,0.0,0.0,0.0,0.0,0.0,0.0,0.0,0.0,0.0,0.0,0.0,0.0,0.0,0.0,0.0,0.0,0.0,-0.148,-0.1973,-0.2374,-0.3181,-0.3851,-0.4389,-0.4659,-0.4837,-0.5191,-0.5947,-0.621,-0.6567,-0.6833,-0.701,-0.7095,-0.7095,-0.7095,-0.7095,-0.7095,-0.7095,-0.7095,-0.7095,-0.7095,-0.7095,-0.7095,-0.7095,-0.7095,-0.7095,-0.7095,-0.7095,-0.7095,-0.7095,-0.7095,-0.7095,-0.7095,-0.7095,-0.7095,-0.7095,-0.7095,-0.7095,-0.7095,-0.7095,-0.7095,-0.7095,-0.7095,-0.7095,-0.7095,-0.7095,-0.7231,-0.7632,-0.7856,-0.7944,-0.8168,-0.8436,-0.8568,-0.8616,-0.8616,-0.8616,-0.8616,-0.8616,-0.8616,-0.8616,-0.8616,0.0404,0.0359,0.0135,0.0,0.0,0.0,0.0,0.0,0.0,0.0,0.0,0.0,0.0,0.0,0.0,0.0,0.0,0.0,0.0,0.0,0.0,0.0,0.0,0.0,0.0,0.0,0.0,0.0,0.0,0.0,0.0,0.0,0.0,0.0,0.0,0.0,0.0,0.0,0.0,0.0,0.0,0.0,0.0,0.0,0.0,0.0,0.0,0.0,-0.0449,-0.1256,-0.1167,-0.1704,-0.2688,-0.2823,-0.3315,-0.421,-0.4344,-0.4792,-0.5463,-0.5599,-0.5861,-0.6254,-0.6387,-0.6564,-0.6962,-0.7095,-0.7095,-0.7095,-0.7095,-0.7095,-0.7095,-0.7095,-0.7095,-0.7095,-0.7095,-0.7095,-0.7095,-0.7095,-0.7095,-0.7095,-0.7095,-0.7095,-0.7095,-0.7095,-0.7095,-0.7095,-0.7095,-0.7095,-0.7095,-0.7095,-0.7095,-0.7095,-0.7095,-0.7095,-0.7095,-0.7095,-0.7095,-0.7095,-0.7143,-0.7187,-0.7319,-0.7588,-0.7768,-0.79,-0.8168,-0.848,-0.8568,-0.8616,-0.8616,-0.8616,-0.8616,-0.8616,-0.8616,-0.8616,-0.8616,0.0224,0.0359,0.0135,0.0,0.0,0.0,0.0,0.0,0.0,0.0,0.0,0.0,0.0,0.0,0.0,0.0,0.0,0.0,0.0,0.0,0.0,0.0,0.0,0.0,0.0,0.0,0.0,0.0,0.0,0.0,0.0,0.0,0.0,0.0,0.0,0.0,0.0,0.0,0.0,0.0,0.0,0.0,0.0,0.0,0.0,0.0,-0.0853,-0.0539,-0.0987,-0.2062,-0.2017,-0.2331,-0.3494,-0.3807,-0.4255,-0.4971,-0.5196,-0.5329,-0.5644,-0.5733,-0.5905,-0.621,-0.6428,-0.6605,-0.7007,-0.7095,-0.7095,-0.7095,-0.7095,-0.7095,-0.7095,-0.7095,-0.7095,-0.7095,-0.7095,-0.7095,-0.7095,-0.7095,-0.7095,-0.7095,-0.7095,-0.7095,-0.7095,-0.7095,-0.7095,-0.7095,-0.7095,-0.7095,-0.7095,-0.7095,-0.7095,-0.7095,-0.7095,-0.7095,-0.7095,-0.7095,-0.7095,-0.7095,-0.7231,-0.7415,-0.7547,-0.7632,-0.7852,-0.8072,-0.8296,-0.8476,-0.8568,-0.8616,-0.8616,-0.8616,-0.8616,-0.8616,-0.8616,-0.8616,-0.8616,0.009,0.0224,0.009,0.0,0.0,0.0,0.0,0.0,0.0,0.0,0.0,0.0,0.0,0.0,0.0,0.0,0.0,0.0,0.0,0.0,0.0,0.0,0.0,0.0,0.0,0.0,0.0,0.0,0.0,0.0,0.0,0.0,0.0,0.0,0.0,0.0,0.0,0.0,0.0,0.0,0.0,0.0,0.0,0.0,0.0,0.0,-0.148,-0.1659,-0.166,-0.2688,-0.3045,-0.3136,-0.4255,-0.4882,-0.5107,-0.5555,-0.5688,-0.5688,-0.5688,-0.5688,-0.5949,-0.6343,-0.6384,-0.665,-0.6962,-0.7095,-0.7095,-0.7095,-0.7095,-0.7095,-0.7095,-0.7095,-0.7095,-0.7095,-0.7095,-0.7095,-0.7095,-0.7095,-0.7095,-0.7095,-0.7095,-0.7095,-0.7095,-0.7095,-0.7095,-0.7095,-0.7095,-0.7095,-0.7095,-0.7095,-0.7095,-0.7095,-0.7095,-0.7095,-0.7095,-0.7095,-0.7095,-0.7095,-0.7279,-0.7507,-0.7635,-0.7764,-0.8028,-0.8248,-0.8384,-0.8524,-0.8568,-0.8616,-0.8616,-0.8616,-0.8616,-0.8616,-0.8616,-0.8616,-0.8616,0.0,0.0,0.0,0.0,0.0,0.0,0.0,0.0,0.0,0.0,0.0,0.0,0.0,0.0,0.0,0.0,0.0,0.0,0.0,0.0,0.0,0.0,0.0,0.0,0.0,0.0,0.0,0.0,0.0,0.0,0.0,0.0,0.0,0.0,0.0,0.0,0.0,0.0,0.0,0.0,0.0,0.0,-0.0763,-0.1166,-0.1525,-0.2017,-0.2509,-0.2688,-0.3269,-0.3851,-0.4208,-0.4792,-0.5329,-0.5688,-0.5688,-0.5688,-0.5688,-0.5688,-0.5688,-0.5688,-0.5952,-0.6299,-0.6384,-0.6694,-0.6918,-0.7095,-0.7095,-0.7095,-0.7095,-0.7095,-0.7095,-0.7095,-0.7095,-0.7095,-0.7095,-0.7095,-0.7095,-0.7095,-0.7095,-0.7095,-0.7095,-0.7095,-0.7095,-0.7095,-0.7095,-0.7095,-0.7095,-0.7095,-0.7095,-0.7095,-0.7095,-0.7095,-0.7095,-0.7095,-0.7095,-0.7095,-0.7095,-0.7095,-0.7323,-0.7507,-0.768,-0.7896,-0.8116,-0.834,-0.8476,-0.8568,-0.8616,-0.8616,-0.8616,-0.8616,-0.8616,-0.8616,-0.8616,-0.8616,-0.8616,0.0,0.0,0.0,0.0,0.0,0.0,0.0,0.0,0.0,0.0,0.0,0.0,0.0,0.0,0.0,0.0,0.0,0.0,0.0,0.0,0.0,0.0,0.0,0.0,0.0,0.0,0.0,0.0,0.0,0.0,0.0,0.0,0.0,0.0,0.0,0.0,0.0,0.0,0.0,0.0,-0.0628,-0.0763,-0.1435,-0.2017,-0.233,-0.2911,-0.3583,-0.3314,-0.3896,-0.4924,-0.4567,-0.4792,-0.5599,-0.5688,-0.5688,-0.5688,-0.5688,-0.5688,-0.5688,-0.5688,-0.5908,-0.6299,-0.6384,-0.6653,-0.6918,-0.7095,-0.7095,-0.7095,-0.7095,-0.7095,-0.7095,-0.7095,-0.7095,-0.7095,-0.7095,-0.7095,-0.7095,-0.7095,-0.7095,-0.7095,-0.7095,-0.7095,-0.7095,-0.7095,-0.7095,-0.7095,-0.7095,-0.7095,-0.7095,-0.7095,-0.7095,-0.7095,-0.7095,-0.7095,-0.7095,-0.7095,-0.7095,-0.7143,-0.7367,-0.7591,-0.7812,-0.7984,-0.8252,-0.8384,-0.8524,-0.8568,-0.8616,-0.8616,-0.8616,-0.8616,-0.8616,-0.8616,-0.8616,-0.8616,-0.8616,0.0,0.0,0.0,0.0,0.0,0.0,0.0,0.0,0.0,0.0,0.0,0.0,0.0,0.0,0.0,0.0,0.0,0.0,0.0,0.0,0.0,0.0,0.0,0.0,0.0,0.0,0.0,0.0,0.0,0.0,0.0,0.0,0.0,0.0,0.0,0.0,0.0,0.0,0.0,0.0,-0.0673,-0.0987,-0.1659,-0.2643,-0.2867,-0.3582,-0.4523,-0.403,-0.4701,-0.5508,-0.4971,-0.5104,-0.5688,-0.5688,-0.5688,-0.5688,-0.5688,-0.5688,-0.5688,-0.5688,-0.5994,-0.6254,-0.6428,-0.6653,-0.6918,-0.7095,-0.7095,-0.7095,-0.7095,-0.7095,-0.7095,-0.7095,-0.7095,-0.7095,-0.7095,-0.7095,-0.7095,-0.7095,-0.7095,-0.7095,-0.7095,-0.7095,-0.7095,-0.7095,-0.7095,-0.7095,-0.7095,-0.7095,-0.7095,-0.7095,-0.7095,-0.7095,-0.7095,-0.7095,-0.7095,-0.7095,-0.7095,-0.7231,-0.7544,-0.7724,-0.7896,-0.8164,-0.8388,-0.8524,-0.8568,-0.8616,-0.8616,-0.8616,-0.8616,-0.8616,-0.8616,-0.8616,-0.8616,-0.8616,-0.8616,0.0,0.0,0.0,0.0,0.0,0.0,0.0,0.0,0.0,0.0,0.0,0.0,0.0,0.0,0.0,0.0,0.0,0.0,0.0,0.0,0.0,0.0,0.0,0.0,0.0,0.0,0.0,0.0,0.0,0.0,0.0,0.0,0.0,0.0,0.0,0.0,0.0,0.0,0.0,-0.018,-0.0314,-0.0494,-0.0943,-0.2553,-0.309,-0.3582,-0.4837,-0.5374,-0.5555,-0.5466,-0.5644,-0.5599,-0.5688,-0.5688,-0.5688,-0.5688,-0.5688,-0.5688,-0.5688,-0.5688,-0.5949,-0.621,-0.6428,-0.6653,-0.6918,-0.7095,-0.7095,-0.7095,-0.7095,-0.7095,-0.7095,-0.7095,-0.7095,-0.7095,-0.7095,-0.7095,-0.7095,-0.7095,-0.7095,-0.7095,-0.7095,-0.7095,-0.7095,-0.7095,-0.7095,-0.7095,-0.7095,-0.7095,-0.7095,-0.7095,-0.7095,-0.7095,-0.7095,-0.7095,-0.7095,-0.7095,-0.7095,-0.7275,-0.7588,-0.7768,-0.7896,-0.8212,-0.8568,-0.8616,-0.8616,-0.8616,-0.8616,-0.8616,-0.8616,-0.8616,-0.8616,-0.8616,-0.8616,-0.8616,-0.8616,0.0,0.0,0.0,0.0,0.0,0.0,0.0,0.0,0.0,0.0,0.0,0.0,0.0,0.0,0.0,0.0,0.0,0.0,0.0,0.0,0.0,0.0,0.0,0.0,0.0,0.0,0.0,0.0,0.0,0.0,0.0,0.0,0.0,0.0,0.0,0.0,0.0,0.0,0.0,0.0,-0.0718,-0.1122,-0.1704,-0.2553,-0.3002,-0.3002,-0.3896,-0.4342,-0.4074,-0.3851,-0.5107,-0.5555,-0.5688,-0.5688,-0.5688,-0.5688,-0.5688,-0.5688,-0.5688,-0.5733,-0.5952,-0.621,-0.6473,-0.6738,-0.6918,-0.7051,-0.7095,-0.7095,-0.7095,-0.7095,-0.7095,-0.7095,-0.7095,-0.7095,-0.7095,-0.7095,-0.7095,-0.7095,-0.7095,-0.7095,-0.7095,-0.7095,-0.7095,-0.7095,-0.7095,-0.7095,-0.7095,-0.7095,-0.7095,-0.7095,-0.7095,-0.7095,-0.7095,-0.7095,-0.7095,-0.7095,-0.7095,-0.7231,-0.7459,-0.768,-0.79,-0.8256,-0.8616,-0.8616,-0.8616,-0.8616,-0.8616,-0.8616,-0.8616,-0.8616,-0.8616,-0.8616,-0.8616,-0.8616,-0.8616,0.0,0.0,0.0,0.0,0.0,0.0,0.0,0.0,0.0,0.0,0.0,0.0,0.0,0.0,0.0,0.0,0.0,0.0,0.0,0.0,0.0,0.0,0.0,0.0,0.0,0.0,0.0,0.0,0.0,0.0,0.0,0.0,0.0,0.0,0.0,0.0,0.0,0.0,0.0,0.0,0.0,0.0,0.0,-0.1928,-0.2241,-0.2376,-0.2956,-0.3448,-0.3269,-0.336,-0.4344,-0.4882,-0.5149,-0.5466,-0.5644,-0.5688,-0.5688,-0.5688,-0.5688,-0.5777,-0.5952,-0.6254,-0.6428,-0.665,-0.7007,-0.7095,-0.7095,-0.7095,-0.7095,-0.7095,-0.7095,-0.7095,-0.7095,-0.7095,-0.7095,-0.7095,-0.7095,-0.7095,-0.7095,-0.7095,-0.7095,-0.7095,-0.7095,-0.7095,-0.7095,-0.7095,-0.7095,-0.7095,-0.7095,-0.7095,-0.7095,-0.7095,-0.7095,-0.7095,-0.7095,-0.7095,-0.7095,-0.7231,-0.7415,-0.7812,-0.8164,-0.8392,-0.8616,-0.8616,-0.8616,-0.8616,-0.8616,-0.8616,-0.8616,-0.8616,-0.8616,-0.8616,-0.8616,-0.8616,-0.8616,0.0,0.0,0.0,0.0,0.0,0.0,0.0,0.0,0.0,0.0,0.0,0.0,0.0,0.0,0.0,0.0,0.0,0.0,0.0,0.0,0.0,0.0,0.0,0.0,0.0,0.0,0.0,0.0,0.0,0.0,0.0,0.0,0.0,0.0,0.0,0.0,0.0,0.0,0.0,0.0,0.0,0.0,0.0,-0.1032,-0.1301,-0.1704,-0.224,-0.2643,-0.2643,-0.2956,-0.3403,-0.4119,-0.4746,-0.524,-0.5599,-0.5688,-0.5688,-0.5688,-0.5688,-0.5733,-0.5994,-0.6254,-0.634,-0.6605,-0.6962,-0.7095,-0.7095,-0.7095,-0.7095,-0.7095,-0.7095,-0.7095,-0.7095,-0.7095,-0.7095,-0.7095,-0.7095,-0.7095,-0.7095,-0.7095,-0.7095,-0.7095,-0.7095,-0.7095,-0.7095,-0.7095,-0.7095,-0.7095,-0.7095,-0.7095,-0.7095,-0.7095,-0.7095,-0.7095,-0.7095,-0.7095,-0.7095,-0.7275,-0.7455,-0.7988,-0.8432,-0.8524,-0.8616,-0.8616,-0.8616,-0.8616,-0.8616,-0.8616,-0.8616,-0.8616,-0.8616,-0.8616,-0.8616,-0.8616,-0.8616,0.0,0.0,0.0,0.0,0.0,0.0,0.0,0.0,0.0,0.0,0.0,0.0,0.0,0.0,0.0,0.0,0.0,0.0,0.0,0.0,0.0,0.0,0.0,0.0,0.0,0.0,0.0,0.0,0.0,0.0,0.0,0.0,0.0,0.0,0.0,0.0,0.0,0.0,0.0,0.0,0.0,0.0,0.0,-0.027,-0.027,-0.0404,-0.0719,-0.1346,-0.1122,-0.1301,-0.233,-0.3492,-0.4387,-0.5104,-0.5555,-0.5688,-0.5688,-0.5688,-0.5688,-0.5688,-0.5949,-0.6343,-0.6473,-0.6605,-0.6918,-0.7095,-0.7095,-0.7095,-0.7095,-0.7095,-0.7095,-0.7095,-0.7095,-0.7095,-0.7095,-0.7095,-0.7095,-0.7095,-0.7095,-0.7095,-0.7095,-0.7095,-0.7095,-0.7095,-0.7095,-0.7095,-0.7095,-0.7095,-0.7095,-0.7095,-0.7095,-0.7095,-0.7095,-0.7095,-0.7095,-0.7095,-0.7139,-0.7275,-0.754,-0.7984,-0.8344,-0.8568,-0.8616,-0.8616,-0.8616,-0.8616,-0.8616,-0.8616,-0.8616,-0.8616,-0.8616,-0.8616,-0.8616,-0.8616,-0.8616]}]]